[[{"header":{"parameterUnit":"m.s-1","parameterCategory":1,"la1":31.0,"la2":29.5877,"lo1":-88.7671,"lo2":-86.6584,"dy":0.0162,"dx":0.0185,"nx":115,"ny":88,"refTime":"2023-04-23T18:00:00:Z","depth":0,"parameterNumber":2,"parameterNumberName":"U-component_of_WINDS"},"data":[0.0,0.0,0.0,0.0,0.0,0.0,0.0,0.0,0.0,0.0,0.0,0.0,0.0,0.0,0.0,0.0,0.0,0.0,0.0,0.0,0.0,0.0,0.0,0.0,0.0,0.0,0.0,0.0,0.0,0.0,0.0,0.0,0.0,0.0,0.0,0.0,0.0,0.0,0.0,0.0,0.0,0.0,0.0,0.0,0.0,0.0,0.0,0.0,0.0,0.0,0.0,0.0,0.0,0.0,0.0,0.0,0.0,0.0,0.0,0.0,0.0,0.0,0.0,0.0,0.0,0.0,0.0,0.0,0.0,0.0,0.0,0.0,0.0,0.0,0.0,0.0,0.0,0.0,0.0,0.0,0.0,0.0,0.0,0.0,0.0,0.0,0.0,0.0,0.0,0.0,0.0,0.0,0.0,0.0,0.0,0.0,0.0,0.0,0.0,0.0,0.0,0.0,0.0,0.0,0.0,0.0,0.0,0.0,0.0,0.0,0.0,0.0,0.0,0.0,0.0,0.0,0.0,0.0,0.0,0.0,0.0,0.0,0.0,0.0,0.0,0.0,0.0,0.0,0.0,0.0,0.0,0.0,0.0,0.0,0.0,0.0,0.0,0.0,0.0,0.0,0.0,0.0,0.0,0.0,0.0,0.0,0.0,0.0,0.0,0.0,0.0,0.0,0.0,0.0,0.0,0.0,0.0,0.0,0.0,0.0,0.0,0.0,0.0,0.0,0.0,0.0,0.0,0.0,0.0,0.0,0.0,0.0,0.0,0.0,0.0,0.0,0.0,0.0,0.0,0.0,0.0,0.0,0.0,0.0,0.0,0.0,0.0,0.0,0.0,0.0,0.0,0.0,0.0,0.0,0.0,0.0,0.0,0.0,0.0,0.0,0.0,0.0,0.0,0.0,0.0,0.0,0.0,0.0,0.0,0.0,0.0,0.0,0.0,0.0,0.0,0.0,0.0,0.0,0.0,0.0,0.0,0.0,0.0,0.0,0.0,0.0,0.0,0.0,0.0,0.0,0.0,0.0,0.0,0.0,0.0,0.0,0.0,0.0,0.0,0.0,0.0,0.0,0.0,0.0,0.0,0.0,0.0,0.0,0.0,0.0,0.0,0.0,0.0,0.0,0.0,0.0,0.0,0.0,0.0,0.0,0.0,0.0,0.0,0.0,0.0,0.0,0.0,0.0,0.0,0.0,0.0,0.0,0.0,0.0,0.0,0.0,0.0,0.0,0.0,0.0,0.0,0.0,0.0,0.0,0.0,0.0,0.0,0.0,0.0,0.0,0.0,0.0,0.0,0.0,0.0,0.0,0.0,0.0,0.0,0.0,0.0,0.0,0.0,0.0,0.0,0.0,0.0,0.0,0.0,0.0,0.0,0.0,0.0,0.0,0.0,0.0,0.0,0.0,0.0,0.0,0.0,0.0,0.0,0.0,0.0,0.0,0.0,0.0,0.0,0.0,0.0,0.0,0.0,0.0,0.0,0.0,0.0,0.0,0.0,0.0,0.0,0.0,0.0,0.0,0.0,0.0,0.0,0.0,0.0,0.0,0.0,0.0,0.0,0.0,0.0,0.0,0.0,0.0,0.0,0.0,0.0,0.0,0.0,0.0,0.0,0.0,0.0,0.0,0.0,0.0,0.0,0.0,0.0,0.0,0.0,0.0,0.0,0.0,0.0,0.0,0.0,0.0,0.0,0.0,0.0,0.0,0.0,0.0,0.0,0.0,0.0,0.0,0.0,0.0,0.0,0.0,0.0,0.0,0.0,0.0,0.0,0.0,0.0,0.0,0.0,0.0,0.0,0.0,0.0,0.0,0.0,0.0,0.0,0.0,0.0,0.0,0.0,0.0,0.0,0.0,0.0,0.0,0.0,0.0,0.0,0.0,0.0,0.0,0.0,0.0,0.0,0.0,0.0,0.0,0.0,0.0,0.0,0.0,0.0,0.0,0.0,0.0,0.0,0.0,0.0,0.0,0.0,0.0,0.0,0.0,0.0,0.0,0.0,0.0,0.0,0.0,0.0,0.0,0.0,0.0,0.0,0.0,0.0,0.0,0.0,0.0,0.0,0.0,0.0,0.0,0.0,0.0,0.0,0.0,0.0,0.0,0.0,0.0,0.0,0.0,0.0,0.0,0.0,0.0,0.0,0.0,0.0,0.0,0.0,0.0,0.0,0.0,0.0,0.0,0.0,0.0,0.0,0.0,0.0,0.0,0.0,0.0,0.0,0.0,0.0,0.0,0.0,0.0,0.0,0.0,0.0,0.0,0.0,0.0,0.0,0.0,0.0,0.0,0.0,0.0,0.0,0.0,0.0,0.0,0.0,0.0,0.0,0.0,0.0,0.0,0.0,0.0,0.0,0.0,0.0,0.0,0.0,0.0,0.0,0.0,0.0,0.0,0.0,0.0,0.0,0.0,0.0,0.0,0.0,0.0,0.0,0.0,0.0,0.0,0.0,0.0,0.0,0.0,0.0,0.0,0.0,0.0,0.0,0.0,0.0,0.0,0.0,0.0,0.0,0.0,0.0,0.0,0.0,0.0,0.0,0.0,0.0,0.0,0.0,0.0,0.0,0.0,0.0,0.0,0.0,0.0,0.0,0.0,0.0,0.0,0.0,0.0,0.0,0.0,0.0,0.0,0.0,0.0,0.0,0.0,0.0,0.0,0.0,0.0,0.0,0.0,0.0,0.0,0.0,0.0,0.0,0.0,0.0,0.0,0.0,0.0,0.0,0.0,0.0,0.0,0.0,0.0,0.0,0.0,0.0,0.0,0.0,0.0,0.0,0.0,0.0,0.0,0.0,0.0,0.0,0.0,0.0,0.0,0.0,0.0,0.0,0.0,0.0,0.0,0.0,0.0,0.0,0.0,0.0,0.0,0.0,0.0,0.0,0.0,0.0,0.0,0.0,0.0,0.0,0.0,0.0,0.0,0.0,0.0,0.0,0.0,0.0,0.0,0.0,0.0,0.0,0.0,0.0,0.0,0.0,0.0,0.0,0.0,0.0,0.0,0.0,0.0,0.0,0.0,0.0,0.0,0.0,0.0,0.0,0.0,0.0,0.0,0.0,0.0,0.0,0.0,0.0,0.0,0.0,0.0,0.0,0.0,0.0,0.0,0.0,0.0,0.0,0.0,0.0,0.0,0.0,0.0,0.0,0.0,0.0,0.0,0.0,0.0,0.0,0.0,0.0,0.0,0.0,0.0,0.0,0.0,0.0,0.0,0.0,0.0,0.0,0.0,0.0,0.0,0.0,0.0,0.0,0.0,0.0,0.0,0.0,0.0,0.0,0.0,0.0,0.0,0.0,0.0,0.0,0.0,0.0,0.0,0.0,0.0,0.0,0.0,0.0,0.0,0.0,0.0,0.0,0.0,0.0,0.0,0.0,0.0,0.0,0.0,0.0,0.0,0.0,0.0,0.0,0.0,0.0,0.0,0.0,0.0,0.0,0.0,0.0,0.0,0.0,0.0,0.0,0.0,0.0,0.0,0.0,0.0,0.0,0.0,0.0,0.0,0.0,0.0,0.0,0.0,0.0,0.0,0.0,0.0,0.0,0.0,0.0,0.0,0.0,0.0,0.0,0.0,0.0,0.0,0.0,0.0,0.0,0.0,0.0,0.0,0.0,0.0,0.0,0.0,0.0,0.0,0.0,0.0,0.0,0.0,0.0,0.0,0.0,0.0,0.0,0.0,0.0,0.0,0.0,0.0,0.0,0.0,0.0,0.0,0.0,0.0,0.0,0.0,0.0,0.0,0.0,0.0,0.0,0.0,0.0,0.0,0.0,0.0,0.0,0.0,0.0,0.0,0.0,0.0,0.0,0.0,0.0,0.0,0.0,0.0,0.0,0.0,0.0,0.0,0.0,0.0,0.0,0.0,0.0,0.0,0.0,0.0,0.0,0.0,0.0,0.0,0.0,0.0,0.0,0.0,0.0,0.0,0.0,0.0,0.0,0.0,0.0,0.0,0.0,0.0,0.0,0.0,0.0,0.0,0.0,0.0,0.0,0.0,0.0,0.0,0.0,0.0,0.0,0.0,0.0,0.0,0.0,0.0,0.0,0.0,0.0,0.0,0.0,0.0,0.0,0.0,0.0,0.0,0.0,0.0,0.0,0.0,0.0,0.0,0.0,0.0,0.0,0.0,0.0,0.0,0.0,0.0,0.0,0.0,0.0,0.0,0.0,0.0,0.0,0.0,0.0,0.0,0.0,0.0,0.0,0.0,0.0,0.0,0.0,0.0,0.0,0.0,0.0,0.0,0.0,0.0,0.0,0.0,1.9359,0.0,0.0,0.0,0.0,0.0,0.0,0.0,0.0,0.0,0.0,0.0,0.0,0.0,0.0,0.0,0.0,0.0,0.0,0.0,0.0,0.0,0.0,0.0,0.0,0.0,0.0,0.0,0.0,0.0,0.0,0.0,0.0,0.0,0.0,0.0,0.0,0.0,0.0,0.0,0.0,0.0,0.0,0.0,0.0,0.0,0.0,0.0,0.0,0.0,0.0,0.0,0.0,0.0,0.0,0.0,0.0,0.0,0.0,0.0,0.0,0.0,0.0,0.0,0.0,0.0,0.0,0.0,0.0,0.0,0.0,0.0,0.0,0.0,0.0,0.0,0.0,0.0,0.0,0.0,0.0,0.0,0.0,0.0,0.0,0.0,0.0,0.0,0.0,0.0,0.0,0.0,0.0,0.0,0.0,0.0,0.0,0.0,0.0,0.0,0.0,0.0,0.0,0.0,0.0,0.0,0.0,0.0,0.0,0.0,0.0,1.7398,1.8802,1.7306,1.7611,2.0008,0.0,0.0,0.0,0.0,0.0,0.0,0.0,0.0,0.0,0.0,0.0,0.0,0.0,0.0,0.0,0.0,0.0,0.0,0.0,0.0,0.0,0.0,0.0,0.0,0.0,0.0,0.0,0.0,0.0,0.0,0.0,0.0,0.0,0.0,0.0,0.0,0.0,0.0,0.0,0.0,0.0,0.0,0.0,0.0,0.0,0.0,0.0,0.0,0.0,0.0,0.0,0.0,0.0,0.0,0.0,0.0,0.0,0.0,0.0,0.0,0.0,0.0,0.0,0.0,0.0,0.0,0.0,0.0,0.0,0.0,0.0,0.0,0.0,0.0,0.0,0.0,0.0,0.0,0.0,0.0,0.0,0.0,0.0,0.0,0.0,0.0,0.0,0.0,0.0,0.0,0.0,0.0,0.0,0.0,0.0,0.0,0.0,0.0,0.0,0.0,0.0,0.0,0.0,0.0,0.0,0.0,0.0,0.0,0.0,0.0,0.0,0.0,1.7571,1.7542,2.0102,0.0,0.0,0.0,0.0,0.0,0.0,0.0,0.0,0.0,0.0,0.0,0.0,0.0,0.0,0.0,0.0,0.0,0.0,0.0,0.0,0.0,0.0,0.0,0.0,0.0,0.0,0.0,0.0,0.0,0.0,0.0,0.0,0.0,0.0,0.0,0.0,0.0,0.0,0.0,0.0,0.0,0.0,0.0,0.0,0.0,0.0,0.0,0.0,0.0,0.0,0.0,0.0,0.0,0.0,0.0,0.0,0.0,0.0,0.0,0.0,0.0,0.0,0.0,0.0,0.0,0.0,0.0,0.0,0.0,0.0,0.0,0.0,0.0,0.0,0.0,0.0,0.0,0.0,0.0,0.0,0.0,0.0,0.0,0.0,0.0,0.0,0.0,0.0,0.0,0.0,0.0,0.0,0.0,0.0,0.0,0.0,0.0,0.0,0.0,0.0,0.0,0.0,0.0,0.0,0.0,0.0,0.0,0.0,0.0,0.0,1.8631,2.0706,1.974,0.0,1.9681,0.0,0.0,0.0,0.0,0.0,0.0,0.0,0.0,0.0,0.0,0.0,0.0,0.0,0.0,0.0,0.0,0.0,0.0,0.0,0.0,0.0,0.0,0.0,0.0,0.0,0.0,0.0,0.0,0.0,0.0,0.0,0.0,0.0,0.0,0.0,0.0,0.0,0.0,0.0,0.0,0.0,0.0,0.0,0.0,0.0,0.0,0.0,0.0,0.0,0.0,0.0,0.0,0.0,0.0,0.0,0.0,0.0,0.0,0.0,0.0,0.0,0.0,0.0,0.0,0.0,0.0,0.0,0.0,0.0,0.0,0.0,0.0,0.0,0.0,0.0,0.0,0.0,0.0,0.0,0.0,0.0,0.0,0.0,0.0,0.0,0.0,0.0,0.0,0.0,0.0,0.0,0.0,0.0,0.0,0.0,0.0,0.0,0.0,0.0,0.0,0.0,0.0,0.0,0.0,0.0,0.0,0.0,0.0,0.0,0.0,1.8452,2.0084,1.9973,1.9693,0.0,0.0,0.0,0.0,0.0,0.0,0.0,0.0,0.0,0.0,0.0,0.0,0.0,0.0,0.0,0.0,0.0,0.0,0.0,0.0,0.0,0.0,0.0,0.0,0.0,0.0,0.0,0.0,0.0,0.0,0.0,0.0,0.0,0.0,0.0,0.0,0.0,0.0,0.0,0.0,0.0,0.0,0.0,0.0,0.0,0.0,0.0,0.0,0.0,0.0,0.0,0.0,0.0,0.0,0.0,0.0,0.0,0.0,0.0,0.0,0.0,0.0,0.0,0.0,0.0,0.0,0.0,0.0,0.0,0.0,0.0,0.0,0.0,0.0,0.0,0.0,0.0,0.0,0.0,0.0,0.0,0.0,0.0,0.0,0.0,0.0,0.0,0.0,0.0,0.0,0.0,0.0,0.0,0.0,0.0,0.0,0.0,0.0,0.0,0.0,0.0,0.0,0.0,0.0,0.0,0.0,0.0,0.0,0.0,0.0,1.795,1.8478,2.0003,1.9985,1.9727,1.9386,0.0,0.0,0.0,0.0,0.0,0.0,0.0,0.0,0.0,0.0,0.0,0.0,0.0,0.0,0.0,0.0,0.0,0.0,0.0,0.0,0.0,0.0,0.0,0.0,0.0,0.0,0.0,0.0,0.0,0.0,0.0,0.0,0.0,0.0,0.0,0.0,0.0,0.0,0.0,0.0,0.0,0.0,0.0,0.0,0.0,0.0,0.0,0.0,0.0,0.0,0.0,0.0,0.0,0.0,0.0,0.0,0.0,0.0,0.0,0.0,0.0,0.0,0.0,0.0,0.0,0.0,0.0,0.0,0.0,0.0,0.0,0.0,0.0,0.0,0.0,0.0,0.0,0.0,0.0,0.0,0.0,0.0,0.0,0.0,0.0,0.0,0.0,0.0,0.0,0.0,0.0,0.0,0.0,0.0,0.0,0.0,0.0,0.0,0.0,0.0,0.0,0.0,0.0,0.0,0.0,0.0,0.0,0.0,2.1993,1.9352,1.8955,2.1259,2.0133,1.9773,0.0,0.0,0.0,0.0,0.0,0.0,0.0,0.0,0.0,0.0,0.0,0.0,0.0,0.0,0.0,0.0,0.0,0.0,0.0,0.0,0.0,0.0,0.0,0.0,0.0,0.0,0.0,0.0,0.0,0.0,0.0,0.0,0.0,0.0,0.0,0.0,0.0,0.0,0.0,0.0,0.0,0.0,0.0,0.0,0.0,0.0,0.0,0.0,0.0,0.0,0.0,0.0,0.0,0.0,0.0,0.0,0.0,0.0,0.0,0.0,0.0,0.0,0.0,0.0,0.0,0.0,0.0,0.0,0.0,0.0,0.0,0.0,0.0,0.0,0.0,0.0,0.0,0.0,0.0,0.0,0.0,0.0,0.0,0.0,0.0,0.0,0.0,0.0,0.0,0.0,0.0,0.0,0.0,0.0,0.0,0.0,0.0,0.0,0.0,0.0,0.0,0.0,0.0,0.0,0.0,0.0,0.0,0.0,0.0,1.8714,1.891,1.963,2.0953,2.0114,1.9622,0.0,0.0,0.0,0.0,0.0,0.0,0.0,0.0,0.0,0.0,0.0,0.0,0.0,0.0,0.0,0.0,0.0,0.0,0.0,0.0,0.0,0.0,0.0,0.0,0.0,0.0,0.0,0.0,0.0,0.0,0.0,0.0,0.0,0.0,0.0,0.0,0.0,0.0,0.0,0.0,0.0,0.0,0.0,0.0,0.0,0.0,0.0,0.0,0.0,0.0,0.0,0.0,0.0,0.0,0.0,0.0,0.0,0.0,0.0,0.0,0.0,0.0,0.0,0.0,0.0,0.0,0.0,0.0,0.0,0.0,0.0,0.0,0.0,0.0,0.0,0.0,0.0,0.0,0.0,0.0,0.0,0.0,0.0,0.0,0.0,0.0,0.0,0.0,0.0,0.0,0.0,0.0,0.0,0.0,0.0,0.0,0.0,0.0,0.0,0.0,0.0,0.0,0.0,0.0,0.0,0.0,0.0,0.0,0.0,1.7143,0.0,2.0055,2.0685,2.0065,1.9591,0.0,0.0,0.0,0.0,0.0,0.0,0.0,0.0,0.0,0.0,0.0,0.0,0.0,0.0,0.0,0.0,0.0,0.0,0.0,0.0,0.0,0.0,0.0,0.0,0.0,0.0,0.0,0.0,0.0,0.0,0.0,0.0,0.0,0.0,0.0,0.0,0.0,0.0,0.0,0.0,0.0,0.0,0.0,0.0,0.0,0.0,0.0,0.0,0.0,0.0,0.0,0.0,0.0,0.0,0.0,0.0,0.0,0.0,0.0,0.0,0.0,0.0,0.0,0.0,0.0,0.0,0.0,0.0,0.0,0.0,0.0,0.0,0.0,0.0,0.0,0.0,0.0,0.0,0.0,0.0,0.0,0.0,0.0,0.0,0.0,0.0,0.0,0.0,0.0,0.0,0.0,0.0,0.0,0.0,0.0,0.0,0.0,0.0,0.0,0.0,0.0,0.0,0.0,0.0,0.0,0.0,0.0,0.0,1.7377,1.8011,1.9322,2.0241,2.0695,1.9865,1.9729,0.0,0.0,0.0,0.0,0.0,0.0,0.0,0.0,0.0,0.0,0.0,0.0,0.0,0.0,0.0,0.0,0.0,0.0,0.0,0.0,0.0,0.0,0.0,0.0,0.0,0.0,0.0,0.0,0.0,0.0,0.0,0.0,0.0,0.0,0.0,0.0,0.0,0.0,0.0,0.0,0.0,0.0,0.0,0.0,0.0,0.0,0.0,0.0,0.0,0.0,0.0,0.0,0.0,0.0,0.0,0.0,0.0,0.0,0.0,0.0,0.0,0.0,0.0,0.0,0.0,0.0,0.0,0.0,0.0,0.0,0.0,0.0,0.0,0.0,0.0,0.0,0.0,0.0,0.0,0.0,0.0,0.0,0.0,0.0,0.0,0.0,0.0,0.0,0.0,0.0,0.0,0.0,0.0,0.0,0.0,0.0,0.0,0.0,0.0,0.0,0.0,0.0,0.0,0.0,0.0,0.0,0.0,0.0,0.0,1.8604,1.872,1.9987,2.2261,1.9541,1.8953,0.0,0.0,0.0,0.0,0.0,0.0,0.0,0.0,0.0,0.0,0.0,0.0,0.0,0.0,0.0,0.0,0.0,0.0,0.0,0.0,0.0,0.0,0.0,0.0,0.0,0.0,0.0,0.0,0.0,0.0,0.0,0.0,0.0,0.0,0.0,0.0,0.0,0.0,0.0,0.0,0.0,0.0,0.0,0.0,0.0,0.0,0.0,0.0,0.0,0.0,0.0,0.0,0.0,0.0,0.0,0.0,0.0,0.0,0.0,0.0,0.0,0.0,0.0,0.0,0.0,0.0,0.0,0.0,0.0,0.0,0.0,0.0,0.0,0.0,0.0,0.0,0.0,0.0,0.0,0.0,0.0,0.0,0.0,0.0,0.0,0.0,0.0,0.0,0.0,0.0,0.0,0.0,0.0,0.0,0.0,0.0,0.0,0.0,0.0,0.0,0.0,0.0,0.0,0.0,0.0,0.0,0.0,0.0,0.0,2.0107,1.9269,1.9922,2.2249,2.0136,1.9351,2.0066,0.0,0.0,0.0,0.0,0.0,0.0,0.0,0.0,0.0,0.0,0.0,0.0,0.0,0.0,0.0,0.0,0.0,0.0,0.0,0.0,0.0,0.0,0.0,0.0,0.0,0.0,0.0,0.0,0.0,0.0,0.0,0.0,0.0,0.0,0.0,0.0,0.0,0.0,0.0,0.0,0.0,0.0,0.0,0.0,0.0,0.0,0.0,0.0,0.0,0.0,0.0,0.0,0.0,0.0,0.0,0.0,0.0,0.0,0.0,0.0,0.0,0.0,0.0,0.0,0.0,0.0,0.0,0.0,0.0,0.0,0.0,0.0,0.0,0.0,0.0,0.0,0.0,0.0,0.0,0.0,0.0,0.0,0.0,0.0,0.0,0.0,0.0,0.0,0.0,0.0,0.0,0.0,0.0,0.0,0.0,0.0,0.0,0.0,0.0,0.0,0.0,0.0,0.0,0.0,0.0,0.0,0.0,0.0,2.2391,2.1031,2.0596,2.1111,2.1498,2.0663,0.0,0.0,0.0,0.0,0.0,0.0,0.0,0.0,0.0,0.0,0.0,0.0,0.0,0.0,0.0,0.0,0.0,0.0,0.0,0.0,0.0,0.0,0.0,0.0,0.0,0.0,0.0,0.0,0.0,0.0,0.0,0.0,0.0,0.0,0.0,0.0,0.0,0.0,0.0,0.0,0.0,0.0,0.0,0.0,0.0,0.0,0.0,0.0,0.0,0.0,0.0,0.0,0.0,0.0,0.0,0.0,0.0,0.0,0.0,0.0,0.0,0.0,0.0,0.0,0.0,0.0,0.0,0.0,0.0,0.0,0.0,0.0,0.0,0.0,0.0,0.0,0.0,0.0,0.0,0.0,0.0,0.0,0.0,0.0,0.0,0.0,0.0,0.0,0.0,0.0,0.0,0.0,0.0,0.0,0.0,0.0,0.0,0.0,0.0,0.0,0.0,0.0,0.0,0.0,0.0,0.0,0.0,0.0,0.0,2.3786,2.5317,2.612,2.6028,2.2199,2.0394,0.0,0.0,0.0,0.0,0.0,0.0,0.0,0.0,0.0,0.0,0.0,0.0,0.0,0.0,0.0,0.0,0.0,0.0,0.0,0.0,0.0,0.0,0.0,0.0,0.0,0.0,0.0,0.0,0.0,0.0,0.0,0.0,0.0,0.0,0.0,0.0,0.0,0.0,0.0,0.0,0.0,0.0,0.0,0.0,0.0,0.0,0.0,0.0,0.0,0.0,0.0,0.0,0.0,0.0,0.0,0.0,0.0,0.0,0.0,0.0,0.0,0.0,0.0,0.0,0.0,0.0,0.0,0.0,0.0,0.0,0.0,0.0,0.0,0.0,0.0,0.0,0.0,0.0,0.0,0.0,0.0,0.0,0.0,0.0,0.0,0.0,0.0,0.0,0.0,0.0,0.0,0.0,0.0,0.0,0.0,0.0,0.0,0.0,0.0,0.0,0.0,0.0,0.0,0.0,0.0,0.0,0.0,0.0,2.4122,2.4767,2.7807,2.9392,2.9353,2.4739,2.1705,0.0,0.0,0.0,0.0,0.0,0.0,0.0,0.0,0.0,0.0,0.0,0.0,0.0,0.0,0.0,0.0,0.0,0.0,0.0,0.0,0.0,0.0,0.0,0.0,0.0,0.0,0.0,0.0,0.0,0.0,0.0,0.0,0.0,0.0,0.0,0.0,0.0,0.0,0.0,0.0,0.0,0.0,0.0,0.0,0.0,0.0,0.0,0.0,0.0,0.0,0.0,0.0,0.0,0.0,0.0,0.0,0.0,0.0,0.0,0.0,0.0,0.0,0.0,0.0,0.0,0.0,0.0,0.0,0.0,0.0,0.0,0.0,0.0,0.0,0.0,0.0,0.0,0.0,0.0,0.0,0.0,0.0,0.0,0.0,0.0,0.0,0.0,0.0,0.0,0.0,0.0,0.0,0.0,0.0,0.0,0.0,0.0,0.0,0.0,0.0,0.0,0.0,0.0,0.0,0.0,0.0,0.0,0.0,2.5792,2.5572,2.9063,3.0918,3.0867,2.7657,2.3738,0.0,0.0,0.0,0.0,0.0,0.0,0.0,0.0,0.0,0.0,0.0,0.0,0.0,0.0,0.0,0.0,0.0,0.0,0.0,0.0,0.0,0.0,0.0,0.0,0.0,0.0,0.0,0.0,0.0,0.0,0.0,0.0,0.0,0.0,0.0,0.0,0.0,0.0,0.0,0.0,0.0,0.0,0.0,0.0,0.0,0.0,0.0,0.0,0.0,0.0,0.0,0.0,0.0,0.0,0.0,0.0,0.0,0.0,0.0,0.0,0.0,0.0,0.0,0.0,0.0,0.0,0.0,0.0,0.0,0.0,0.0,0.0,0.0,0.0,0.0,0.0,0.0,0.0,0.0,0.0,0.0,0.0,0.0,0.0,0.0,0.0,0.0,0.0,0.0,0.0,0.0,0.0,0.0,0.0,0.0,0.0,0.0,0.0,0.0,0.0,0.0,0.0,0.0,0.0,0.0,0.0,0.0,0.0,2.6045,2.6408,2.9979,3.1264,2.992,2.6254,2.3464,0.0,0.0,0.0,0.0,0.0,0.0,0.0,0.0,0.0,0.0,0.0,0.0,0.0,0.0,0.0,0.0,0.0,0.0,0.0,0.0,0.0,0.0,0.0,0.0,0.0,0.0,0.0,0.0,0.0,0.0,0.0,0.0,0.0,0.0,0.0,0.0,0.0,0.0,0.0,0.0,0.0,0.0,0.0,0.0,0.0,0.0,0.0,0.0,2.0954,0.0,0.0,0.0,0.0,0.0,0.0,0.0,0.0,0.0,0.0,0.0,0.0,0.0,0.0,0.0,0.0,0.0,0.0,0.0,0.0,0.0,0.0,0.0,0.0,0.0,0.0,0.0,0.0,0.0,0.0,0.0,0.0,0.0,0.0,0.0,0.0,0.0,0.0,0.0,0.0,0.0,0.0,0.0,0.0,0.0,0.0,0.0,0.0,0.0,0.0,0.0,0.0,0.0,0.0,0.0,0.0,0.0,0.0,0.0,2.5995,2.7162,3.0044,3.1142,3.0135,2.6842,2.4316,0.0,0.0,0.0,0.0,0.0,0.0,0.0,0.0,0.0,0.0,0.0,0.0,0.0,0.0,0.0,0.0,0.0,0.0,0.0,0.0,0.0,0.0,0.0,0.0,0.0,0.0,0.0,0.0,0.0,0.0,0.0,0.0,0.0,0.0,0.0,0.0,0.0,0.0,0.0,0.0,0.0,0.0,0.0,0.0,0.0,0.0,0.0,0.0,0.0,0.0,0.0,0.0,0.0,0.0,0.0,0.0,0.0,0.0,0.0,0.0,0.0,0.0,0.0,0.0,0.0,0.0,0.0,0.0,0.0,0.0,0.0,0.0,0.0,0.0,0.0,0.0,0.0,0.0,0.0,0.0,0.0,0.0,0.0,0.0,0.0,0.0,0.0,0.0,0.0,0.0,0.0,0.0,0.0,0.0,0.0,0.0,0.0,0.0,0.0,0.0,0.0,0.0,0.0,0.0,0.0,0.0,0.0,2.3494,2.5856,2.8048,2.9931,3.0928,3.084,2.8027,2.5464,2.3396,0.0,0.0,0.0,0.0,0.0,0.0,0.0,0.0,0.0,0.0,0.0,0.0,0.0,0.0,0.0,0.0,0.0,0.0,0.0,0.0,0.0,0.0,0.0,0.0,0.0,0.0,0.0,0.0,0.0,0.0,0.0,0.0,0.0,0.0,0.0,0.0,0.0,0.0,1.7537,1.8535,0.0,0.0,0.0,0.0,0.0,0.0,0.0,0.0,2.0916,0.0,0.0,0.0,0.0,0.0,0.0,0.0,0.0,0.0,0.0,0.0,0.0,0.0,0.0,0.0,0.0,0.0,0.0,0.0,0.0,0.0,0.0,0.0,0.0,0.0,0.0,0.0,0.0,0.0,0.0,0.0,0.0,0.0,0.0,0.0,0.0,0.0,0.0,0.0,0.0,0.0,0.0,0.0,0.0,0.0,0.0,0.0,0.0,0.0,0.0,0.0,0.0,0.0,0.0,0.0,0.0,2.4408,2.4315,2.6023,2.9676,3.0508,3.0928,3.082,2.8301,2.605,2.4196,0.0,0.0,0.0,0.0,0.0,0.0,0.0,0.0,0.0,0.0,0.0,0.0,0.0,0.0,0.0,0.0,0.0,0.0,0.0,0.0,0.0,0.0,0.0,0.0,0.0,0.0,0.0,0.0,0.0,0.0,0.0,0.0,0.0,0.0,0.0,0.0,0.0,0.0,0.0,1.9439,2.0415,0.0,0.0,0.0,0.0,0.0,0.0,0.0,0.0,2.2433,0.0,0.0,0.0,0.0,0.0,0.0,0.0,0.0,0.0,0.0,0.0,0.0,0.0,0.0,0.0,0.0,0.0,0.0,0.0,0.0,0.0,0.0,0.0,0.0,0.0,0.0,0.0,0.0,0.0,0.0,0.0,0.0,0.0,0.0,0.0,0.0,0.0,0.0,0.0,0.0,0.0,0.0,0.0,0.0,0.0,0.0,0.0,0.0,0.0,0.0,0.0,0.0,0.0,0.0,0.0,2.4371,2.5248,2.7224,3.0439,3.0781,3.0781,3.0488,2.8027,2.5854,0.0,0.0,0.0,0.0,0.0,0.0,0.0,0.0,0.0,0.0,0.0,0.0,0.0,0.0,0.0,0.0,0.0,0.0,0.0,0.0,0.0,0.0,0.0,0.0,0.0,0.0,0.0,0.0,0.0,0.0,0.0,0.0,0.0,0.0,0.0,0.0,0.0,0.0,0.0,0.0,2.0112,2.0828,2.1874,0.0,0.0,0.0,0.0,0.0,0.0,2.3085,2.2995,0.0,0.0,0.0,0.0,0.0,0.0,0.0,0.0,0.0,0.0,0.0,0.0,0.0,0.0,0.0,0.0,0.0,0.0,0.0,0.0,0.0,0.0,0.0,0.0,0.0,0.0,0.0,0.0,0.0,0.0,0.0,0.0,0.0,0.0,0.0,0.0,0.0,0.0,0.0,0.0,0.0,0.0,0.0,0.0,0.0,0.0,0.0,0.0,0.0,0.0,0.0,0.0,0.0,0.0,0.0,2.3795,2.5918,2.8262,3.0762,3.0928,3.0664,3.0156,2.7565,2.5415,0.0,0.0,0.0,0.0,0.0,0.0,0.0,0.0,0.0,0.0,0.0,0.0,0.0,0.0,0.0,0.0,0.0,0.0,0.0,0.0,0.0,0.0,0.0,0.0,0.0,0.0,0.0,0.0,0.0,0.0,0.0,0.0,0.0,0.0,0.0,0.0,0.0,0.0,0.0,0.0,0.0,2.1675,2.2799,2.2005,0.0,0.0,0.0,0.0,2.3562,2.4027,0.0,0.0,0.0,0.0,0.0,0.0,0.0,0.0,0.0,0.0,0.0,0.0,0.0,0.0,0.0,0.0,0.0,0.0,0.0,0.0,0.0,0.0,0.0,0.0,0.0,0.0,0.0,0.0,0.0,0.0,0.0,0.0,0.0,0.0,0.0,0.0,0.0,0.0,0.0,0.0,0.0,0.0,0.0,0.0,0.0,0.0,0.0,0.0,0.0,0.0,0.0,0.0,0.0,0.0,0.0,0.0,2.3795,2.5893,2.8254,3.0771,3.0928,3.0664,3.0176,2.6998,2.4789,0.0,0.0,0.0,0.0,0.0,0.0,0.0,0.0,0.0,0.0,0.0,0.0,0.0,0.0,0.0,0.0,0.0,0.0,0.0,0.0,0.0,0.0,0.0,0.0,0.0,0.0,0.0,0.0,0.0,0.0,0.0,0.0,0.0,0.0,0.0,0.0,0.0,0.0,0.0,0.0,0.0,2.3512,2.4408,2.3733,2.3111,0.0,0.0,2.5829,2.5385,2.7109,0.0,0.0,0.0,0.0,0.0,0.0,0.0,0.0,0.0,0.0,0.0,0.0,0.0,0.0,0.0,0.0,0.0,0.0,0.0,0.0,0.0,0.0,0.0,0.0,0.0,0.0,0.0,0.0,0.0,0.0,0.0,0.0,0.0,0.0,0.0,0.0,0.0,0.0,0.0,0.0,0.0,0.0,0.0,0.0,0.0,0.0,0.0,0.0,0.0,0.0,0.0,0.0,0.0,0.0,0.0,2.2879,2.4202,2.6992,2.9258,3.0849,3.0928,3.0547,2.9891,2.6529,2.432,0.0,0.0,0.0,0.0,0.0,0.0,0.0,0.0,0.0,0.0,0.0,0.0,0.0,0.0,0.0,0.0,0.0,0.0,0.0,0.0,0.0,0.0,0.0,0.0,0.0,0.0,0.0,0.0,0.0,0.0,0.0,0.0,0.0,0.0,0.0,0.0,0.0,0.0,0.0,0.0,0.0,0.0,2.3991,2.4116,0.0,0.0,0.0,2.7044,2.6033,0.0,0.0,0.0,0.0,0.0,0.0,0.0,0.0,0.0,0.0,0.0,0.0,0.0,0.0,0.0,0.0,0.0,0.0,0.0,0.0,0.0,0.0,0.0,0.0,0.0,0.0,0.0,0.0,0.0,0.0,0.0,0.0,0.0,0.0,0.0,0.0,0.0,0.0,0.0,0.0,0.0,0.0,0.0,0.0,0.0,0.0,0.0,0.0,0.0,0.0,0.0,0.0,0.0,0.0,0.0,0.0,0.0,2.4453,2.7839,3.0028,3.0888,3.0928,3.0497,2.9579,2.6426,0.0,0.0,0.0,0.0,0.0,0.0,0.0,0.0,0.0,0.0,0.0,0.0,0.0,0.0,0.0,0.0,0.0,0.0,0.0,0.0,0.0,0.0,0.0,0.0,0.0,0.0,0.0,1.6681,0.0,0.0,0.0,0.0,0.0,0.0,0.0,0.0,0.0,0.0,0.0,0.0,0.0,0.0,2.5288,2.4427,2.5324,2.6328,0.0,0.0,2.786,2.677,2.8094,2.7801,0.0,0.0,0.0,0.0,0.0,0.0,0.0,0.0,0.0,0.0,0.0,0.0,0.0,0.0,0.0,0.0,0.0,0.0,0.0,0.0,0.0,0.0,0.0,0.0,0.0,0.0,0.0,0.0,0.0,0.0,0.0,0.0,0.0,0.0,0.0,0.0,0.0,0.0,0.0,0.0,0.0,0.0,0.0,0.0,0.0,0.0,0.0,0.0,0.0,0.0,0.0,0.0,0.0,0.0,0.0,2.4469,2.7858,3.0,3.0888,3.0928,3.0469,2.9579,2.7031,2.4797,0.0,0.0,0.0,0.0,0.0,0.0,0.0,0.0,0.0,0.0,0.0,0.0,0.0,0.0,0.0,0.0,0.0,0.0,0.0,0.0,0.0,0.0,0.0,0.0,0.0,0.0,0.0,0.0,0.0,0.0,0.0,0.0,0.0,0.0,0.0,0.0,0.0,0.0,0.0,0.0,0.0,2.7662,2.7122,2.8431,2.9832,0.0,0.0,2.8397,2.802,2.9208,2.8404,2.3113,0.0,0.0,0.0,0.0,0.0,0.0,0.0,0.0,0.0,0.0,0.0,0.0,0.0,0.0,0.0,0.0,0.0,0.0,0.0,0.0,0.0,0.0,0.0,0.0,0.0,0.0,0.0,0.0,0.0,0.0,0.0,0.0,0.0,0.0,0.0,0.0,0.0,0.0,0.0,0.0,0.0,0.0,0.0,0.0,0.0,0.0,0.0,0.0,0.0,0.0,0.0,0.0,0.0,2.3596,2.441,2.7858,3.0028,3.0869,3.0928,3.0497,2.9618,2.7045,2.4898,0.0,0.0,0.0,0.0,0.0,0.0,0.0,0.0,0.0,0.0,0.0,0.0,0.0,0.0,0.0,0.0,0.0,0.0,0.0,0.0,0.0,0.0,0.0,0.0,0.0,0.0,0.0,0.0,1.8705,1.8449,1.7794,0.0,0.0,0.0,0.0,0.0,0.0,0.0,0.0,0.0,0.0,2.8474,2.8145,2.9201,0.0,0.0,2.9226,2.8495,2.7083,2.7508,2.6571,2.2271,2.1408,0.0,0.0,0.0,0.0,0.0,0.0,0.0,0.0,0.0,0.0,0.0,0.0,0.0,0.0,0.0,0.0,0.0,0.0,0.0,0.0,0.0,0.0,0.0,0.0,0.0,0.0,0.0,0.0,0.0,0.0,0.0,0.0,0.0,0.0,0.0,0.0,0.0,0.0,0.0,0.0,0.0,0.0,0.0,0.0,0.0,0.0,0.0,0.0,0.0,0.0,0.0,0.0,2.3596,2.4391,2.7839,3.0028,3.0879,3.0928,3.0497,2.9579,2.7461,2.5406,0.0,0.0,0.0,0.0,0.0,0.0,0.0,0.0,0.0,0.0,0.0,0.0,0.0,0.0,0.0,0.0,0.0,0.0,0.0,0.0,0.0,0.0,0.0,0.0,0.0,0.0,0.0,0.0,1.9588,1.9188,1.7952,0.0,0.0,0.0,0.0,0.0,0.0,0.0,0.0,0.0,0.0,2.9074,2.8406,2.9253,2.9653,2.8746,2.8142,2.7365,2.6033,2.5788,2.4703,2.1638,0.0,0.0,0.0,0.0,0.0,0.0,0.0,0.0,0.0,0.0,0.0,0.0,0.0,0.0,0.0,0.0,0.0,0.0,0.0,0.0,0.0,0.0,0.0,0.0,0.0,0.0,0.0,0.0,0.0,0.0,2.0032,0.0,0.0,0.0,0.0,0.0,0.0,0.0,0.0,0.0,0.0,0.0,0.0,0.0,0.0,0.0,0.0,0.0,0.0,0.0,0.0,0.0,0.0,2.3596,2.441,2.7812,3.0028,3.0888,3.0928,3.0469,2.957,2.8327,2.6627,2.4391,0.0,0.0,0.0,0.0,0.0,0.0,0.0,0.0,0.0,0.0,0.0,0.0,0.0,0.0,0.0,0.0,0.0,0.0,0.0,0.0,0.0,0.0,0.0,0.0,0.0,0.0,1.7723,1.7868,1.7891,0.0,0.0,0.0,0.0,0.0,0.0,0.0,0.0,0.0,0.0,2.7525,2.9676,2.7859,2.864,2.9234,2.899,2.6585,2.4828,2.5126,2.4424,2.3205,0.0,0.0,0.0,0.0,0.0,0.0,0.0,0.0,0.0,0.0,0.0,0.0,0.0,0.0,0.0,0.0,0.0,0.0,0.0,0.0,0.0,0.0,0.0,0.0,0.0,0.0,0.0,2.1589,2.1037,0.0,0.0,0.0,0.0,0.0,0.0,0.0,0.0,0.0,0.0,0.0,2.3101,2.2877,0.0,0.0,0.0,0.0,0.0,0.0,0.0,0.0,0.0,0.0,0.0,0.0,2.3532,2.4508,2.7839,3.0028,3.0859,3.0928,2.9988,2.8125,2.8087,2.666,2.363,0.0,0.0,0.0,0.0,0.0,0.0,0.0,0.0,0.0,0.0,0.0,0.0,0.0,0.0,0.0,0.0,0.0,0.0,0.0,0.0,0.0,0.0,0.0,0.0,0.0,1.9028,0.0,0.0,0.0,0.0,0.0,0.0,0.0,0.0,0.0,0.0,0.0,2.2713,2.4555,2.5781,2.6345,2.5919,2.6517,2.6816,0.0,0.0,0.0,0.0,0.0,0.0,0.0,0.0,0.0,0.0,0.0,0.0,0.0,0.0,2.4349,2.3183,2.3862,2.4612,2.4451,0.0,0.0,0.0,0.0,0.0,0.0,0.0,0.0,0.0,0.0,0.0,0.0,0.0,0.0,2.2155,0.0,2.0854,0.0,0.0,0.0,0.0,0.0,0.0,0.0,0.0,2.3412,2.4215,2.4838,2.4569,2.4336,0.0,2.3184,2.1738,0.0,0.0,0.0,0.0,0.0,0.0,0.0,0.0,2.3688,2.4508,2.7419,2.9317,2.9953,2.9501,2.833,2.652,2.6708,2.5938,2.4033,2.2477,2.1269,0.0,0.0,0.0,0.0,0.0,0.0,0.0,0.0,0.0,0.0,0.0,0.0,0.0,0.0,0.0,0.0,0.0,0.0,0.0,0.0,0.0,0.0,0.0,1.9619,0.0,0.0,0.0,0.0,0.0,0.0,0.0,0.0,0.0,2.0929,2.188,2.3104,2.4794,2.542,2.5415,2.4619,0.0,0.0,0.0,0.0,0.0,0.0,0.0,2.0579,2.0692,2.0584,2.0926,2.2149,2.2779,2.3075,2.3075,0.0,0.0,2.3131,2.3834,2.4552,2.4549,2.4867,2.5266,2.568,2.6129,2.6515,0.0,0.0,0.0,0.0,0.0,0.0,0.0,0.0,2.3244,2.3204,0.0,2.2298,0.0,0.0,0.0,0.0,0.0,2.1916,0.0,0.0,2.5622,2.623,2.5874,2.5815,2.582,2.5771,2.4905,2.4072,2.3286,2.1641,0.0,0.0,0.0,0.0,0.0,0.0,2.4001,2.4446,2.6662,2.7971,2.8271,2.6832,2.5668,2.4953,2.4337,2.4487,2.5465,2.3599,2.2514,2.244,2.0527,0.0,0.0,0.0,0.0,0.0,0.0,0.0,0.0,0.0,0.0,0.0,0.0,0.0,0.0,0.0,0.0,0.0,0.0,0.0,0.0,1.9969,0.0,0.0,0.0,0.0,0.0,0.0,0.0,0.0,0.0,0.0,2.0176,2.209,2.376,2.4211,0.0,0.0,0.0,0.0,2.5405,2.2454,2.2235,2.2328,2.1976,2.1812,2.1803,2.2104,0.0,0.0,2.3307,2.248,2.1813,2.1782,2.2987,2.3799,2.3265,2.36,2.3764,2.3253,2.3809,2.4397,2.5056,2.588,2.641,2.4492,0.0,0.0,0.0,0.0,2.4113,2.4997,2.5479,2.577,2.5186,2.3983,2.3466,0.0,0.0,0.0,0.0,0.0,0.0,2.3932,2.5694,2.71,2.8164,2.8871,2.8277,2.8296,2.8832,2.6755,2.5979,2.6367,2.5566,2.3496,2.0253,0.0,0.0,0.0,0.0,2.4054,2.4647,2.6688,2.7452,2.6695,2.6227,2.5638,2.4911,2.2706,2.2481,2.4469,2.3448,2.276,2.2495,2.1893,0.0,0.0,0.0,0.0,0.0,0.0,0.0,0.0,0.0,0.0,0.0,0.0,0.0,0.0,0.0,0.0,0.0,0.0,0.0,1.9523,2.0047,1.9887,0.0,0.0,0.0,0.0,0.0,0.0,0.0,0.0,0.0,2.1695,2.2551,2.3356,0.0,0.0,2.2942,2.2463,2.2615,2.2805,2.2955,2.2139,0.0,2.2378,2.1529,2.1061,2.1727,2.2402,2.2928,2.3021,2.279,2.2553,2.2556,2.2889,2.3166,2.3089,2.4071,2.4784,2.4698,2.5131,2.5728,2.6389,2.7038,2.7875,2.873,2.6001,2.5325,2.494,2.4843,2.6274,2.6923,2.6926,2.7157,2.6565,2.5406,2.5176,2.416,2.2578,2.1952,0.0,0.0,0.0,2.5497,2.6929,2.7833,2.848,2.8833,2.8351,2.8394,2.8785,2.7105,2.6392,2.6655,2.5701,2.3877,2.1275,0.0,0.0,2.0444,2.2871,2.4028,2.397,2.5369,2.5786,2.5039,2.4176,2.3775,2.3887,2.1722,2.1703,2.4237,2.3325,2.293,2.3235,2.2617,2.166,0.0,0.0,0.0,0.0,0.0,0.0,0.0,0.0,0.0,0.0,0.0,1.7835,0.0,0.0,0.0,0.0,1.9258,1.9512,1.9804,1.998,0.0,0.0,0.0,0.0,0.0,0.0,0.0,2.0059,2.1663,2.2722,2.2516,2.2967,2.3475,2.3918,2.3098,2.2478,2.252,0.0,2.2672,2.3154,2.2425,2.2081,2.2703,2.205,2.1566,2.2083,2.2565,2.2887,2.2878,2.2908,2.288,2.2893,2.2996,2.3099,2.3099,2.4175,2.4976,2.484,2.5375,2.6126,2.6932,2.7802,2.8894,3.2656,3.1611,2.8926,2.7656,2.7461,2.7878,2.81,2.8093,2.8034,2.7741,2.724,2.7201,2.6713,2.5849,2.4951,0.0,2.6497,2.6789,2.712,2.7588,2.7996,2.7816,2.7015,2.6904,2.692,2.6982,2.6401,2.5834,2.5223,2.3739,2.2679,2.2247,2.414,2.3148,1.9694,2.2672,2.3838,2.2761,2.3274,2.3483,2.3373,2.1319,2.0879,2.2215,2.0991,2.1563,2.4165,2.301,2.2845,2.4086,2.2828,2.2013,2.1855,0.0,0.0,0.0,0.0,0.0,0.0,0.0,0.0,0.0,0.0,0.0,0.0,0.0,0.0,0.0,2.0664,0.0,2.0742,2.0021,0.0,0.0,0.0,2.0038,2.1027,2.1265,2.1346,2.1328,0.0,0.0,2.2856,2.3324,2.388,2.4544,2.4449,2.4114,2.3589,2.3914,2.4024,2.3094,2.2978,2.3003,2.3028,2.2931,2.2822,2.2894,2.2962,2.3031,2.3031,2.3024,2.2996,2.2962,2.3201,2.3406,2.3406,2.3978,2.4376,2.4128,2.4801,2.5764,2.6792,2.7963,2.9186,3.5723,3.4922,3.4531,3.3078,3.0957,3.1084,3.1299,3.1523,3.0879,3.0176,2.9414,2.9129,2.8523,2.7617,2.6398,2.6391,2.7292,2.6549,2.6638,2.7409,2.8027,2.8246,2.7997,2.6993,2.6939,2.7605,2.6213,2.5856,2.6429,2.6086,2.4861,2.303,2.4267,2.3688,2.1366,2.2112,2.2446,2.2169,2.266,2.2532,2.1699,2.0719,2.0271,2.0429,1.9249,1.9299,2.0763,2.0974,2.1501,2.2534,2.3067,2.2912,2.1935,2.0879,0.0,0.0,0.0,0.0,0.0,0.0,0.0,0.0,0.0,1.875,1.8186,0.0,1.9413,0.0,2.1399,2.2112,2.1685,2.1646,0.0,0.0,2.0634,2.0948,2.1361,2.2076,2.254,2.2434,2.3121,2.3533,2.3294,2.3672,2.404,2.4124,2.3719,2.3448,2.3618,2.347,2.3384,2.3339,2.3087,2.3035,2.327,2.328,2.3272,2.3284,2.3543,2.3761,2.3713,2.3713,2.3645,2.3372,2.3338,2.3406,2.3406,2.3782,2.4176,2.4328,2.4785,2.5368,2.6188,2.723,2.8516,3.7637,3.6914,3.7379,3.5808,3.3129,3.3476,3.3547,3.332,3.2851,3.1788,3.0302,2.9264,2.8481,2.7985,2.7284,2.7388,2.8057,2.7388,2.7065,2.7113,2.7504,2.7219,2.6334,2.5716,2.567,2.6083,2.5089,2.4877,2.5251,2.5186,2.4343,2.2822,2.3222,2.2751,2.1438,2.1483,2.1367,2.1028,2.14,2.1413,2.1087,2.0504,2.004,1.9599,1.833,1.8073,1.8985,1.8824,1.9401,2.0913,2.1483,2.1615,2.1328,2.0488,1.9882,0.0,0.0,0.0,0.0,0.0,0.0,0.0,0.0,0.0,0.0,0.0,2.0332,2.0476,2.1795,2.2426,2.1776,2.1887,2.1772,2.1324,2.17,2.2173,2.2589,2.3212,2.3557,2.3468,2.3867,2.403,2.3728,2.3909,2.3976,2.3803,2.3334,2.3203,2.3672,2.3322,2.3078,2.3393,2.3151,2.2998,2.3359,2.3406,2.3475,2.3645,2.385,2.4,2.4,2.385,2.3645,2.3441,2.3406,2.3406,2.3441,2.385,2.4306,2.451,2.4916,2.5584,2.645,2.7409,2.8747,3.7999,3.7368,3.7693,3.6328,3.4,3.4621,3.4409,3.3639,3.3543,3.2343,3.0266,2.8626,2.7865,2.7881,2.773,2.7984,2.8514,2.8166,2.7455,2.6601,2.6624,2.5697,2.4044,2.4209,2.4168,2.3924,2.387,2.371,2.3345,2.3108,2.2786,2.2405,2.1877,2.1315,2.0801,2.0901,2.0573,1.9776,2.0037,2.045,2.0975,2.033,1.9703,1.9147,1.7769,1.7299,1.7832,1.6838,1.7237,1.9322,1.9277,1.9701,2.0721,1.9983,1.9752,0.0,1.9466,0.0,0.0,0.0,0.0,0.0,0.0,0.0,0.0,2.1526,2.1499,2.1379,2.2116,2.2308,2.1682,2.17,2.196,2.2462,2.2933,2.3393,2.3921,2.4213,2.4301,2.4243,2.4369,2.4316,2.3958,2.3956,2.3836,2.3477,2.3186,2.3236,2.369,2.3328,2.3037,2.3345,2.3201,2.3208,2.3475,2.3543,2.3713,2.3986,2.4156,2.4136,2.4204,2.385,2.3543,2.3509,2.3441,2.3406,2.3406,2.3918,2.4326,2.4476,2.5018,2.5794,2.6835,2.7883,2.9249,3.4409,3.4217,3.3958,3.3373,3.2634,3.243,3.1934,3.1224,3.0631,2.9951,2.931,2.892,2.8766,2.8647,2.7521,2.7075,2.712,2.6147,2.5635,2.5425,2.5657,2.5526,2.517,2.4997,2.4756,2.4476,2.4235,2.3968,2.3688,2.338,2.2932,2.2385,2.1877,2.1408,2.1002,0.0,0.0,0.0,1.9973,2.025,2.033,1.933,1.8531,1.7943,1.6727,0.0,1.565,1.5855,1.6531,1.7718,1.8694,0.0,0.0,0.0,0.0,0.0,0.0,0.0,0.0,0.0,0.0,0.0,2.1731,2.1754,2.1721,2.1853,2.2007,2.2232,2.2686,2.2958,2.2877,2.3306,2.3351,2.2839,2.3541,2.3936,2.3625,2.4063,2.436,2.4101,2.4074,2.3978,2.3637,2.3609,2.3425,2.312,2.32,2.3365,2.3481,2.3175,2.3031,2.3338,2.3577,2.3782,2.385,2.4088,2.4258,2.4428,2.4713,2.4849,2.4815,2.4544,2.4156,2.3918,2.3611,2.3406,2.3406,2.3543,2.3816,2.436,2.48,2.5457,2.6566,2.7584,2.8675,3.3928,0.0,3.3447,3.2581,0.0,3.1059,3.0084,2.8804,2.9879,2.974,2.8649,2.7677,2.7258,2.7237,2.6485,2.6251,2.6369,2.5626,2.5371,2.5556,2.5665,2.5651,2.5518,2.5518,2.5277,2.4863,2.4703,2.4489,2.4195,2.3901,2.3607,2.3287,2.2712,2.2352,2.2191,2.1571,2.0949,2.0258,2.0521,2.0771,2.1056,2.0405,1.9639,1.8905,1.7862,0.0,0.0,0.0,0.0,0.0,0.0,0.0,0.0,2.138,0.0,2.2423,2.2067,2.2071,2.2559,2.2482,2.2608,2.3098,2.3218,2.3131,2.275,2.305,2.3323,2.3395,2.3579,2.3674,2.3599,2.3884,2.38,2.3279,2.3733,2.3965,2.3594,2.376,2.3923,2.3809,2.3739,2.3615,2.3252,2.3351,2.3309,2.2984,2.3038,2.3201,2.3338,2.327,2.327,2.3645,2.385,2.4068,2.4224,2.436,2.4563,2.4781,2.4984,2.5086,2.51,2.4645,2.419,2.3986,2.3543,2.3167,2.3167,2.327,2.3509,2.3884,2.4258,2.4699,2.551,2.6718,2.8015,3.3312,3.296,3.296,3.1764,2.9826,2.984,2.87,2.7042,0.0,0.0,0.0,2.6216,2.5545,2.5585,2.5598,2.5745,2.6051,2.5785,2.5798,2.6065,2.6078,2.5905,2.5678,2.585,2.5663,2.517,2.5088,2.4877,2.4586,2.4342,2.4209,2.4155,2.3674,2.3345,2.33,2.2798,2.2205,2.1456,2.1216,2.1349,2.1836,2.1475,2.09,2.0094,1.925,1.8449,1.7689,1.7452,1.7787,1.8715,1.9315,2.0164,2.1271,2.1612,2.2032,2.2602,2.265,2.2971,2.3679,2.3601,2.3831,2.4541,2.4439,2.4172,2.3783,2.421,2.4399,2.417,2.4136,2.4066,2.3866,2.3874,2.3773,2.3443,2.3702,2.3768,2.3453,2.3457,2.3524,2.3436,2.3444,2.3339,2.3003,2.314,2.3201,2.2996,2.2983,2.3133,2.3509,2.3645,2.372,2.3936,2.4133,2.4306,2.4428,2.4495,2.4645,2.4781,2.4849,2.4916,2.4815,2.434,2.3952,2.385,2.3338,2.2996,2.2928,2.3099,2.3338,2.3406,2.3645,2.4,2.4442,2.5611,2.6951,2.9091,2.9021,2.9021,2.8633,2.807,2.8042,2.7756,2.7216,2.6881,2.6424,2.5886,2.5619,2.5651,2.5931,2.5931,2.6091,2.6319,2.6279,2.6293,2.6319,2.6333,2.6306,2.6239,2.5798,2.5531,2.5411,2.4906,2.4639,2.4572,2.4306,2.4209,2.4168,2.3875,2.3594,2.334,2.3212,2.3006,2.2639,2.163,2.1149,2.1216,2.0454,1.988,1.9522,1.8931,1.8384,1.7969,1.7929,1.8356,1.9324,1.9667,2.0735,2.2584,2.2751,2.3292,2.431,2.4428,2.4406,2.431,2.4575,2.4679,2.4526,2.4226,2.4024,2.3981,2.4036,2.3941,2.3654,2.3636,2.349,2.3202,2.3389,2.3449,2.3145,2.3367,2.344,2.3115,2.3328,2.3353,2.3053,2.3248,2.327,2.2984,2.2969,2.2962,2.2962,2.3099,2.3543,2.4026,2.436,2.4246,2.4142,2.454,2.4752,2.4529,2.4495,2.4408,2.4156,2.4204,2.4238,2.4238,2.385,2.3543,2.3509,2.3167,2.2928,2.2893,2.2928,2.3099,2.3304,2.3441,2.3611,2.3952,2.4563,2.5172,2.8192,2.8192,2.8192,2.8112,2.7965,2.7762,2.7629,2.7442,2.6747,2.6346,2.6226,2.6213,2.6213,2.6238,2.636,2.6413,2.64,2.64,2.64,2.64,2.64,2.64,2.6373,2.6106,2.5825,2.5504,2.5213,2.4919,2.4613,2.4466,2.4399,2.4386,2.4266,2.4088,2.3821,2.3772,2.3647,2.3375,2.2532,2.2058,2.2058,2.183,2.1563,2.1301,2.1149,2.0975,2.0668,2.0823,2.1163,2.1611,2.2092,2.2768,2.3681,2.3902,2.4222,2.4759,2.4816,2.4659,2.4349,2.421,2.4014,2.3724,2.3537,2.3438,2.3473,2.3803,2.388,2.3537,2.3497,2.335,2.3033,2.3132,2.3174,2.3026,2.3098,2.31,2.301,2.3077,2.31,2.2944,2.3052,2.3065,2.2928,2.2893,2.2893,2.2928,2.3167,2.3488,2.3655,2.3989,2.4249,2.4256,2.4409,2.4428,2.4258,2.4238,2.417,2.4034,2.4,2.4,2.3966,2.3679,2.3441,2.3372,2.3133,2.2928,2.2893,2.2893,2.2962,2.303,2.3133,2.3236,2.3372,2.3509,2.3986,2.8245,2.8192,2.8192,2.8192,2.8165,2.7938,2.7802,2.7749,2.7241,2.6974,2.7001,2.6894,2.6734,2.6707,2.6867,2.6827,2.668,2.6547,2.6493,2.648,2.6413,2.64,2.6386,2.6333,2.6051,2.5545,2.5451,2.5106,2.4653,2.4599,2.4599,2.4599,2.4599,2.4452,2.4209,2.4209,2.4062,2.379,2.3348,2.3094,2.3108,2.3313,2.3313,2.3148,2.3273,2.3313,2.3121,2.3417,2.3596,2.361,2.4127,2.4433,2.4447,2.464,2.4765,2.4765,2.4765,2.4624,2.4309,2.3727,2.333,2.3128,2.3106,2.304,2.304,2.3469,2.3661,2.3416,2.335,2.3243,2.3013,2.2998,2.2974,2.2987,2.2934,2.2916,2.291,2.2896,2.2893,2.2893,2.2893,2.2893,2.2893,2.2893,2.2928,2.303,2.3236,2.3297,2.3234,2.3609,2.3938,2.4122,2.4088,2.3986,2.3884,2.3864,2.3816,2.3782,2.3713,2.3679,2.3659,2.3441,2.3304,2.3236,2.3099,2.2928,2.2893,2.2893,2.2893,2.2928,2.2928,2.2928,2.2928,2.2962,2.3201,2.839,2.8205,2.8192,2.8192,2.8179,2.8152,2.8125,2.8085,2.7749,2.7615,2.7562,2.7027,2.7108,2.7509,2.7362,2.7335,2.7468,2.7014,2.6774,2.6694,2.6507,2.64,2.6373,2.6172,2.5864,2.5518,2.5277,2.5024,2.4666,2.4613,2.4599,2.4599,2.4599,2.4466,2.4235,2.4209,2.4062,2.3817,2.375,2.3723,2.3723,2.375,2.375,2.3701,2.375,2.375,2.3723,2.3977,2.4111,2.4174,2.4415,2.4576,2.4576,2.4603,2.4616,2.4616,2.4639,2.4511,2.4293,2.3714,2.3379,2.3372,2.3317,2.3195,2.2957,2.297,2.3044,2.304,2.2996,2.2967,2.2928,2.2896,2.2916,2.2903,2.2902,2.2887,2.2874,2.288,2.2893,2.2893,2.2893,2.2893,2.2893,2.2893,2.2996,2.3236,2.327,2.3427,2.3576,2.3522,2.3475,2.3577,2.3747,2.3782,2.3543,2.3475,2.3372,2.3133,2.303,2.3065,2.3099,2.3078,2.2962,2.303,2.2962,2.2893,2.2893,2.2893,2.2893,2.2893,2.2893,2.2893,2.2893,2.2893,2.3065,2.8537,2.8404,2.8259,2.8192,2.8192,2.8192,2.8192,2.8152,2.7871,2.7789,2.7938,2.7522,2.7388,2.7442,2.7536,2.7495,2.7415,2.7001,2.6787,2.68,2.652,2.64,2.6373,2.6319,2.6052,2.5837,2.569,2.5451,2.5133,2.4983,2.489,2.4877,2.4693,2.4532,2.4426,2.4426,2.4396,2.4289,2.4289,2.4289,2.4262,2.4115,2.4035,2.4048,2.4195,2.4289,2.4289,2.4359,2.4426,2.4426,2.4546,2.4599,2.4599,2.4599,2.4599,2.4586,2.4302,2.4093,2.3995,2.345,2.3099,2.3099,2.3099,2.303,2.2893,2.2893,2.2909,2.2917,2.291,2.2876,2.2889,2.2895,2.2893,2.2893,2.2893,2.2893,2.2893,2.2893,2.2893,2.2893,2.2893,2.2893,2.2893,2.2893,2.2962,2.3065,2.3099,2.3201,2.3304,2.3201,2.3133,2.3133,2.3236,2.327,2.3133,2.3099,2.303,2.2928,2.2893,2.2893,2.2893,2.2893,2.2893,2.2893,2.2893,2.2893,2.2893,2.2893,2.2893,2.2893,2.2893,2.2893,2.2893,2.2893,2.2893,2.8738,2.8577,2.8312,2.8192,2.8192,2.8192,2.8192,2.8165,2.7951,2.7978,2.8152,2.7909,2.775,2.759,2.7736,2.771,2.7416,2.7161,2.6961,2.6814,2.66,2.6466,2.64,2.6386,2.6279,2.6024,2.5891,2.5625,2.5304,2.517,2.505,2.4943,2.4706,2.4599,2.4599,2.4599,2.4599,2.4586,2.4599,2.4599,2.4559,2.4399,2.4329,2.4342,2.4492,2.4599,2.4599,2.4599,2.4599,2.4599,2.4599,2.4599,2.4599,2.4599,2.4572,2.4452,2.4048,2.3763,2.3661,2.3188,2.2893,2.2893,2.2893,2.2893,2.2893,2.2893,2.2893,2.288,2.2893,2.2893,2.2893,2.2893,2.2893,2.2893,2.2893,2.2893,2.2893,2.2893,2.2893,2.2893,2.2893,2.2893,2.2893,2.2893,2.2893,2.2893,2.2893,2.2893,2.2893,2.2893,2.2893,2.2893,2.2893,2.2893,2.2893,2.2928,2.2893,2.2893,2.2893,2.2893,2.2893,2.2893,2.2893,2.2893,2.2893,2.2893,2.2893,2.2893,2.2893,2.2893,2.2893,2.2893,2.2893,2.2893,2.2893,2.9125,2.8591,2.8312,2.8192,2.8192,2.8192,2.8192,2.8192,2.8165,2.8165,2.8192,2.8152,2.8152,2.8112,2.8125,2.7991,2.7709,2.7629,2.7321,2.684,2.676,2.6653,2.64,2.6386,2.6279,2.6024,2.5732,2.5306,2.4799,2.4983,2.493,2.4666,2.4666,2.4626,2.4626,2.4626,2.4599,2.4599,2.4599,2.4599,2.4599,2.4586,2.4559,2.4559,2.4599,2.4599,2.4599,2.4599,2.4599,2.4599,2.4599,2.4599,2.4599,2.4599,2.4492,2.4262,2.3941,2.3647,2.3359,2.306,2.2893,2.2893,2.2893,2.2893,2.2893,2.2893,2.2893,2.2893,2.2893,2.2893,2.2893,2.2893,2.2893,2.2893,2.2893,2.2893,2.2893,2.2893,2.2893,2.2893,2.2893,2.2893,2.2893,2.2893,2.2893,2.2893,2.2893,2.2893,2.2893,2.2893,2.2893,2.2893,2.2893,2.2893,2.2893,2.2893,2.2893,2.2893,2.2893,2.2893,2.2893,2.2893,2.2893,2.2893,2.2893,2.2893,2.2893,2.2893,2.2893,2.2893,2.2893,2.2893,2.2893,2.2893,2.2893,2.9138,2.8577,2.8312,2.8192,2.8192,2.8192,2.8192,2.8192,2.8192,2.8192,2.8192,2.8192,2.8192,2.8192,2.8192,2.8125,2.8018,2.7789,2.7482,2.7108,2.6921,2.6627,2.64,2.6252,2.6212,2.6225,2.5984,2.5798,2.5758,2.5692,2.5623,2.5464,2.5291,2.5117,2.4957,2.4917,2.4836,2.4613,2.4599,2.4599,2.4613,2.4599,2.4599,2.4599,2.4599,2.4599,2.4599,2.4599,2.4599,2.4599,2.4599,2.4599,2.4599,2.4599,2.4559,2.4449,2.4035,2.3763,2.3567,2.3174,2.2893,2.2893,2.2893,2.2893,2.2893,2.2893,2.2893,2.2893,2.2893,2.2893,2.2893,2.2893,2.2893,2.2893,2.2893,2.2893,2.2893,2.2893,2.2893,2.2893,2.2893,2.2893,2.2893,2.2893,2.2893,2.2893,2.2893,2.2893,2.2893,2.2893,2.2893,2.2893,2.2893,2.2893,2.2893,2.2893,2.2893,2.2893,2.2893,2.2893,2.2893,2.2893,2.2893,2.2893,2.2893,2.2893,2.2893,2.2893,2.2893,2.2893,2.2893,2.2893,2.2893,2.2893,2.2893,2.8991,2.847,2.8272,2.8192,2.8192,2.8192,2.8192,2.8192,2.8192,2.8192,2.8192,2.8192,2.8192,2.8192,2.8192,2.8192,2.8152,2.7829,2.7495,2.7162,2.6907,2.6627,2.64,2.6186,2.6238,2.6333,2.6199,2.6158,2.6092,2.5999,2.5944,2.5785,2.5598,2.5424,2.5251,2.5211,2.5104,2.4906,2.4786,2.4786,2.4853,2.4786,2.4783,2.4746,2.4746,2.4693,2.4613,2.4599,2.4599,2.4599,2.4599,2.4599,2.4599,2.4599,2.4559,2.4426,2.4035,2.375,2.3594,2.3174,2.2893,2.2893,2.2893,2.2893,2.2893,2.2893,2.2893,2.2893,2.2893,2.2893,2.2893,2.2893,2.2893,2.2893,2.2893,2.2893,2.2893,2.2893,2.2893,2.2893,2.2893,2.2893,2.2893,2.2893,2.2893,2.2893,2.2893,2.2893,2.2893,2.2893,2.2893,2.2893,2.2893,2.2893,2.2893,2.2893,2.2893,2.2893,2.2893,2.2893,2.2893,2.2893,2.2893,2.2893,2.2893,2.2893,2.2893,2.2893,2.2893,2.2893,2.2893,2.2893,2.2893,2.2893,2.2893,2.8698,2.8259,2.8192,2.8192,2.8192,2.8192,2.8192,2.8192,2.8192,2.8192,2.8192,2.8192,2.8192,2.8192,2.8192,2.8192,2.8125,2.7884,2.7415,2.6934,2.68,2.6667,2.6386,2.6333,2.6306,2.6346,2.6412,2.6092,2.5705,2.5892,2.5917,2.5625,2.5625,2.5598,2.5518,2.5518,2.5504,2.5398,2.5197,2.5211,2.5438,2.5224,2.5128,2.509,2.509,2.497,2.4653,2.4613,2.4613,2.4626,2.4599,2.4599,2.4599,2.4599,2.4516,2.4275,2.3955,2.3647,2.3345,2.3073,2.2893,2.2893,2.2893,2.2893,2.2893,2.2893,2.2893,2.2893,2.2893,2.2893,2.2893,2.2893,2.2893,2.2893,2.2893,2.2893,2.2893,2.2893,2.2893,2.2893,2.2893,2.2893,2.2893,2.2893,2.2893,2.2893,2.2893,2.2893,2.2893,2.2893,2.2893,2.2893,2.2893,2.2893,2.2893,2.2893,2.2893,2.2893,2.2893,2.2893,2.2893,2.2893,2.2893,2.2893,2.2893,2.2893,2.2893,2.2893,2.2893,2.2893,2.2893,2.2893,2.2893,2.2893,2.2893,2.8631,2.8444,2.8272,2.8192,2.8192,2.8192,2.8192,2.8192,2.8192,2.8192,2.8192,2.8192,2.8192,2.8192,2.8192,2.8192,2.8165,2.7871,2.7495,2.7148,2.6921,2.668,2.6413,2.6238,2.6131,2.6172,2.6306,2.6306,2.6159,2.6213,2.6225,2.6132,2.6106,2.5999,2.5825,2.585,2.5732,2.5518,2.5424,2.5438,2.5504,2.5424,2.5384,2.5384,2.5384,2.5331,2.5186,2.4826,2.4706,2.4917,2.4706,2.4599,2.4599,2.4599,2.4559,2.4476,2.4035,2.379,2.3594,2.3201,2.2893,2.2893,2.2893,2.2893,2.2893,2.2893,2.2893,2.2893,2.2893,2.2893,2.2893,2.2893,2.2893,2.2893,2.2893,2.2893,2.2893,2.2893,2.2893,2.2893,2.2893,2.2893,2.2893,2.2893,2.2893,2.2893,2.2893,2.2893,2.2893,2.2893,2.2893,2.2893,2.2893,2.2893,2.2893,2.2893,2.2893,2.2893,2.2893,2.2893,2.2893,2.2893,2.2893,2.2893,2.2893,2.2893,2.2893,2.2893,2.2893,2.2893,2.2893,2.2893,2.2893,2.2893,2.2893,2.5982,2.5915,2.6621,2.6885,2.7054,2.7757,2.8192,2.8192,2.8192,2.8192,2.8192,2.8192,2.8192,2.8192,2.8192,2.8192,2.8152,2.7829,2.7602,2.7443,2.7121,2.6881,2.6707,2.6573,2.6412,2.6386,2.6573,2.6653,2.6547,2.6547,2.6547,2.6547,2.6453,2.6306,2.6172,2.6158,2.6051,2.5852,2.5732,2.5732,2.5798,2.5732,2.5678,2.5678,2.5678,2.5678,2.5638,2.5211,2.4997,2.5024,2.4759,2.4599,2.4599,2.4599,2.4599,2.4492,2.4128,2.3803,2.375,2.3228,2.2893,2.2893,2.2893,2.2893,2.2893,2.2893,2.2893,2.2893,2.2893,2.2893,2.2893,2.2893,2.2893,2.2893,2.2893,2.2893,2.2893,2.2893,2.2893,2.2893,2.2893,2.2893,2.2893,2.2893,2.2893,2.2893,2.2893,2.2893,2.2893,2.2893,2.2893,2.2893,2.2893,2.2893,2.2893,2.2893,2.2893,2.2893,2.2893,2.2893,2.2893,2.2893,2.2893,2.2893,2.2893,2.2893,2.2893,2.2893,2.2893,2.2893,2.2893,2.2893,2.2893,2.2893,2.2893,2.1544,2.149,2.3781,2.4861,2.5203,2.7236,2.8192,2.8192,2.8192,2.8192,2.8192,2.8192,2.8192,2.8192,2.8192,2.8192,2.8138,2.7938,2.7762,2.7669,2.7468,2.7336,2.7202,2.7162,2.7028,2.6881,2.7081,2.7081,2.6854,2.6854,2.6707,2.6319,2.6348,2.607,2.5595,2.5977,2.5806,2.5306,2.5348,2.5308,2.5503,2.5466,2.553,2.5544,2.5583,2.5699,2.5932,2.5625,2.5344,2.5155,2.485,2.4666,2.4639,2.4613,2.4599,2.4586,2.4102,2.3875,2.3723,2.3322,2.2974,2.2974,2.292,2.2893,2.2893,2.2893,2.2893,2.2893,2.2893,2.2893,2.2893,2.2893,2.2893,2.2893,2.2893,2.2893,2.2893,2.2893,2.2893,2.2893,2.2893,2.2893,2.2893,2.2893,2.2893,2.2893,2.2893,2.2893,2.2893,2.2893,2.2893,2.2893,2.2893,2.2893,2.2893,2.2893,2.2893,2.2893,2.2893,2.2893,2.2893,2.2893,2.2893,2.2893,2.2893,2.2893,2.2893,2.2893,2.2893,2.2893,2.2893,2.2893,2.2893,2.2893,2.2893,2.1272,2.148,2.3738,2.4691,2.5032,2.7181,2.8192,2.8192,2.8192,2.8192,2.8179,2.8192,2.8094,2.8179,2.8179,2.8192,2.8152,2.8014,2.8072,2.8058,2.8005,2.7684,2.7376,2.7309,2.7241,2.7093,2.705,2.7269,2.7188,2.6863,2.6094,2.4568,2.5689,2.4801,2.2384,2.3421,2.3143,2.186,2.1694,2.1761,2.1804,2.1749,2.2316,2.3763,2.3922,2.4767,2.6016,2.5785,2.5491,2.5398,2.5117,2.497,2.4917,2.4706,2.4599,2.4532,2.4315,2.4088,2.3968,2.3541,2.3233,2.318,2.3027,2.2893,2.2893,2.2893,2.2893,2.2893,2.2893,2.2893,2.2893,2.2893,2.2893,2.2893,2.2893,2.2893,2.2893,2.2893,2.2893,2.2893,2.2893,2.2893,2.2893,2.2893,2.2893,2.2893,2.2893,2.2893,2.2893,2.2893,2.2893,2.2893,2.2893,2.2893,2.2893,2.2893,2.2893,2.2893,2.2893,2.2893,2.2893,2.2893,2.2893,2.2893,2.2893,2.2893,2.2893,2.2893,2.2893,2.2893,2.2893,2.2893,2.2893,2.2893,2.2893,1.8287,1.8593,2.1825,2.3212,2.3684,2.68,2.8192,2.8192,2.8192,2.8192,2.801,2.7096,2.7279,2.8065,2.7194,2.7363,2.801,2.7152,2.6702,2.6491,2.5574,2.5488,2.6117,2.6994,2.7107,2.6039,2.614,2.6073,2.5736,2.5078,2.3767,2.2823,2.3522,2.2576,2.0631,2.1229,2.1508,2.0375,2.0097,2.0067,2.0008,1.9947,2.0473,2.1845,2.2528,2.4151,2.6004,2.6052,2.5745,2.5371,2.505,2.489,2.489,2.4706,2.4599,2.4586,2.4369,2.4195,2.4128,2.3768,2.3474,2.334,2.314,2.3006,2.2934,2.2893,2.2893,2.2893,2.2893,2.2893,2.2893,2.2893,2.2893,2.2893,2.2893,2.2893,2.2893,2.2893,2.2893,2.2893,2.2893,2.2893,2.2893,2.2893,2.2893,2.2893,2.2893,2.2893,2.2893,2.2893,2.2893,2.2893,2.2893,2.2893,2.2893,2.2893,2.2893,2.2893,2.2893,2.2893,2.2893,2.2893,2.2893,2.2893,2.2893,2.2893,2.2893,2.2893,2.2893,2.2893,2.2893,2.2893,2.2893,2.2893,2.2893,1.4299,1.4697,1.9019,2.0875,2.1523,2.5501,2.6969,2.7321,2.7012,2.7054,2.6673,2.5117,2.5288,2.7321,2.5075,2.5416,2.7096,2.5117,2.4508,2.3824,2.2869,2.2471,2.3616,2.5561,2.5433,2.4174,2.419,2.4121,2.3656,2.1991,2.0898,2.0679,2.0529,2.0039,1.9216,1.9642,1.9871,1.9155,1.8787,1.8681,1.8648,1.8609,1.8853,1.9733,2.1534,2.346,2.5158,2.5741,2.5608,2.5262,2.4917,2.4839,2.4786,2.4706,2.4626,2.4572,2.4422,2.4289,2.4222,2.3995,2.3728,2.3492,2.3359,2.322,2.3041,2.2947,2.2893,2.2893,2.2893,2.2893,2.2893,2.2893,2.2893,2.2893,2.2893,2.2893,2.2893,2.2893,2.2893,2.2893,2.2893,2.2893,2.2893,2.2893,2.2893,2.2893,2.2893,2.2893,2.2893,2.2893,2.2893,2.2893,2.2893,2.2893,2.2893,2.2893,2.2893,2.2893,2.2893,2.2893,2.2893,2.2893,2.2893,2.2893,2.2893,2.2893,2.2893,2.2893,2.2893,2.2893,2.2893,2.2893,2.2893,2.2893,2.2893,1.4299,1.452,1.7334,1.854,1.8976,2.148,2.2772,2.2858,2.2815,2.3115,2.2643,2.217,2.2342,2.2858,2.2342,2.2299,2.2987,2.2299,2.1954,2.1868,2.1566,2.0226,2.0183,2.1696,2.231,2.1838,2.1923,2.1923,2.1581,2.0938,2.0029,1.8524,1.9249,1.884,1.6038,1.7238,1.6922,1.5612,1.5436,1.5662,1.5605,1.5586,1.624,1.7655,1.9581,2.1655,2.3293,2.3626,2.4242,2.536,2.5717,2.5504,2.5277,2.509,2.489,2.4666,2.4572,2.4506,2.4452,2.4275,2.4088,2.3955,2.3607,2.33,2.3233,2.3027,2.292,2.2893,2.2893,2.2893,2.2893,2.2893,2.2893,2.2893,2.2893,2.2893,2.2893,2.2893,2.2893,2.2893,2.2893,2.2893,2.2893,2.2893,2.2893,2.2893,2.2893,2.2893,2.2893,2.2893,2.2893,2.2893,2.2893,2.2893,2.2893,2.2893,2.2893,2.2893,2.2893,2.2893,2.2893,2.2893,2.2893,2.2893,2.2893,2.2893,2.2893,2.2893,2.2893,2.2893,2.2893,2.2893,2.2893,2.2893,2.2893,1.4299,1.4557,1.6809,1.7807,1.8148,2.0183,2.1221,2.1221,2.1221,2.1221,2.0919,2.0183,2.0183,2.1048,2.0183,2.0096,2.0746,1.9966,1.8976,1.82,1.7859,1.7247,1.6641,1.7378,1.8375,1.9315,1.9619,1.9619,1.9401,1.854,1.711,1.6174,1.7324,1.6475,1.4453,1.5337,1.5249,1.4503,1.4055,1.4027,1.396,1.3871,1.4776,1.6526,1.8024,1.9735,2.2797,2.3023,2.4125,2.5557,2.6146,2.5959,2.5546,2.5371,2.5144,2.4903,2.485,2.4719,2.4586,2.4466,2.4342,2.4209,2.3888,2.3585,2.3407,2.3153,2.3006,2.2934,2.2893,2.2893,2.2893,2.2893,2.2893,2.2893,2.2907,2.2907,2.2907,2.2893,2.2893,2.2893,2.2893,2.2893,2.2893,2.2893,2.2893,2.2893,2.2893,2.2893,2.2893,2.2893,2.2893,2.2893,2.2893,2.2893,2.2893,2.2893,2.2893,2.2893,2.2893,2.2893,2.2893,2.2893,2.2893,2.2893,2.2893,2.2893,2.2893,2.2893,2.2893,2.2893,2.2893,2.2893,2.2893,2.2893,2.2893,1.4299,1.4431,1.6422,1.7282,1.7588,1.9193,1.9836,1.9966,2.0139,1.9585,1.9792,1.8017,1.8148,1.9237,1.8069,1.854,1.9019,1.8235,1.6422,1.5256,1.5124,1.4948,1.4734,1.5036,1.5734,1.7151,1.7247,1.7247,1.6729,1.5469,1.5073,1.4462,1.4425,1.4655,1.4411,1.4292,1.4441,1.4282,1.417,1.4129,1.4102,1.3994,1.4843,1.5753,1.6154,1.7874,2.0625,2.1691,2.2997,2.5621,2.5898,2.5636,2.536,2.5495,2.5451,2.5208,2.509,2.4943,2.4733,2.4613,2.4479,2.4239,2.4195,2.3945,2.3607,2.3434,2.33,2.3188,2.3121,2.3121,2.3041,2.3121,2.3094,2.3081,2.3054,2.3027,2.3027,2.3027,2.3067,2.2893,2.2893,2.2893,2.2893,2.2893,2.2893,2.2907,2.292,2.292,2.2934,2.292,2.2934,2.2907,2.2893,2.2893,2.2893,2.2934,2.2934,2.296,2.2947,2.2947,2.2934,2.2893,2.2893,2.2893,2.2893,2.2893,2.2893,2.2893,2.2893,2.2893,2.2893,2.2893,2.2893,2.2893,2.2893,1.4299,1.4343,1.4734,1.4903,1.4948,1.5389,1.5734,1.5433,1.5822,1.5469,1.5557,1.5124,1.53,1.5513,1.53,1.5256,1.5858,1.5425,1.4903,1.4343,1.4299,1.4299,1.4299,1.4343,1.4646,1.469,1.5036,1.5212,1.508,1.4476,1.4299,1.4299,1.4299,1.4299,1.4299,1.4299,1.4299,1.4299,1.4251,1.4238,1.4224,1.4214,1.4222,1.4685,1.4474,1.5719,1.727,1.8078,1.9491,2.31,2.358,2.3572,2.3718,2.4749,2.5191,2.4968,2.4872,2.4703,2.4582,2.4695,2.4613,2.4479,2.4296,2.4186,2.3972,2.3821,2.3612,2.3629,2.3589,2.3616,2.3656,2.3562,2.3629,2.3629,2.3589,2.3589,2.3589,2.3549,2.3388,2.3108,2.3,2.2974,2.3054,2.3094,2.3108,2.3134,2.3134,2.3108,2.3108,2.3054,2.3,2.296,2.2893,2.2893,2.2893,2.2947,2.2987,2.3054,2.3067,2.3067,2.3027,2.2934,2.2907,2.3067,2.3,2.2893,2.2893,2.2907,2.2893,2.2893,2.2893,2.2907,2.2893,2.2893,2.2893,1.4299,1.4299,1.4299,1.4299,1.4299,1.4299,1.4299,1.4299,1.4299,1.4299,1.4299,1.4299,1.4299,1.4299,1.4299,1.4299,1.4299,1.4299,1.4299,1.4299,1.4299,1.4299,1.4299,1.4299,1.4299,1.4343,1.4343,1.4299,1.4299,1.4343,1.4299,1.4299,1.4299,1.4299,1.4299,1.4299,1.4299,1.4299,1.4299,1.4299,1.4285,1.4238,1.4082,1.3933,1.3815,1.4688,1.6245,1.664,1.8159,2.0756,2.1442,2.1442,2.1731,2.2134,2.2756,2.2588,2.3261,2.3679,2.3795,2.4081,2.4698,2.4304,2.4122,2.4027,2.3895,2.3773,2.3726,2.3785,2.3817,2.3817,2.379,2.3794,2.3817,2.3817,2.3794,2.3794,2.3781,2.3794,2.3607,2.3345,2.3372,2.3385,2.3429,2.3429,2.3388,2.3362,2.3313,2.3287,2.3273,2.3281,2.3241,2.3268,2.3255,2.3241,2.3228,2.3228,2.3215,2.3241,2.3255,2.3255,2.3295,2.3268,2.3335,2.3455,2.3295,2.3027,2.292,2.292,2.2907,2.292,2.2947,2.2974,2.292,2.2893,2.296,1.4299,1.4299,1.4299,1.4299,1.4299,1.4299,1.4299,1.4299,1.4299,1.4299,1.4299,1.4299,1.4299,1.4299,1.4299,1.4299,1.4299,1.4299,1.4299,1.4299,1.4299,1.4299,1.4299,1.4299,1.4299,1.4299,1.4299,1.4299,1.4299,1.4299,1.4299,1.4299,1.4299,1.4299,1.4299,1.4299,1.4299,1.4299,1.4299,1.4299,1.4265,1.4156,1.4119,1.4091,1.3783,1.4448,1.5743,1.5758,1.6869,1.8526,1.9217,1.9217,1.9258,1.9258,1.8927,1.8822,2.0639,2.1469,2.1866,2.2445,2.3004,2.2732,2.3129,2.3188,2.3467,2.3413,2.3591,2.3707,2.3716,2.3707,2.3674,2.373,2.373,2.373,2.3779,2.3824,2.3756,2.3747,2.3737,2.3667,2.3762,2.3656,2.3501,2.3408,2.3271,2.3165,2.3152,2.3307,2.3329,2.3594,2.3629,2.3683,2.3696,2.3696,2.3669,2.3629,2.3603,2.3576,2.3589,2.3589,2.3656,2.371,2.375,2.371,2.3522,2.3268,2.3121,2.3081,2.3215,2.3268,2.3134,2.3134,2.3241,2.3268,2.3281,1.4299,1.4299,1.4299,1.4299,1.4299,1.4299,1.4299,1.4299,1.4299,1.4299,1.4299,1.4299,1.4299,1.4299,1.4299,1.4299,1.4299,1.4299,1.4299,1.4299,1.4299,1.4299,1.4299,1.4299,1.4299,1.4299,1.4299,1.4299,1.4299,1.4299,1.4299,1.4299,1.4299,1.4299,1.4299,1.4299,1.4299,1.4299,1.4299,1.4299,1.4278,1.4163,1.4146,1.4057,1.386,1.3816,1.4336,1.436,1.511,1.6647,1.6975,1.6975,1.6975,1.6975,1.5835,1.5853,1.7311,1.9768,1.9532,2.0092,2.0533,2.0762,2.0872,2.1377,2.2187,2.3041,2.3398,2.3449,2.3459,2.3494,2.3492,2.3483,2.3435,2.3544,2.37,2.3665,2.3568,2.3632,2.3658,2.3624,2.3559,2.3437,2.3268,2.3226,2.3148,2.3054,2.3031,2.3236,2.3432,2.3677,2.3955,2.3995,2.4008,2.4008,2.4022,2.3995,2.3955,2.3937,2.3937,2.3937,2.3955,2.3995,2.391,2.3843,2.3661,2.3647,2.3647,2.3683,2.3696,2.3603,2.3469,2.3562,2.371,2.3683,2.3576,1.4299,1.4299,1.4299,1.4299,1.4299,1.4299,1.4299,1.4299,1.4299,1.4299,1.4299,1.4299,1.4299,1.4299,1.4299,1.4299,1.4299,1.4299,1.4299,1.4299,1.4299,1.4299,1.4299,1.4299,1.4299,1.4299,1.4299,1.4299,1.4299,1.4299,1.4299,1.4299,1.4299,1.4299,1.4299,1.4299,1.4299,1.4299,1.4299,1.4299,1.4285,1.4238,1.4241,1.4227,1.3856,1.3727,1.3646,1.3512,1.3735,1.4739,1.4781,1.4788,1.4781,1.4739,1.4252,1.388,1.4885,1.6412,1.7376,1.8318,1.8863,1.9293,1.9688,2.0368,2.1409,2.2384,2.303,2.3067,2.329,2.3327,2.3327,2.3401,2.3401,2.3438,2.3438,2.3438,2.3364,2.3513,2.3536,2.3463,2.3351,2.316,2.3081,2.3104,2.3115,2.3092,2.3117,2.3289,2.3486,2.3721,2.4014,2.4329,2.4342,2.4329,2.4356,2.4356,2.4342,2.4315,2.4315,2.4315,2.4315,2.4289,2.4168,2.4195,2.4235,2.4222,2.4209,2.4022,2.387,2.383,2.3803,2.3884,2.3937,2.383,2.375,1.4299,1.4299,1.4299,1.4299,1.4299,1.4299,1.4299,1.4299,1.4299,1.4299,1.4299,1.4299,1.4299,1.4299,1.4299,1.4299,1.4299,1.4299,1.4299,1.4299,1.4299,1.4299,1.4299,1.4299,1.4299,1.4299,1.4299,1.4299,1.4299,1.4299,1.4299,1.4299,1.4299,1.4299,1.4299,1.4299,1.4299,1.4299,1.4299,1.4299,1.4299,1.4299,1.4258,1.4163,1.4007,1.3781,1.3714,1.3546,1.3445,1.3521,1.3604,1.3728,1.3687,1.3728,1.3645,1.3424,1.3947,1.4348,1.5481,1.6484,1.7633,1.8191,1.8951,1.9535,2.0531,2.1632,2.2284,2.2247,2.2483,2.2694,2.2806,2.2732,2.2632,2.2657,2.2881,2.2955,2.3067,2.3104,2.3079,2.2968,2.2893,2.2893,2.2831,2.2942,2.3029,2.3079,2.3191,2.334,2.355,2.3759,2.4053,2.4356,2.4429,2.4429,2.4492,2.4546,2.4586,2.4599,2.4599,2.4572,2.4492,2.4492,2.4452,2.4532,2.4599,2.4532,2.4386,2.4182,2.3995,2.4088,2.4155,2.4088,2.4048,2.3968,2.3915,1.4299,1.4299,1.4299,1.4299,1.4299,1.4299,1.4299,1.4299,1.4299,1.4299,1.4299,1.4299,1.4299,1.4299,1.4299,1.4299,1.4299,1.4299,1.4299,1.4299,1.4299,1.4299,1.4299,1.4299,1.4299,1.4299,1.4299,1.4299,1.4299,1.4299,1.4299,1.4299,1.4299,1.4299,1.4299,1.4299,1.4299,1.4299,1.4299,1.4299,1.4299,1.4285,1.4245,1.4102,1.3896,1.3741,1.3612,1.3498,1.3424,1.3424,1.341,1.3397,1.3397,1.3397,1.3397,1.3383,1.3315,1.3624,1.4218,1.4334,1.4378,1.5464,1.7066,1.8746,1.9552,2.0179,2.0733,2.1233,2.1508,2.151,2.1435,2.1285,2.1623,2.181,2.2072,2.2147,2.2296,2.2558,2.252,2.2408,2.2371,2.2408,2.2483,2.2595,2.2669,2.2744,2.2856,2.2968,2.3451,2.3698,2.3994,2.4264,2.4388,2.4462,2.4499,2.4488,2.4414,2.4488,2.4525,2.4562,2.4572,2.4599,2.4599,2.4599,2.4599,2.4599,2.4586,2.4399,2.4356,2.4466,2.4492,2.4382,2.4342,2.4329,2.4262,1.4299,1.4299,1.4299,1.4299,1.4299,1.4299,1.4299,1.4299,1.4299,1.4299,1.4299,1.4299,1.4299,1.4299,1.4299,1.4299,1.4299,1.4299,1.4299,1.4299,1.4299,1.4299,1.4299,1.4299,1.4299,1.4299,1.4299,1.4299,1.4299,1.4299,1.4299,1.4299,1.4299,1.4299,1.4299,1.4299,1.4299,1.4299,1.4299,1.4299,1.4299,1.4299,1.4272,1.4211,1.3946,1.3849,1.3844,1.3559,1.3505,1.3492,1.3451,1.3424,1.3397,1.3397,1.3397,1.3397,1.3329,1.3342,1.3356,1.335,1.3755,1.5046,1.6752,1.8129,1.8671,1.9342,2.0004,2.0418,2.0611,2.0642,2.106,2.1109,2.1222,2.121,2.1248,2.1398,2.1585,2.1885,2.196,2.1847,2.1885,2.196,2.2072,2.2184,2.2259,2.2383,2.2483,2.2707,2.3154,2.3488,2.3748,2.3933,2.4044,2.4044,2.4031,2.4119,2.423,2.4341,2.4451,2.4525,2.4562,2.4599,2.4599,2.4599,2.4599,2.4599,2.4599,2.4599,2.4599,2.4586,2.4586,2.4559,2.4572,2.4599,2.4506,1.4299,1.4299,1.4299,1.4299,1.4299,1.4299,1.4299,1.4299,1.4299,1.4299,1.4299,1.4299,1.4299,1.4299,1.4299,1.4299,1.4299,1.4299,1.4299,1.4299,1.4299,1.4299,1.4299,1.4299,1.4299,1.4299,1.4299,1.4299,1.4299,1.4299,1.4299,1.4299,1.4299,1.4299,1.4299,1.4299,1.4299,1.4299,1.4299,1.4299,1.4299,1.4299,1.4251,1.4211,1.4007,1.3926,1.3899,1.3702,1.3593,1.3573,1.3532,1.3458,1.3424,1.3397,1.3397,1.3397,1.3397,1.3397,1.337,1.3569,1.3936,1.4983,1.6087,1.7177,1.7936,1.8651,1.9174,1.9706,1.9923,2.0108,2.054,2.0383,2.0458,2.0496,2.0834,2.0985,2.106,2.1248,2.1285,2.1259,2.1372,2.151,2.1585,2.1698,2.1997,2.2147,2.2371,2.2595,2.293,2.3154,2.3265,2.3438,2.355,2.3513,2.3438,2.3661,2.3896,2.4156,2.4267,2.4451,2.4525,2.4562,2.4599,2.4599,2.4599,2.4599,2.4599,2.4599,2.4599,2.4599,2.4599,2.4599,2.4599,2.4599,2.4599,1.4299,1.4299,1.4299,1.4299,1.4299,1.4299,1.4299,1.4299,1.4299,1.4299,1.4299,1.4299,1.4299,1.4299,1.4299,1.4299,1.4299,1.4299,1.4299,1.4299,1.4299,1.4299,1.4299,1.4299,1.4299,1.4299,1.4299,1.4299,1.4299,1.4299,1.4299,1.4299,1.4299,1.4299,1.4299,1.4299,1.4299,1.4299,1.4299,1.4299,1.4299,1.4299,1.4238,1.4163,1.4075,1.4,1.3953,1.3838,1.3687,1.3619,1.3578,1.3526,1.3417,1.3403,1.3397,1.3397,1.3397,1.3397,1.3397,1.3804,1.4196,1.4743,1.5755,1.6534,1.7441,1.8004,1.8377,1.8983,1.9005,1.9103,1.924,1.9325,1.9628,1.9806,2.0145,2.0259,2.0307,2.0345,2.0345,2.042,2.0808,2.1109,2.1109,2.1259,2.1623,2.1885,2.2196,2.2446,2.2669,2.2819,2.2893,2.293,2.3067,2.3067,2.3067,2.329,2.3513,2.3822,2.4119,2.4304,2.4488,2.4562,2.4599,2.4599,2.4599,2.4599,2.4599,2.4599,2.4599,2.4599,2.4599,2.4599,2.4599,2.4599,2.4599,1.4299,1.4299,1.4299,1.4299,1.4299,1.4299,1.4299,1.4299,1.4299,1.4299,1.4299,1.4299,1.4299,1.4299,1.4299,1.4299,1.4299,1.4299,1.4299,1.4299,1.4299,1.4299,1.4299,1.4299,1.4299,1.4299,1.4299,1.4299,1.4299,1.4299,1.4299,1.4299,1.4299,1.4299,1.4299,1.4299,1.4299,1.4299,1.4299,1.4299,1.4299,1.4292,1.4272,1.4211,1.4129,1.4089,1.4095,1.393,1.3802,1.3714,1.366,1.3524,1.3437,1.3397,1.3397,1.3397,1.3397,1.3397,1.3397,1.3604,1.3976,1.465,1.5367,1.6131,1.6987,1.7194,1.771,1.8206,1.828,1.8494,1.8876,1.8866,1.9005,1.8984,1.9136,1.9174,1.9174,1.9212,1.9249,1.9401,1.9703,2.0458,2.0759,2.0721,2.0985,2.136,2.1623,2.1885,2.2109,2.2334,2.2483,2.2483,2.2558,2.2632,2.2707,2.3005,2.329,2.3587,2.3933,2.423,2.4377,2.4562,2.4599,2.4599,2.4599,2.4599,2.4599,2.4599,2.4599,2.4599,2.4599,2.4599,2.4599,2.4599,2.4599,1.4251,1.4299,1.4299,1.4299,1.4299,1.4299,1.4299,1.4299,1.4299,1.4299,1.4299,1.4299,1.4299,1.4299,1.4299,1.4299,1.4299,1.4299,1.4299,1.4299,1.4299,1.4299,1.4299,1.4299,1.4299,1.4299,1.4299,1.4299,1.4299,1.4299,1.4299,1.4299,1.4299,1.4299,1.4299,1.4299,1.4299,1.4299,1.4299,1.4299,1.4299,1.4299,1.4299,1.4265,1.4224,1.419,1.4211,1.4116,1.3939,1.3815,1.37,1.3558,1.3471,1.3397,1.3397,1.3397,1.3397,1.3397,1.3397,1.3397,1.3852,1.4631,1.5257,1.5917,1.6517,1.6856,1.7198,1.7547,1.7673,1.8024,1.8407,1.8385,1.8469,1.8487,1.8569,1.8607,1.8605,1.8719,1.8719,1.8833,1.8946,1.9741,2.0307,2.0307,2.0345,2.0684,2.1022,2.1285,2.1585,2.1922,2.2221,2.2296,2.2334,2.2408,2.2558,2.2744,2.3079,2.3364,2.3735,2.4156,2.4414,2.4599,2.4599,2.4599,2.4599,2.4599,2.4599,2.4599,2.4599,2.4599,2.4599,2.4599,2.4599,2.4599,2.4599,1.415,1.4278,1.4285,1.4278,1.4285,1.4292,1.4299,1.4299,1.4299,1.4299,1.4299,1.4299,1.4299,1.4299,1.4299,1.4299,1.4299,1.4299,1.4299,1.4299,1.4299,1.4299,1.4299,1.4299,1.4299,1.4299,1.4299,1.4299,1.4299,1.4299,1.4299,1.4299,1.4299,1.4299,1.4299,1.4299,1.4299,1.4299,1.4299,1.4299,1.4299,1.4299,1.4299,1.4285,1.4278,1.4272,1.4278,1.4238,1.4075,1.3903,1.3781,1.3605,1.3505,1.3403,1.3397,1.3397,1.3397,1.3397,1.3397,1.3397,1.3769,1.4431,1.4713,1.5497,1.6188,1.6615,1.6833,1.7103,1.7275,1.7585,1.7871,1.8055,1.8193,1.827,1.8392,1.8419,1.8435,1.8453,1.8453,1.8491,1.8529,1.8946,1.9315,1.9428,1.9628,1.9854,2.0194,2.0635,2.1022,2.166,2.196,2.2308,2.2334,2.2334,2.2483,2.2744,2.3116,2.3513,2.3772,2.4119,2.4377,2.4599,2.4599,2.4599,2.4599,2.4599,2.4599,2.4599,2.4599,2.4599,2.4599,2.4599,2.4599,2.4599,2.4599,1.3889,1.393,1.393,1.4034,1.415,1.4258,1.4299,1.4299,1.4299,1.4299,1.4299,1.4299,1.4299,1.4299,1.4299,1.4299,1.4299,1.4299,1.4299,1.4299,1.4299,1.4299,1.4299,1.4299,1.4299,1.4299,1.4299,1.4299,1.4299,1.4299,1.4299,1.4299,1.4299,1.4299,1.4299,1.4299,1.4299,1.4299,1.4299,1.4299,1.4299,1.4299,1.4299,1.4299,1.4299,1.4299,1.4299,1.4299,1.4136,1.3876,1.3808,1.3653,1.3437,1.3397,1.3397,1.3397,1.3397,1.3397,1.3397,1.3397,1.3687,1.4232,1.4514,1.5216,1.5875,1.6279,1.6418,1.667,1.6869,1.7168,1.732,1.7502,1.7622,1.7735,1.7816,1.7769,1.7779,1.7778,1.7778,1.7769,1.7845,1.8111,1.8443,1.8719,1.8909,1.906,1.9401,1.9919,2.0522,2.1173,2.1747,2.2084,2.2408,2.2483,2.2669,2.2893,2.3302,2.3674,2.3933,2.4179,2.4451,2.4599,2.4599,2.4599,2.4599,2.4599,2.4599,2.4599,2.4599,2.4599,2.4599,2.4599,2.4599,2.4599,2.4599,1.3747,1.3795,1.3795,1.3856,1.4007,1.4204,1.4272,1.4231,1.4272,1.4299,1.4299,1.4299,1.4299,1.4299,1.4299,1.4299,1.4299,1.4299,1.4299,1.4299,1.4299,1.4299,1.4299,1.4299,1.4299,1.4299,1.4299,1.4299,1.4299,1.4299,1.4299,1.4299,1.4299,1.4299,1.4299,1.4299,1.4299,1.4299,1.4299,1.4299,1.4299,1.4299,1.4299,1.4299,1.4299,1.4299,1.4299,1.4299,1.4156,1.3903,1.3856,1.3693,1.3505,1.3451,1.3403,1.3397,1.3397,1.3397,1.3397,1.3397,1.3652,1.3983,1.4315,1.4886,1.5463,1.5958,1.6155,1.6377,1.6506,1.6642,1.6768,1.6891,1.6951,1.7056,1.7021,1.6945,1.6961,1.6938,1.6948,1.6968,1.7159,1.7416,1.7683,1.7959,1.8263,1.8529,1.8974,1.9542,2.0183,2.0872,2.1435,2.1897,2.2334,2.2669,2.2893,2.3154,2.3525,2.3896,2.4156,2.4377,2.4562,2.4599,2.4599,2.4599,2.4599,2.4599,2.4599,2.4599,2.4599,2.4599,2.4599,2.4599,2.4599,2.4599,2.4599,1.3639,1.3754,1.3781,1.3774,1.3822,1.4122,1.4177,1.4095,1.4217,1.4285,1.4292,1.4299,1.4299,1.4299,1.4299,1.4299,1.4299,1.4299,1.4299,1.4299,1.4299,1.4299,1.4299,1.4299,1.4299,1.4299,1.4299,1.4299,1.4299,1.4299,1.4299,1.4299,1.4299,1.4299,1.4299,1.4299,1.4299,1.4299,1.4299,1.4299,1.4299,1.4299,1.4299,1.4299,1.4299,1.4299,1.4299,1.4272,1.4231,1.4075,1.3946,1.3761,1.3585,1.3478,1.3417,1.3397,1.3397,1.3397,1.3397,1.3397,1.3611,1.3859,1.4108,1.4521,1.5017,1.5636,1.5883,1.6122,1.627,1.6376,1.649,1.6553,1.6653,1.6689,1.6682,1.6642,1.6695,1.6626,1.6557,1.6548,1.6624,1.6854,1.6968,1.7235,1.735,1.7835,1.8367,1.8936,1.9655,2.0383,2.1248,2.1773,2.2334,2.2856,2.3228,2.3525,2.3822,2.4156,2.4377,2.4488,2.4562,2.4599,2.4599,2.4599,2.4599,2.4599,2.4599,2.4599,2.4599,2.4599,2.4599,2.4599,2.4599,2.4599,2.4599,1.3478,1.3519,1.3592,1.3639,1.366,1.3829,1.4007,1.4119,1.4146,1.419,1.4285,1.4299,1.4299,1.4299,1.4299,1.4299,1.4299,1.4299,1.4299,1.4299,1.4299,1.4299,1.4299,1.4299,1.4299,1.4299,1.4299,1.4299,1.4299,1.4299,1.4299,1.4299,1.4299,1.4299,1.4299,1.4299,1.4299,1.4299,1.4299,1.4299,1.4299,1.4299,1.4299,1.4299,1.4299,1.4299,1.4299,1.4292,1.4211,1.4082,1.4048,1.3878,1.3648,1.3485,1.341,1.3397,1.3397,1.3397,1.3397,1.3397,1.3528,1.3652,1.3859,1.4149,1.4563,1.5182,1.5636,1.5875,1.604,1.6081,1.6155,1.6221,1.6245,1.6273,1.6247,1.6315,1.6338,1.6198,1.6106,1.6089,1.6089,1.6165,1.6242,1.6357,1.651,1.6892,1.7388,1.8025,1.8898,1.9693,2.1161,2.1836,2.252,2.3005,2.3451,2.3822,2.4119,2.4304,2.4488,2.4562,2.4599,2.4599,2.4599,2.4599,2.4599,2.4599,2.4599,2.4599,2.4599,2.4599,2.4599,2.4599,2.4599,2.4599,2.4599,1.3342,1.3417,1.3566,1.3545,1.3573,1.3707,1.3815,1.3892,1.4057,1.4159,1.4204,1.4265,1.4299,1.4299,1.4299,1.4299,1.4299,1.4299,1.4299,1.4299,1.4299,1.4299,1.4299,1.4299,1.4299,1.4299,1.4299,1.4299,1.4299,1.4299,1.4299,1.4299,1.4299,1.4299,1.4299,1.4299,1.4299,1.4299,1.4299,1.4299,1.4299,1.4299,1.4299,1.4299,1.4299,1.4299,1.4299,1.4299,1.4251,1.4129,1.4041,1.3865,1.3648,1.3485,1.341,1.3397,1.3397,1.3397,1.3397,1.3397,1.3397,1.3528,1.3569,1.3818,1.4149,1.4728,1.4927,1.5175,1.5257,1.534,1.5381,1.5383,1.5416,1.5437,1.5217,1.5122,1.5016,1.484,1.4784,1.4784,1.4784,1.4822,1.493,1.5198,1.5429,1.5927,1.6462,1.7416,1.8253,1.9342,2.0737,2.2023,2.2732,2.3265,2.3748,2.4081,2.4341,2.4525,2.4599,2.4599,2.4599,2.4599,2.4599,2.4599,2.4599,2.4599,2.4599,2.4599,2.4599,2.4599,2.4599,2.4599,2.4599,2.4599,2.4613,1.3234,1.3383,1.3512,1.347,1.3444,1.3626,1.3687,1.3653,1.3919,1.4055,1.4153,1.4245,1.4292,1.4299,1.4299,1.4299,1.4299,1.4299,1.4299,1.4299,1.4299,1.4299,1.4299,1.4299,1.4299,1.4299,1.4299,1.4299,1.4299,1.4299,1.4299,1.4299,1.4299,1.4299,1.4299,1.4299,1.4299,1.4299,1.4299,1.4299,1.4299,1.4299,1.4299,1.4299,1.4299,1.4299,1.4299,1.4299,1.4299,1.4183,1.3977,1.3802,1.3668,1.3512,1.3431,1.3397,1.3397,1.3397,1.3397,1.3397,1.3397,1.3397,1.3397,1.3569,1.3901,1.4108,1.4307,1.4431,1.4548,1.4713,1.4754,1.4754,1.4747,1.4695,1.4426,1.4149,1.3962,1.3798,1.379,1.3783,1.3783,1.3783,1.3929,1.4199,1.4507,1.5006,1.5765,1.6835,1.794,1.9256,2.0613,2.2011,2.3104,2.3637,2.4044,2.4267,2.4488,2.4525,2.4599,2.4599,2.4599,2.4599,2.4599,2.4599,2.4599,2.4599,2.4599,2.4599,2.4599,2.4599,2.4599,2.4599,2.4599,2.4613,2.4653,1.3125,1.322,1.3247,1.3308,1.3397,1.3471,1.3539,1.3605,1.3761,1.3946,1.4061,1.4211,1.4299,1.4299,1.4299,1.4299,1.4299,1.4299,1.4299,1.4299,1.4299,1.4299,1.4299,1.4299,1.4299,1.4299,1.4299,1.4299,1.4299,1.4299,1.4299,1.4299,1.4299,1.4299,1.4299,1.4299,1.4299,1.4299,1.4299,1.4299,1.4299,1.4299,1.4299,1.4299,1.4299,1.4299,1.4299,1.4299,1.4299,1.4204,1.4027,1.3815,1.3666,1.3553,1.3431,1.3397,1.3397,1.3397,1.3397,1.3397,1.3397,1.3397,1.3397,1.3397,1.3611,1.3611,1.3769,1.3852,1.4059,1.4465,1.4548,1.4548,1.4541,1.4486,1.4294,1.3958,1.3715,1.3649,1.3612,1.3597,1.359,1.359,1.3628,1.3737,1.3775,1.4237,1.4545,1.565,1.7245,1.883,2.0327,2.1576,2.2868,2.3994,2.4414,2.4414,2.4562,2.4599,2.4599,2.4599,2.4599,2.4599,2.4599,2.4599,2.4599,2.4599,2.4599,2.4599,2.4599,2.4599,2.4599,2.4599,2.4599,2.4626,2.4679]},{"header":{"parameterUnit":"m.s-1","parameterCategory":1,"la1":31.0,"la2":29.5877,"lo1":-88.7671,"lo2":-86.6584,"dy":0.0162,"dx":0.0185,"nx":115,"ny":88,"refTime":"2023-04-23T18:00:00:Z","depth":0,"parameterNumber":3,"parameterNumberName":"V-component_of_WINDS"},"data":[0.0,0.0,0.0,0.0,0.0,0.0,0.0,0.0,0.0,0.0,0.0,0.0,0.0,0.0,0.0,0.0,0.0,0.0,0.0,0.0,0.0,0.0,0.0,0.0,0.0,0.0,0.0,0.0,0.0,0.0,0.0,0.0,0.0,0.0,0.0,0.0,0.0,0.0,0.0,0.0,0.0,0.0,0.0,0.0,0.0,0.0,0.0,0.0,0.0,0.0,0.0,0.0,0.0,0.0,0.0,0.0,0.0,0.0,0.0,0.0,0.0,0.0,0.0,0.0,0.0,0.0,0.0,0.0,0.0,0.0,0.0,0.0,0.0,0.0,0.0,0.0,0.0,0.0,0.0,0.0,0.0,0.0,0.0,0.0,0.0,0.0,0.0,0.0,0.0,0.0,0.0,0.0,0.0,0.0,0.0,0.0,0.0,0.0,0.0,0.0,0.0,0.0,0.0,0.0,0.0,0.0,0.0,0.0,0.0,0.0,0.0,0.0,0.0,0.0,0.0,0.0,0.0,0.0,0.0,0.0,0.0,0.0,0.0,0.0,0.0,0.0,0.0,0.0,0.0,0.0,0.0,0.0,0.0,0.0,0.0,0.0,0.0,0.0,0.0,0.0,0.0,0.0,0.0,0.0,0.0,0.0,0.0,0.0,0.0,0.0,0.0,0.0,0.0,0.0,0.0,0.0,0.0,0.0,0.0,0.0,0.0,0.0,0.0,0.0,0.0,0.0,0.0,0.0,0.0,0.0,0.0,0.0,0.0,0.0,0.0,0.0,0.0,0.0,0.0,0.0,0.0,0.0,0.0,0.0,0.0,0.0,0.0,0.0,0.0,0.0,0.0,0.0,0.0,0.0,0.0,0.0,0.0,0.0,0.0,0.0,0.0,0.0,0.0,0.0,0.0,0.0,0.0,0.0,0.0,0.0,0.0,0.0,0.0,0.0,0.0,0.0,0.0,0.0,0.0,0.0,0.0,0.0,0.0,0.0,0.0,0.0,0.0,0.0,0.0,0.0,0.0,0.0,0.0,0.0,0.0,0.0,0.0,0.0,0.0,0.0,0.0,0.0,0.0,0.0,0.0,0.0,0.0,0.0,0.0,0.0,0.0,0.0,0.0,0.0,0.0,0.0,0.0,0.0,0.0,0.0,0.0,0.0,0.0,0.0,0.0,0.0,0.0,0.0,0.0,0.0,0.0,0.0,0.0,0.0,0.0,0.0,0.0,0.0,0.0,0.0,0.0,0.0,0.0,0.0,0.0,0.0,0.0,0.0,0.0,0.0,0.0,0.0,0.0,0.0,0.0,0.0,0.0,0.0,0.0,0.0,0.0,0.0,0.0,0.0,0.0,0.0,0.0,0.0,0.0,0.0,0.0,0.0,0.0,0.0,0.0,0.0,0.0,0.0,0.0,0.0,0.0,0.0,0.0,0.0,0.0,0.0,0.0,0.0,0.0,0.0,0.0,0.0,0.0,0.0,0.0,0.0,0.0,0.0,0.0,0.0,0.0,0.0,0.0,0.0,0.0,0.0,0.0,0.0,0.0,0.0,0.0,0.0,0.0,0.0,0.0,0.0,0.0,0.0,0.0,0.0,0.0,0.0,0.0,0.0,0.0,0.0,0.0,0.0,0.0,0.0,0.0,0.0,0.0,0.0,0.0,0.0,0.0,0.0,0.0,0.0,0.0,0.0,0.0,0.0,0.0,0.0,0.0,0.0,0.0,0.0,0.0,0.0,0.0,0.0,0.0,0.0,0.0,0.0,0.0,0.0,0.0,0.0,0.0,0.0,0.0,0.0,0.0,0.0,0.0,0.0,0.0,0.0,0.0,0.0,0.0,0.0,0.0,0.0,0.0,0.0,0.0,0.0,0.0,0.0,0.0,0.0,0.0,0.0,0.0,0.0,0.0,0.0,0.0,0.0,0.0,0.0,0.0,0.0,0.0,0.0,0.0,0.0,0.0,0.0,0.0,0.0,0.0,0.0,0.0,0.0,0.0,0.0,0.0,0.0,0.0,0.0,0.0,0.0,0.0,0.0,0.0,0.0,0.0,0.0,0.0,0.0,0.0,0.0,0.0,0.0,0.0,0.0,0.0,0.0,0.0,0.0,0.0,0.0,0.0,0.0,0.0,0.0,0.0,0.0,0.0,0.0,0.0,0.0,0.0,0.0,0.0,0.0,0.0,0.0,0.0,0.0,0.0,0.0,0.0,0.0,0.0,0.0,0.0,0.0,0.0,0.0,0.0,0.0,0.0,0.0,0.0,0.0,0.0,0.0,0.0,0.0,0.0,0.0,0.0,0.0,0.0,0.0,0.0,0.0,0.0,0.0,0.0,0.0,0.0,0.0,0.0,0.0,0.0,0.0,0.0,0.0,0.0,0.0,0.0,0.0,0.0,0.0,0.0,0.0,0.0,0.0,0.0,0.0,0.0,0.0,0.0,0.0,0.0,0.0,0.0,0.0,0.0,0.0,0.0,0.0,0.0,0.0,0.0,0.0,0.0,0.0,0.0,0.0,0.0,0.0,0.0,0.0,0.0,0.0,0.0,0.0,0.0,0.0,0.0,0.0,0.0,0.0,0.0,0.0,0.0,0.0,0.0,0.0,0.0,0.0,0.0,0.0,0.0,0.0,0.0,0.0,0.0,0.0,0.0,0.0,0.0,0.0,0.0,0.0,0.0,0.0,0.0,0.0,0.0,0.0,0.0,0.0,0.0,0.0,0.0,0.0,0.0,0.0,0.0,0.0,0.0,0.0,0.0,0.0,0.0,0.0,0.0,0.0,0.0,0.0,0.0,0.0,0.0,0.0,0.0,0.0,0.0,0.0,0.0,0.0,0.0,0.0,0.0,0.0,0.0,0.0,0.0,0.0,0.0,0.0,0.0,0.0,0.0,0.0,0.0,0.0,0.0,0.0,0.0,0.0,0.0,0.0,0.0,0.0,0.0,0.0,0.0,0.0,0.0,0.0,0.0,0.0,0.0,0.0,0.0,0.0,0.0,0.0,0.0,0.0,0.0,0.0,0.0,0.0,0.0,0.0,0.0,0.0,0.0,0.0,0.0,0.0,0.0,0.0,0.0,0.0,0.0,0.0,0.0,0.0,0.0,0.0,0.0,0.0,0.0,0.0,0.0,0.0,0.0,0.0,0.0,0.0,0.0,0.0,0.0,0.0,0.0,0.0,0.0,0.0,0.0,0.0,0.0,0.0,0.0,0.0,0.0,0.0,0.0,0.0,0.0,0.0,0.0,0.0,0.0,0.0,0.0,0.0,0.0,0.0,0.0,0.0,0.0,0.0,0.0,0.0,0.0,0.0,0.0,0.0,0.0,0.0,0.0,0.0,0.0,0.0,0.0,0.0,0.0,0.0,0.0,0.0,0.0,0.0,0.0,0.0,0.0,0.0,0.0,0.0,0.0,0.0,0.0,0.0,0.0,0.0,0.0,0.0,0.0,0.0,0.0,0.0,0.0,0.0,0.0,0.0,0.0,0.0,0.0,0.0,0.0,0.0,0.0,0.0,0.0,0.0,0.0,0.0,0.0,0.0,0.0,0.0,0.0,0.0,0.0,0.0,0.0,0.0,0.0,0.0,0.0,0.0,0.0,0.0,0.0,0.0,0.0,0.0,0.0,0.0,0.0,0.0,0.0,0.0,0.0,0.0,0.0,0.0,0.0,0.0,0.0,0.0,0.0,0.0,0.0,0.0,0.0,0.0,0.0,0.0,0.0,0.0,0.0,0.0,0.0,0.0,0.0,0.0,0.0,0.0,0.0,0.0,0.0,0.0,0.0,0.0,0.0,0.0,0.0,0.0,0.0,0.0,0.0,0.0,0.0,0.0,0.0,0.0,0.0,0.0,0.0,0.0,0.0,0.0,0.0,0.0,0.0,0.0,0.0,0.0,0.0,0.0,0.0,0.0,0.0,0.0,0.0,0.0,0.0,0.0,0.0,0.0,0.0,0.0,0.0,0.0,0.0,0.0,0.0,0.0,0.0,0.0,0.0,0.0,0.0,0.0,0.0,0.0,0.0,0.0,0.0,0.0,0.0,0.0,0.0,0.0,0.0,0.0,0.0,0.0,0.0,0.0,0.0,0.0,0.0,0.0,0.0,0.0,0.0,0.0,0.0,0.0,0.0,0.0,0.0,0.0,0.0,0.0,0.0,0.0,0.0,0.0,0.0,0.0,0.0,0.0,0.0,0.0,0.0,0.0,0.0,0.0,0.0,0.0,0.0,0.0,0.0,0.0,0.0,0.0,0.0,0.0,0.0,0.0,0.0,0.0,2.115,0.0,0.0,0.0,0.0,0.0,0.0,0.0,0.0,0.0,0.0,0.0,0.0,0.0,0.0,0.0,0.0,0.0,0.0,0.0,0.0,0.0,0.0,0.0,0.0,0.0,0.0,0.0,0.0,0.0,0.0,0.0,0.0,0.0,0.0,0.0,0.0,0.0,0.0,0.0,0.0,0.0,0.0,0.0,0.0,0.0,0.0,0.0,0.0,0.0,0.0,0.0,0.0,0.0,0.0,0.0,0.0,0.0,0.0,0.0,0.0,0.0,0.0,0.0,0.0,0.0,0.0,0.0,0.0,0.0,0.0,0.0,0.0,0.0,0.0,0.0,0.0,0.0,0.0,0.0,0.0,0.0,0.0,0.0,0.0,0.0,0.0,0.0,0.0,0.0,0.0,0.0,0.0,0.0,0.0,0.0,0.0,0.0,0.0,0.0,0.0,0.0,0.0,0.0,0.0,0.0,0.0,0.0,0.0,0.0,0.0,1.4876,1.6417,1.6209,1.8019,2.2196,0.0,0.0,0.0,0.0,0.0,0.0,0.0,0.0,0.0,0.0,0.0,0.0,0.0,0.0,0.0,0.0,0.0,0.0,0.0,0.0,0.0,0.0,0.0,0.0,0.0,0.0,0.0,0.0,0.0,0.0,0.0,0.0,0.0,0.0,0.0,0.0,0.0,0.0,0.0,0.0,0.0,0.0,0.0,0.0,0.0,0.0,0.0,0.0,0.0,0.0,0.0,0.0,0.0,0.0,0.0,0.0,0.0,0.0,0.0,0.0,0.0,0.0,0.0,0.0,0.0,0.0,0.0,0.0,0.0,0.0,0.0,0.0,0.0,0.0,0.0,0.0,0.0,0.0,0.0,0.0,0.0,0.0,0.0,0.0,0.0,0.0,0.0,0.0,0.0,0.0,0.0,0.0,0.0,0.0,0.0,0.0,0.0,0.0,0.0,0.0,0.0,0.0,0.0,0.0,0.0,0.0,0.0,0.0,0.0,0.0,0.0,0.0,1.6894,1.8893,2.3824,0.0,0.0,0.0,0.0,0.0,0.0,0.0,0.0,0.0,0.0,0.0,0.0,0.0,0.0,0.0,0.0,0.0,0.0,0.0,0.0,0.0,0.0,0.0,0.0,0.0,0.0,0.0,0.0,0.0,0.0,0.0,0.0,0.0,0.0,0.0,0.0,0.0,0.0,0.0,0.0,0.0,0.0,0.0,0.0,0.0,0.0,0.0,0.0,0.0,0.0,0.0,0.0,0.0,0.0,0.0,0.0,0.0,0.0,0.0,0.0,0.0,0.0,0.0,0.0,0.0,0.0,0.0,0.0,0.0,0.0,0.0,0.0,0.0,0.0,0.0,0.0,0.0,0.0,0.0,0.0,0.0,0.0,0.0,0.0,0.0,0.0,0.0,0.0,0.0,0.0,0.0,0.0,0.0,0.0,0.0,0.0,0.0,0.0,0.0,0.0,0.0,0.0,0.0,0.0,0.0,0.0,0.0,0.0,0.0,0.0,1.6611,2.0282,1.9979,0.0,2.7465,0.0,0.0,0.0,0.0,0.0,0.0,0.0,0.0,0.0,0.0,0.0,0.0,0.0,0.0,0.0,0.0,0.0,0.0,0.0,0.0,0.0,0.0,0.0,0.0,0.0,0.0,0.0,0.0,0.0,0.0,0.0,0.0,0.0,0.0,0.0,0.0,0.0,0.0,0.0,0.0,0.0,0.0,0.0,0.0,0.0,0.0,0.0,0.0,0.0,0.0,0.0,0.0,0.0,0.0,0.0,0.0,0.0,0.0,0.0,0.0,0.0,0.0,0.0,0.0,0.0,0.0,0.0,0.0,0.0,0.0,0.0,0.0,0.0,0.0,0.0,0.0,0.0,0.0,0.0,0.0,0.0,0.0,0.0,0.0,0.0,0.0,0.0,0.0,0.0,0.0,0.0,0.0,0.0,0.0,0.0,0.0,0.0,0.0,0.0,0.0,0.0,0.0,0.0,0.0,0.0,0.0,0.0,0.0,0.0,0.0,1.6343,1.9353,2.228,2.5064,0.0,0.0,0.0,0.0,0.0,0.0,0.0,0.0,0.0,0.0,0.0,0.0,0.0,0.0,0.0,0.0,0.0,0.0,0.0,0.0,0.0,0.0,0.0,0.0,0.0,0.0,0.0,0.0,0.0,0.0,0.0,0.0,0.0,0.0,0.0,0.0,0.0,0.0,0.0,0.0,0.0,0.0,0.0,0.0,0.0,0.0,0.0,0.0,0.0,0.0,0.0,0.0,0.0,0.0,0.0,0.0,0.0,0.0,0.0,0.0,0.0,0.0,0.0,0.0,0.0,0.0,0.0,0.0,0.0,0.0,0.0,0.0,0.0,0.0,0.0,0.0,0.0,0.0,0.0,0.0,0.0,0.0,0.0,0.0,0.0,0.0,0.0,0.0,0.0,0.0,0.0,0.0,0.0,0.0,0.0,0.0,0.0,0.0,0.0,0.0,0.0,0.0,0.0,0.0,0.0,0.0,0.0,0.0,0.0,0.0,1.5432,1.6839,1.9937,2.3923,2.6659,2.7913,0.0,0.0,0.0,0.0,0.0,0.0,0.0,0.0,0.0,0.0,0.0,0.0,0.0,0.0,0.0,0.0,0.0,0.0,0.0,0.0,0.0,0.0,0.0,0.0,0.0,0.0,0.0,0.0,0.0,0.0,0.0,0.0,0.0,0.0,0.0,0.0,0.0,0.0,0.0,0.0,0.0,0.0,0.0,0.0,0.0,0.0,0.0,0.0,0.0,0.0,0.0,0.0,0.0,0.0,0.0,0.0,0.0,0.0,0.0,0.0,0.0,0.0,0.0,0.0,0.0,0.0,0.0,0.0,0.0,0.0,0.0,0.0,0.0,0.0,0.0,0.0,0.0,0.0,0.0,0.0,0.0,0.0,0.0,0.0,0.0,0.0,0.0,0.0,0.0,0.0,0.0,0.0,0.0,0.0,0.0,0.0,0.0,0.0,0.0,0.0,0.0,0.0,0.0,0.0,0.0,0.0,0.0,0.0,1.8516,1.7329,1.8831,2.3276,2.4863,2.6722,0.0,0.0,0.0,0.0,0.0,0.0,0.0,0.0,0.0,0.0,0.0,0.0,0.0,0.0,0.0,0.0,0.0,0.0,0.0,0.0,0.0,0.0,0.0,0.0,0.0,0.0,0.0,0.0,0.0,0.0,0.0,0.0,0.0,0.0,0.0,0.0,0.0,0.0,0.0,0.0,0.0,0.0,0.0,0.0,0.0,0.0,0.0,0.0,0.0,0.0,0.0,0.0,0.0,0.0,0.0,0.0,0.0,0.0,0.0,0.0,0.0,0.0,0.0,0.0,0.0,0.0,0.0,0.0,0.0,0.0,0.0,0.0,0.0,0.0,0.0,0.0,0.0,0.0,0.0,0.0,0.0,0.0,0.0,0.0,0.0,0.0,0.0,0.0,0.0,0.0,0.0,0.0,0.0,0.0,0.0,0.0,0.0,0.0,0.0,0.0,0.0,0.0,0.0,0.0,0.0,0.0,0.0,0.0,0.0,1.586,1.7867,1.9867,2.1959,2.5429,2.7604,0.0,0.0,0.0,0.0,0.0,0.0,0.0,0.0,0.0,0.0,0.0,0.0,0.0,0.0,0.0,0.0,0.0,0.0,0.0,0.0,0.0,0.0,0.0,0.0,0.0,0.0,0.0,0.0,0.0,0.0,0.0,0.0,0.0,0.0,0.0,0.0,0.0,0.0,0.0,0.0,0.0,0.0,0.0,0.0,0.0,0.0,0.0,0.0,0.0,0.0,0.0,0.0,0.0,0.0,0.0,0.0,0.0,0.0,0.0,0.0,0.0,0.0,0.0,0.0,0.0,0.0,0.0,0.0,0.0,0.0,0.0,0.0,0.0,0.0,0.0,0.0,0.0,0.0,0.0,0.0,0.0,0.0,0.0,0.0,0.0,0.0,0.0,0.0,0.0,0.0,0.0,0.0,0.0,0.0,0.0,0.0,0.0,0.0,0.0,0.0,0.0,0.0,0.0,0.0,0.0,0.0,0.0,0.0,0.0,1.552,0.0,2.1088,2.2158,2.5567,2.7625,0.0,0.0,0.0,0.0,0.0,0.0,0.0,0.0,0.0,0.0,0.0,0.0,0.0,0.0,0.0,0.0,0.0,0.0,0.0,0.0,0.0,0.0,0.0,0.0,0.0,0.0,0.0,0.0,0.0,0.0,0.0,0.0,0.0,0.0,0.0,0.0,0.0,0.0,0.0,0.0,0.0,0.0,0.0,0.0,0.0,0.0,0.0,0.0,0.0,0.0,0.0,0.0,0.0,0.0,0.0,0.0,0.0,0.0,0.0,0.0,0.0,0.0,0.0,0.0,0.0,0.0,0.0,0.0,0.0,0.0,0.0,0.0,0.0,0.0,0.0,0.0,0.0,0.0,0.0,0.0,0.0,0.0,0.0,0.0,0.0,0.0,0.0,0.0,0.0,0.0,0.0,0.0,0.0,0.0,0.0,0.0,0.0,0.0,0.0,0.0,0.0,0.0,0.0,0.0,0.0,0.0,0.0,0.0,1.6418,1.8228,2.0383,2.2406,2.45,2.5227,2.6754,0.0,0.0,0.0,0.0,0.0,0.0,0.0,0.0,0.0,0.0,0.0,0.0,0.0,0.0,0.0,0.0,0.0,0.0,0.0,0.0,0.0,0.0,0.0,0.0,0.0,0.0,0.0,0.0,0.0,0.0,0.0,0.0,0.0,0.0,0.0,0.0,0.0,0.0,0.0,0.0,0.0,0.0,0.0,0.0,0.0,0.0,0.0,0.0,0.0,0.0,0.0,0.0,0.0,0.0,0.0,0.0,0.0,0.0,0.0,0.0,0.0,0.0,0.0,0.0,0.0,0.0,0.0,0.0,0.0,0.0,0.0,0.0,0.0,0.0,0.0,0.0,0.0,0.0,0.0,0.0,0.0,0.0,0.0,0.0,0.0,0.0,0.0,0.0,0.0,0.0,0.0,0.0,0.0,0.0,0.0,0.0,0.0,0.0,0.0,0.0,0.0,0.0,0.0,0.0,0.0,0.0,0.0,0.0,0.0,1.8849,1.9878,2.2004,2.5107,2.538,2.688,0.0,0.0,0.0,0.0,0.0,0.0,0.0,0.0,0.0,0.0,0.0,0.0,0.0,0.0,0.0,0.0,0.0,0.0,0.0,0.0,0.0,0.0,0.0,0.0,0.0,0.0,0.0,0.0,0.0,0.0,0.0,0.0,0.0,0.0,0.0,0.0,0.0,0.0,0.0,0.0,0.0,0.0,0.0,0.0,0.0,0.0,0.0,0.0,0.0,0.0,0.0,0.0,0.0,0.0,0.0,0.0,0.0,0.0,0.0,0.0,0.0,0.0,0.0,0.0,0.0,0.0,0.0,0.0,0.0,0.0,0.0,0.0,0.0,0.0,0.0,0.0,0.0,0.0,0.0,0.0,0.0,0.0,0.0,0.0,0.0,0.0,0.0,0.0,0.0,0.0,0.0,0.0,0.0,0.0,0.0,0.0,0.0,0.0,0.0,0.0,0.0,0.0,0.0,0.0,0.0,0.0,0.0,0.0,0.0,2.1895,2.1495,2.2742,2.5792,2.6302,2.7508,2.9436,0.0,0.0,0.0,0.0,0.0,0.0,0.0,0.0,0.0,0.0,0.0,0.0,0.0,0.0,0.0,0.0,0.0,0.0,0.0,0.0,0.0,0.0,0.0,0.0,0.0,0.0,0.0,0.0,0.0,0.0,0.0,0.0,0.0,0.0,0.0,0.0,0.0,0.0,0.0,0.0,0.0,0.0,0.0,0.0,0.0,0.0,0.0,0.0,0.0,0.0,0.0,0.0,0.0,0.0,0.0,0.0,0.0,0.0,0.0,0.0,0.0,0.0,0.0,0.0,0.0,0.0,0.0,0.0,0.0,0.0,0.0,0.0,0.0,0.0,0.0,0.0,0.0,0.0,0.0,0.0,0.0,0.0,0.0,0.0,0.0,0.0,0.0,0.0,0.0,0.0,0.0,0.0,0.0,0.0,0.0,0.0,0.0,0.0,0.0,0.0,0.0,0.0,0.0,0.0,0.0,0.0,0.0,0.0,2.6952,2.5288,2.5292,2.693,2.8112,2.8636,0.0,0.0,0.0,0.0,0.0,0.0,0.0,0.0,0.0,0.0,0.0,0.0,0.0,0.0,0.0,0.0,0.0,0.0,0.0,0.0,0.0,0.0,0.0,0.0,0.0,0.0,0.0,0.0,0.0,0.0,0.0,0.0,0.0,0.0,0.0,0.0,0.0,0.0,0.0,0.0,0.0,0.0,0.0,0.0,0.0,0.0,0.0,0.0,0.0,0.0,0.0,0.0,0.0,0.0,0.0,0.0,0.0,0.0,0.0,0.0,0.0,0.0,0.0,0.0,0.0,0.0,0.0,0.0,0.0,0.0,0.0,0.0,0.0,0.0,0.0,0.0,0.0,0.0,0.0,0.0,0.0,0.0,0.0,0.0,0.0,0.0,0.0,0.0,0.0,0.0,0.0,0.0,0.0,0.0,0.0,0.0,0.0,0.0,0.0,0.0,0.0,0.0,0.0,0.0,0.0,0.0,0.0,0.0,0.0,3.128,3.3257,3.4118,3.3844,3.1999,3.1516,0.0,0.0,0.0,0.0,0.0,0.0,0.0,0.0,0.0,0.0,0.0,0.0,0.0,0.0,0.0,0.0,0.0,0.0,0.0,0.0,0.0,0.0,0.0,0.0,0.0,0.0,0.0,0.0,0.0,0.0,0.0,0.0,0.0,0.0,0.0,0.0,0.0,0.0,0.0,0.0,0.0,0.0,0.0,0.0,0.0,0.0,0.0,0.0,0.0,0.0,0.0,0.0,0.0,0.0,0.0,0.0,0.0,0.0,0.0,0.0,0.0,0.0,0.0,0.0,0.0,0.0,0.0,0.0,0.0,0.0,0.0,0.0,0.0,0.0,0.0,0.0,0.0,0.0,0.0,0.0,0.0,0.0,0.0,0.0,0.0,0.0,0.0,0.0,0.0,0.0,0.0,0.0,0.0,0.0,0.0,0.0,0.0,0.0,0.0,0.0,0.0,0.0,0.0,0.0,0.0,0.0,0.0,0.0,3.1614,3.4682,3.9851,4.227,4.1678,3.7823,3.5032,0.0,0.0,0.0,0.0,0.0,0.0,0.0,0.0,0.0,0.0,0.0,0.0,0.0,0.0,0.0,0.0,0.0,0.0,0.0,0.0,0.0,0.0,0.0,0.0,0.0,0.0,0.0,0.0,0.0,0.0,0.0,0.0,0.0,0.0,0.0,0.0,0.0,0.0,0.0,0.0,0.0,0.0,0.0,0.0,0.0,0.0,0.0,0.0,0.0,0.0,0.0,0.0,0.0,0.0,0.0,0.0,0.0,0.0,0.0,0.0,0.0,0.0,0.0,0.0,0.0,0.0,0.0,0.0,0.0,0.0,0.0,0.0,0.0,0.0,0.0,0.0,0.0,0.0,0.0,0.0,0.0,0.0,0.0,0.0,0.0,0.0,0.0,0.0,0.0,0.0,0.0,0.0,0.0,0.0,0.0,0.0,0.0,0.0,0.0,0.0,0.0,0.0,0.0,0.0,0.0,0.0,0.0,0.0,3.5869,3.769,4.5076,4.8943,4.8744,4.3887,3.8643,0.0,0.0,0.0,0.0,0.0,0.0,0.0,0.0,0.0,0.0,0.0,0.0,0.0,0.0,0.0,0.0,0.0,0.0,0.0,0.0,0.0,0.0,0.0,0.0,0.0,0.0,0.0,0.0,0.0,0.0,0.0,0.0,0.0,0.0,0.0,0.0,0.0,0.0,0.0,0.0,0.0,0.0,0.0,0.0,0.0,0.0,0.0,0.0,0.0,0.0,0.0,0.0,0.0,0.0,0.0,0.0,0.0,0.0,0.0,0.0,0.0,0.0,0.0,0.0,0.0,0.0,0.0,0.0,0.0,0.0,0.0,0.0,0.0,0.0,0.0,0.0,0.0,0.0,0.0,0.0,0.0,0.0,0.0,0.0,0.0,0.0,0.0,0.0,0.0,0.0,0.0,0.0,0.0,0.0,0.0,0.0,0.0,0.0,0.0,0.0,0.0,0.0,0.0,0.0,0.0,0.0,0.0,0.0,3.7413,4.2365,4.7687,5.0523,5.0605,4.4514,4.0083,0.0,0.0,0.0,0.0,0.0,0.0,0.0,0.0,0.0,0.0,0.0,0.0,0.0,0.0,0.0,0.0,0.0,0.0,0.0,0.0,0.0,0.0,0.0,0.0,0.0,0.0,0.0,0.0,0.0,0.0,0.0,0.0,0.0,0.0,0.0,0.0,0.0,0.0,0.0,0.0,0.0,0.0,0.0,0.0,0.0,0.0,0.0,0.0,2.4945,0.0,0.0,0.0,0.0,0.0,0.0,0.0,0.0,0.0,0.0,0.0,0.0,0.0,0.0,0.0,0.0,0.0,0.0,0.0,0.0,0.0,0.0,0.0,0.0,0.0,0.0,0.0,0.0,0.0,0.0,0.0,0.0,0.0,0.0,0.0,0.0,0.0,0.0,0.0,0.0,0.0,0.0,0.0,0.0,0.0,0.0,0.0,0.0,0.0,0.0,0.0,0.0,0.0,0.0,0.0,0.0,0.0,0.0,0.0,4.0221,4.5656,4.994,5.2151,5.2064,4.6433,4.2117,0.0,0.0,0.0,0.0,0.0,0.0,0.0,0.0,0.0,0.0,0.0,0.0,0.0,0.0,0.0,0.0,0.0,0.0,0.0,0.0,0.0,0.0,0.0,0.0,0.0,0.0,0.0,0.0,0.0,0.0,0.0,0.0,0.0,0.0,0.0,0.0,0.0,0.0,0.0,0.0,0.0,0.0,0.0,0.0,0.0,0.0,0.0,0.0,0.0,0.0,0.0,0.0,0.0,0.0,0.0,0.0,0.0,0.0,0.0,0.0,0.0,0.0,0.0,0.0,0.0,0.0,0.0,0.0,0.0,0.0,0.0,0.0,0.0,0.0,0.0,0.0,0.0,0.0,0.0,0.0,0.0,0.0,0.0,0.0,0.0,0.0,0.0,0.0,0.0,0.0,0.0,0.0,0.0,0.0,0.0,0.0,0.0,0.0,0.0,0.0,0.0,0.0,0.0,0.0,0.0,0.0,0.0,3.8105,4.2978,4.8397,5.1776,5.3501,5.3416,4.8545,4.4161,4.0574,0.0,0.0,0.0,0.0,0.0,0.0,0.0,0.0,0.0,0.0,0.0,0.0,0.0,0.0,0.0,0.0,0.0,0.0,0.0,0.0,0.0,0.0,0.0,0.0,0.0,0.0,0.0,0.0,0.0,0.0,0.0,0.0,0.0,0.0,0.0,0.0,0.0,0.0,2.1132,2.2435,0.0,0.0,0.0,0.0,0.0,0.0,0.0,0.0,2.4926,0.0,0.0,0.0,0.0,0.0,0.0,0.0,0.0,0.0,0.0,0.0,0.0,0.0,0.0,0.0,0.0,0.0,0.0,0.0,0.0,0.0,0.0,0.0,0.0,0.0,0.0,0.0,0.0,0.0,0.0,0.0,0.0,0.0,0.0,0.0,0.0,0.0,0.0,0.0,0.0,0.0,0.0,0.0,0.0,0.0,0.0,0.0,0.0,0.0,0.0,0.0,0.0,0.0,0.0,0.0,0.0,3.8824,3.9388,4.347,5.1336,5.2841,5.3501,5.3382,4.9018,4.5176,4.1961,0.0,0.0,0.0,0.0,0.0,0.0,0.0,0.0,0.0,0.0,0.0,0.0,0.0,0.0,0.0,0.0,0.0,0.0,0.0,0.0,0.0,0.0,0.0,0.0,0.0,0.0,0.0,0.0,0.0,0.0,0.0,0.0,0.0,0.0,0.0,0.0,0.0,0.0,0.0,2.4965,2.5838,0.0,0.0,0.0,0.0,0.0,0.0,0.0,0.0,2.6764,0.0,0.0,0.0,0.0,0.0,0.0,0.0,0.0,0.0,0.0,0.0,0.0,0.0,0.0,0.0,0.0,0.0,0.0,0.0,0.0,0.0,0.0,0.0,0.0,0.0,0.0,0.0,0.0,0.0,0.0,0.0,0.0,0.0,0.0,0.0,0.0,0.0,0.0,0.0,0.0,0.0,0.0,0.0,0.0,0.0,0.0,0.0,0.0,0.0,0.0,0.0,0.0,0.0,0.0,0.0,4.0361,4.2386,4.6391,5.2655,5.3315,5.3315,5.2807,4.8545,4.4838,0.0,0.0,0.0,0.0,0.0,0.0,0.0,0.0,0.0,0.0,0.0,0.0,0.0,0.0,0.0,0.0,0.0,0.0,0.0,0.0,0.0,0.0,0.0,0.0,0.0,0.0,0.0,0.0,0.0,0.0,0.0,0.0,0.0,0.0,0.0,0.0,0.0,0.0,0.0,0.0,2.6419,2.7297,2.7622,0.0,0.0,0.0,0.0,0.0,0.0,2.7542,2.7465,0.0,0.0,0.0,0.0,0.0,0.0,0.0,0.0,0.0,0.0,0.0,0.0,0.0,0.0,0.0,0.0,0.0,0.0,0.0,0.0,0.0,0.0,0.0,0.0,0.0,0.0,0.0,0.0,0.0,0.0,0.0,0.0,0.0,0.0,0.0,0.0,0.0,0.0,0.0,0.0,0.0,0.0,0.0,0.0,0.0,0.0,0.0,0.0,0.0,0.0,0.0,0.0,0.0,0.0,0.0,4.111,4.4891,4.8951,5.3281,5.3501,5.3112,5.2232,4.7684,4.3964,0.0,0.0,0.0,0.0,0.0,0.0,0.0,0.0,0.0,0.0,0.0,0.0,0.0,0.0,0.0,0.0,0.0,0.0,0.0,0.0,0.0,0.0,0.0,0.0,0.0,0.0,0.0,0.0,0.0,0.0,0.0,0.0,0.0,0.0,0.0,0.0,0.0,0.0,0.0,0.0,0.0,2.8665,2.9478,2.8905,0.0,0.0,0.0,0.0,2.8111,2.9147,0.0,0.0,0.0,0.0,0.0,0.0,0.0,0.0,0.0,0.0,0.0,0.0,0.0,0.0,0.0,0.0,0.0,0.0,0.0,0.0,0.0,0.0,0.0,0.0,0.0,0.0,0.0,0.0,0.0,0.0,0.0,0.0,0.0,0.0,0.0,0.0,0.0,0.0,0.0,0.0,0.0,0.0,0.0,0.0,0.0,0.0,0.0,0.0,0.0,0.0,0.0,0.0,0.0,0.0,0.0,0.0,4.111,4.4905,4.9,5.323,5.3501,5.3112,5.2266,4.6703,4.2882,0.0,0.0,0.0,0.0,0.0,0.0,0.0,0.0,0.0,0.0,0.0,0.0,0.0,0.0,0.0,0.0,0.0,0.0,0.0,0.0,0.0,0.0,0.0,0.0,0.0,0.0,0.0,0.0,0.0,0.0,0.0,0.0,0.0,0.0,0.0,0.0,0.0,0.0,0.0,0.0,0.0,3.0061,2.9642,2.9937,2.9581,0.0,0.0,3.0747,3.0253,3.4388,0.0,0.0,0.0,0.0,0.0,0.0,0.0,0.0,0.0,0.0,0.0,0.0,0.0,0.0,0.0,0.0,0.0,0.0,0.0,0.0,0.0,0.0,0.0,0.0,0.0,0.0,0.0,0.0,0.0,0.0,0.0,0.0,0.0,0.0,0.0,0.0,0.0,0.0,0.0,0.0,0.0,0.0,0.0,0.0,0.0,0.0,0.0,0.0,0.0,0.0,0.0,0.0,0.0,0.0,0.0,3.8841,4.1867,4.6752,5.0676,5.3365,5.3501,5.2909,5.1708,4.5892,4.207,0.0,0.0,0.0,0.0,0.0,0.0,0.0,0.0,0.0,0.0,0.0,0.0,0.0,0.0,0.0,0.0,0.0,0.0,0.0,0.0,0.0,0.0,0.0,0.0,0.0,0.0,0.0,0.0,0.0,0.0,0.0,0.0,0.0,0.0,0.0,0.0,0.0,0.0,0.0,0.0,0.0,0.0,3.033,3.1076,0.0,0.0,0.0,3.2734,3.2949,0.0,0.0,0.0,0.0,0.0,0.0,0.0,0.0,0.0,0.0,0.0,0.0,0.0,0.0,0.0,0.0,0.0,0.0,0.0,0.0,0.0,0.0,0.0,0.0,0.0,0.0,0.0,0.0,0.0,0.0,0.0,0.0,0.0,0.0,0.0,0.0,0.0,0.0,0.0,0.0,0.0,0.0,0.0,0.0,0.0,0.0,0.0,0.0,0.0,0.0,0.0,0.0,0.0,0.0,0.0,0.0,0.0,4.2354,4.8157,5.1945,5.3433,5.3501,5.2757,5.1167,4.5771,0.0,0.0,0.0,0.0,0.0,0.0,0.0,0.0,0.0,0.0,0.0,0.0,0.0,0.0,0.0,0.0,0.0,0.0,0.0,0.0,0.0,0.0,0.0,0.0,0.0,0.0,0.0,2.1814,0.0,0.0,0.0,0.0,0.0,0.0,0.0,0.0,0.0,0.0,0.0,0.0,0.0,0.0,3.2441,3.123,3.2413,3.3661,0.0,0.0,3.479,3.5244,3.801,3.8707,0.0,0.0,0.0,0.0,0.0,0.0,0.0,0.0,0.0,0.0,0.0,0.0,0.0,0.0,0.0,0.0,0.0,0.0,0.0,0.0,0.0,0.0,0.0,0.0,0.0,0.0,0.0,0.0,0.0,0.0,0.0,0.0,0.0,0.0,0.0,0.0,0.0,0.0,0.0,0.0,0.0,0.0,0.0,0.0,0.0,0.0,0.0,0.0,0.0,0.0,0.0,0.0,0.0,0.0,0.0,4.2435,4.8191,5.1961,5.3433,5.3501,5.2773,5.1167,4.6819,4.3058,0.0,0.0,0.0,0.0,0.0,0.0,0.0,0.0,0.0,0.0,0.0,0.0,0.0,0.0,0.0,0.0,0.0,0.0,0.0,0.0,0.0,0.0,0.0,0.0,0.0,0.0,0.0,0.0,0.0,0.0,0.0,0.0,0.0,0.0,0.0,0.0,0.0,0.0,0.0,0.0,0.0,3.3186,3.2466,3.4071,3.575,0.0,0.0,3.7344,3.6599,4.235,4.4106,3.5805,0.0,0.0,0.0,0.0,0.0,0.0,0.0,0.0,0.0,0.0,0.0,0.0,0.0,0.0,0.0,0.0,0.0,0.0,0.0,0.0,0.0,0.0,0.0,0.0,0.0,0.0,0.0,0.0,0.0,0.0,0.0,0.0,0.0,0.0,0.0,0.0,0.0,0.0,0.0,0.0,0.0,0.0,0.0,0.0,0.0,0.0,0.0,0.0,0.0,0.0,0.0,0.0,0.0,4.0819,4.2333,4.8191,5.1945,5.3399,5.3501,5.2757,5.1235,4.6902,4.3179,0.0,0.0,0.0,0.0,0.0,0.0,0.0,0.0,0.0,0.0,0.0,0.0,0.0,0.0,0.0,0.0,0.0,0.0,0.0,0.0,0.0,0.0,0.0,0.0,0.0,0.0,0.0,0.0,2.4936,2.5657,2.6915,0.0,0.0,0.0,0.0,0.0,0.0,0.0,0.0,0.0,0.0,3.4542,3.5661,3.7166,0.0,0.0,4.0134,4.0227,3.9544,4.1659,4.1708,3.6701,3.5761,0.0,0.0,0.0,0.0,0.0,0.0,0.0,0.0,0.0,0.0,0.0,0.0,0.0,0.0,0.0,0.0,0.0,0.0,0.0,0.0,0.0,0.0,0.0,0.0,0.0,0.0,0.0,0.0,0.0,0.0,0.0,0.0,0.0,0.0,0.0,0.0,0.0,0.0,0.0,0.0,0.0,0.0,0.0,0.0,0.0,0.0,0.0,0.0,0.0,0.0,0.0,0.0,4.0819,4.23,4.8157,5.1945,5.3484,5.3501,5.2757,5.1167,4.7564,4.4059,0.0,0.0,0.0,0.0,0.0,0.0,0.0,0.0,0.0,0.0,0.0,0.0,0.0,0.0,0.0,0.0,0.0,0.0,0.0,0.0,0.0,0.0,0.0,0.0,0.0,0.0,0.0,0.0,2.7147,2.8049,2.8625,0.0,0.0,0.0,0.0,0.0,0.0,0.0,0.0,0.0,0.0,3.647,3.7483,3.8997,4.0258,4.0863,4.1091,4.1004,4.0522,4.0724,4.0067,3.762,0.0,0.0,0.0,0.0,0.0,0.0,0.0,0.0,0.0,0.0,0.0,0.0,0.0,0.0,0.0,0.0,0.0,0.0,0.0,0.0,0.0,0.0,0.0,0.0,0.0,0.0,0.0,0.0,0.0,0.0,2.6283,0.0,0.0,0.0,0.0,0.0,0.0,0.0,0.0,0.0,0.0,0.0,0.0,0.0,0.0,0.0,0.0,0.0,0.0,0.0,0.0,0.0,0.0,4.0819,4.2333,4.8173,5.1945,5.3433,5.3501,5.2773,5.1217,4.9003,4.6061,4.23,0.0,0.0,0.0,0.0,0.0,0.0,0.0,0.0,0.0,0.0,0.0,0.0,0.0,0.0,0.0,0.0,0.0,0.0,0.0,0.0,0.0,0.0,0.0,0.0,0.0,0.0,2.5548,2.877,3.0716,0.0,0.0,0.0,0.0,0.0,0.0,0.0,0.0,0.0,0.0,3.6485,3.907,3.7308,3.9015,4.0515,4.069,3.9881,3.9113,3.8876,4.0101,4.0548,0.0,0.0,0.0,0.0,0.0,0.0,0.0,0.0,0.0,0.0,0.0,0.0,0.0,0.0,0.0,0.0,0.0,0.0,0.0,0.0,0.0,0.0,0.0,0.0,0.0,0.0,0.0,2.8681,2.9088,0.0,0.0,0.0,0.0,0.0,0.0,0.0,0.0,0.0,0.0,0.0,3.697,3.7886,0.0,0.0,0.0,0.0,0.0,0.0,0.0,0.0,0.0,0.0,0.0,0.0,4.0811,4.2503,4.8157,5.1945,5.345,5.3501,5.3003,5.1936,4.977,4.6177,4.098,0.0,0.0,0.0,0.0,0.0,0.0,0.0,0.0,0.0,0.0,0.0,0.0,0.0,0.0,0.0,0.0,0.0,0.0,0.0,0.0,0.0,0.0,0.0,0.0,0.0,2.8816,0.0,0.0,0.0,0.0,0.0,0.0,0.0,0.0,0.0,0.0,0.0,3.4153,3.4305,3.5444,3.6722,3.8022,3.9221,4.0852,0.0,0.0,0.0,0.0,0.0,0.0,0.0,0.0,0.0,0.0,0.0,0.0,0.0,0.0,3.9734,3.4778,3.5169,3.636,3.6421,0.0,0.0,0.0,0.0,0.0,0.0,0.0,0.0,0.0,0.0,0.0,0.0,0.0,0.0,3.1458,0.0,3.2382,0.0,0.0,0.0,0.0,0.0,0.0,0.0,0.0,3.765,3.9954,4.1083,4.1971,4.2151,0.0,4.0155,3.7652,0.0,0.0,0.0,0.0,0.0,0.0,0.0,0.0,4.1081,4.2503,4.8711,5.2618,5.3829,5.4123,5.3775,5.2686,4.9771,4.6138,4.1784,3.9029,3.6885,0.0,0.0,0.0,0.0,0.0,0.0,0.0,0.0,0.0,0.0,0.0,0.0,0.0,0.0,0.0,0.0,0.0,0.0,0.0,0.0,0.0,0.0,0.0,3.0945,0.0,0.0,0.0,0.0,0.0,0.0,0.0,0.0,0.0,3.3904,3.5015,3.6136,3.6802,3.751,3.8126,3.8552,0.0,0.0,0.0,0.0,0.0,0.0,0.0,3.7853,3.8459,3.9488,4.107,4.3647,4.5254,4.6155,4.6155,0.0,0.0,4.104,4.1178,4.2206,4.1937,4.0929,3.9899,3.9355,3.9058,3.9034,0.0,0.0,0.0,0.0,0.0,0.0,0.0,0.0,3.4219,3.4199,0.0,3.475,0.0,0.0,0.0,0.0,0.0,3.4484,0.0,0.0,4.339,4.5432,4.4871,4.4996,4.4948,4.475,4.3356,4.1852,4.0231,3.7437,0.0,0.0,0.0,0.0,0.0,0.0,4.1623,4.2718,4.9751,5.3875,5.4599,5.532,5.4966,5.336,4.9148,4.6174,4.4611,4.1133,3.9143,3.8916,3.5554,0.0,0.0,0.0,0.0,0.0,0.0,0.0,0.0,0.0,0.0,0.0,0.0,0.0,0.0,0.0,0.0,0.0,0.0,0.0,0.0,3.086,0.0,0.0,0.0,0.0,0.0,0.0,0.0,0.0,0.0,0.0,3.499,3.681,3.8537,3.9269,0.0,0.0,0.0,0.0,4.3563,3.9088,3.8853,3.9115,3.8596,4.1403,4.4213,4.5891,0.0,0.0,5.1366,4.8694,4.698,4.6779,5.0223,5.1699,4.919,4.7595,4.6639,4.6196,4.5075,4.3509,4.2273,4.2232,4.1857,4.2422,0.0,0.0,0.0,0.0,3.7577,3.9284,4.2247,4.129,4.0503,3.9865,3.9492,0.0,0.0,0.0,0.0,0.0,0.0,4.0578,4.362,4.6644,4.8781,5.0132,5.1809,5.171,5.0065,4.9213,4.7723,4.5669,4.4282,4.0696,3.5036,0.0,0.0,0.0,0.0,4.2896,4.6355,5.1063,5.4097,5.5344,5.561,5.498,5.3422,5.048,4.8005,4.614,4.3984,4.1647,3.9109,3.7968,0.0,0.0,0.0,0.0,0.0,0.0,0.0,0.0,0.0,0.0,0.0,0.0,0.0,0.0,0.0,0.0,0.0,0.0,0.0,3.2291,3.3571,3.3803,0.0,0.0,0.0,0.0,0.0,0.0,0.0,0.0,0.0,3.8889,3.9257,3.9602,0.0,0.0,3.8803,3.8088,4.0433,4.2777,4.4331,4.4526,0.0,4.7448,4.6767,4.6551,4.8093,5.2617,5.5869,5.5492,5.6852,5.7996,5.791,5.8955,5.9476,5.8709,5.6279,5.4384,5.4037,5.306,5.1815,5.0558,4.9993,4.971,4.9763,4.4978,4.2567,4.2024,4.276,4.277,4.4204,4.6519,4.5704,4.4875,4.4059,4.3606,4.1847,3.9106,3.807,0.0,0.0,0.0,4.4952,4.8895,5.0537,5.2454,5.4658,5.6094,5.6028,5.4639,5.3922,5.2575,5.0596,4.8979,4.5745,4.0978,0.0,0.0,3.9429,4.2343,4.5489,4.8807,5.2817,5.5299,5.6155,5.5851,5.5089,5.3888,5.1251,4.896,4.7186,4.5107,4.2843,4.0396,3.9174,3.7516,0.0,0.0,0.0,0.0,0.0,0.0,0.0,0.0,0.0,0.0,0.0,3.0929,0.0,0.0,0.0,0.0,3.3355,3.3795,3.4258,3.4562,0.0,0.0,0.0,0.0,0.0,0.0,0.0,3.5955,3.9487,4.2068,4.2179,4.2912,4.3348,4.315,4.2708,4.2332,4.2132,0.0,4.6614,4.8204,4.8504,4.9305,5.1294,5.1323,5.1825,5.4231,5.7194,5.9332,5.9503,6.1372,6.2756,6.2793,6.2755,6.2717,6.2717,6.0884,5.929,5.8966,5.8184,5.7164,5.5836,5.5233,5.4846,5.6562,5.482,5.0101,4.7902,4.7564,4.8225,4.8548,4.8597,4.8496,4.7988,4.724,4.7173,4.6327,4.4886,4.36,0.0,4.636,4.7228,4.9948,5.4072,5.4872,5.6405,5.8432,5.8612,5.8562,5.8361,5.7682,5.6524,5.4871,5.2242,5.0492,4.953,4.6004,4.4054,4.3911,4.6484,4.8741,5.0455,5.4581,5.6781,5.6953,5.6085,5.5291,5.4556,5.147,4.915,4.7749,4.4918,4.3022,4.2249,3.9639,3.8079,3.7855,0.0,0.0,0.0,0.0,0.0,0.0,0.0,0.0,0.0,0.0,0.0,0.0,0.0,0.0,0.0,3.5791,0.0,3.6017,3.4764,0.0,0.0,0.0,3.6011,3.8277,3.9525,4.0146,4.0112,0.0,0.0,4.504,4.7296,4.8894,4.8695,4.992,5.0343,4.8905,5.1431,5.3099,5.1119,5.1685,5.2357,5.3198,5.5445,5.831,6.1335,6.2768,6.2534,6.2534,6.262,6.2755,6.2768,6.2679,6.2603,6.2603,6.2261,6.198,6.1154,6.0716,6.0058,5.8621,5.7811,5.7203,6.1873,6.0486,5.981,5.7221,5.3619,5.3771,5.4143,5.46,5.3484,5.2266,5.0947,5.0389,4.9341,4.8015,4.8873,5.0161,5.1805,5.3763,5.5847,5.8033,5.9425,6.0315,6.0904,6.2081,6.1678,6.0053,6.0375,5.9465,5.7412,5.6667,5.5593,5.409,5.2042,4.9594,4.6884,4.7487,4.9397,5.2546,5.4204,5.5945,5.7653,5.6351,5.5225,5.4458,5.1313,4.8992,4.7538,4.5173,4.336,4.2214,4.1031,3.9635,3.7944,3.6118,0.0,0.0,0.0,0.0,0.0,0.0,0.0,0.0,0.0,3.2476,3.1539,0.0,3.3582,0.0,3.7441,3.9282,3.9475,3.905,0.0,0.0,3.8401,3.8986,4.0227,4.2807,4.4237,4.3501,4.6437,4.8585,4.87,5.0983,5.3135,5.4424,5.2122,5.0355,5.0577,5.3261,5.534,5.5487,5.7322,5.9233,5.9645,6.0646,6.1527,6.2482,6.2552,6.2511,6.2488,6.2488,6.2513,6.2616,6.2629,6.2603,6.2603,6.2462,6.2268,6.1957,6.1734,6.1243,5.996,5.9236,5.8628,6.5189,6.3937,6.4661,6.313,6.0152,5.8794,5.8032,5.7712,5.69,5.6114,5.5376,5.5402,5.493,5.4263,5.5099,5.631,5.7765,5.8733,6.017,6.1986,6.288,6.326,6.338,6.4559,6.4241,6.268,6.3085,6.2454,6.0868,6.043,5.9595,5.831,5.6762,5.4589,5.1835,5.0079,5.0722,5.3727,5.4588,5.5965,5.7838,5.6429,5.506,5.3849,5.0362,4.7623,4.5833,4.3228,4.1252,4.0066,3.9363,3.8351,3.6941,3.5442,3.4393,0.0,0.0,0.0,0.0,0.0,0.0,0.0,0.0,0.0,0.0,0.0,3.5846,3.6751,3.937,4.0984,4.0847,4.0787,4.0893,4.1348,4.2077,4.3108,4.4694,4.7264,4.8703,4.8182,5.0892,5.2882,5.3061,5.4988,5.6829,5.8001,5.642,5.5247,5.56,5.7185,5.8587,5.9387,6.0905,6.213,6.2579,6.2603,6.2578,6.2513,6.2436,6.242,6.242,6.2436,6.2513,6.259,6.2603,6.2603,6.259,6.2436,6.2301,6.2222,6.206,6.1576,6.0741,6.0143,5.9515,6.7679,6.6555,6.7134,6.6995,6.628,6.3433,6.1363,5.9913,5.9743,5.9647,5.9722,6.0525,6.0879,6.0915,6.1112,6.1941,6.3115,6.2801,6.3711,6.5634,6.5794,6.5868,6.5949,6.6512,6.6402,6.5618,6.5472,6.5031,6.4249,6.338,6.2499,6.1557,6.0003,5.8462,5.6861,5.3315,5.2395,5.4242,5.5144,5.6282,5.7629,5.5952,5.4226,5.2517,4.8737,4.5661,4.352,4.0464,3.8377,3.7415,3.6689,3.6285,3.6209,3.4831,3.4558,0.0,3.4406,0.0,0.0,0.0,0.0,0.0,0.0,0.0,0.0,3.8536,3.9087,4.0262,4.1595,4.2289,4.2043,4.2077,4.3042,4.5238,4.6313,4.7697,4.9872,5.1852,5.3016,5.3043,5.5383,5.7024,5.7133,5.874,5.9841,5.9983,6.0599,6.083,6.1116,6.1171,6.1615,6.2543,6.2679,6.2594,6.2578,6.2552,6.2488,6.2384,6.2318,6.2367,6.2341,6.2436,6.2552,6.2565,6.259,6.2603,6.2603,6.241,6.2252,6.2235,6.2019,6.17,6.1169,6.0656,6.0052,7.1139,7.0841,7.0402,6.9773,6.9,6.7799,6.6391,6.4825,6.3593,6.2706,6.2146,6.2285,6.2399,6.2497,6.3768,6.4467,6.4872,6.6698,6.7775,6.8229,6.8851,6.9191,6.9155,6.8678,6.8017,6.7247,6.6586,6.5852,6.5081,6.4237,6.3111,6.1606,6.0003,5.8719,5.7703,0.0,0.0,0.0,5.4876,5.5732,5.5952,5.3198,5.0912,4.9214,4.5957,0.0,4.1649,3.9305,3.7793,3.7251,3.6639,0.0,0.0,0.0,0.0,0.0,0.0,0.0,0.0,0.0,0.0,0.0,4.2939,4.2182,4.0478,4.0938,4.205,4.3692,4.4645,4.5733,4.7166,4.7783,4.8412,4.926,5.0484,5.155,5.2294,5.4366,5.5857,5.6011,5.7762,5.9069,5.9248,6.0225,6.0925,6.1125,6.1846,6.2285,6.2283,6.2398,6.2534,6.2629,6.2539,6.2462,6.2436,6.2344,6.2278,6.2212,6.2141,6.2087,6.21,6.2208,6.2318,6.241,6.2526,6.2603,6.2603,6.2552,6.2449,6.2238,6.2064,6.184,6.1372,6.0878,6.0372,7.2966,0.0,7.2242,7.1908,0.0,7.1217,7.0659,6.9755,6.6913,6.5733,6.579,6.6205,6.6421,6.6472,6.7237,6.7832,6.8247,6.9113,6.9706,7.0096,7.0513,7.0477,7.011,7.011,6.9449,6.8311,6.7871,6.7283,6.6476,6.5668,6.4861,6.398,6.2401,6.141,6.097,5.9366,5.7556,5.5563,5.6381,5.7164,5.785,5.5967,5.3959,5.194,4.916,0.0,0.0,0.0,0.0,0.0,0.0,0.0,0.0,4.2591,0.0,4.591,4.5432,4.5951,4.7968,4.74,4.7599,4.9182,4.9298,4.7955,4.4831,4.573,4.7035,4.8435,4.8953,4.9774,5.1189,5.166,5.1999,5.2363,5.37,5.4708,5.5081,5.6835,5.8205,5.8378,5.9502,6.0433,6.0573,6.133,6.1931,6.2093,6.2448,6.2679,6.2629,6.2654,6.2654,6.2513,6.2436,6.2394,6.2291,6.2238,6.2158,6.2114,6.2033,6.1992,6.2028,6.2168,6.2305,6.2384,6.2552,6.2692,6.2692,6.2654,6.2565,6.2423,6.2278,6.2105,6.1776,6.1263,6.0681,7.4492,7.3922,7.3922,7.3934,7.3937,7.3974,7.3921,7.367,0.0,0.0,0.0,6.9768,7.0183,7.0293,7.033,7.0734,7.1454,7.0844,7.0881,7.149,7.1527,7.1174,7.055,7.0903,7.0389,6.9155,6.8811,6.8348,6.7664,6.688,6.6512,6.6366,6.5044,6.4249,6.4016,6.2744,6.1006,5.8951,5.829,5.8657,5.9893,5.8902,5.7324,5.5207,5.2978,5.0775,4.86,4.7147,4.6185,4.5817,4.6415,4.6862,4.7013,4.7631,4.8555,4.9884,4.9991,5.1217,5.3895,5.2776,5.3058,5.5692,5.5053,5.3118,4.9722,5.0687,5.1807,5.2732,5.2962,5.3423,5.4239,5.4662,5.4919,5.5061,5.6436,5.7381,5.7595,5.8983,6.0007,6.0167,6.0876,6.1501,6.1628,6.2202,6.2679,6.2755,6.2718,6.2705,6.2565,6.2513,6.2402,6.2152,6.2159,6.2301,6.2212,6.2185,6.2168,6.2114,6.2087,6.206,6.21,6.2288,6.2397,6.2436,6.2629,6.2755,6.278,6.2717,6.2629,6.2603,6.2513,6.242,6.2248,6.1734,6.1161,7.6783,7.6726,7.6726,7.6329,7.5706,7.5758,7.5363,7.4522,7.1897,7.0441,6.9933,7.0031,7.0477,7.1123,7.1123,7.1564,7.2312,7.2202,7.2239,7.2312,7.2349,7.2275,7.2092,7.0881,7.0146,6.9816,6.8545,6.7811,6.7627,6.6893,6.6512,6.6402,6.5595,6.4824,6.4127,6.3882,6.3209,6.2095,5.9428,5.8107,5.829,5.6198,5.462,5.3544,5.2013,5.0508,4.9454,4.926,4.8852,4.8436,4.914,5.0604,5.2964,5.3275,5.4955,5.851,5.8884,5.9104,5.9608,5.933,5.9033,5.8758,5.8037,5.6342,5.3547,5.3437,5.3693,5.4076,5.485,5.5338,5.5671,5.6904,5.7766,5.8014,5.8851,5.941,5.9537,6.0377,6.1036,6.115,6.187,6.2446,6.251,6.2682,6.2768,6.2768,6.2717,6.2552,6.2284,6.2238,6.1947,6.1485,6.1705,6.2041,6.2172,6.2185,6.2262,6.2318,6.2341,6.2328,6.2328,6.2436,6.2552,6.2565,6.2692,6.278,6.2793,6.278,6.2717,6.2641,6.259,6.2526,6.2397,6.2158,6.1914,7.7326,7.7326,7.7326,7.7105,7.6702,7.6276,7.5909,7.5395,7.3487,7.2386,7.2055,7.2018,7.2018,7.1967,7.2422,7.2569,7.2532,7.2532,7.2532,7.2532,7.2532,7.2532,7.2459,7.1725,7.0954,7.0073,6.9389,6.8582,6.7737,6.7333,6.715,6.7113,6.6783,6.6182,6.5448,6.5424,6.4971,6.4114,6.1802,6.0603,6.0603,5.9979,5.9245,5.8425,5.8107,5.7629,5.6785,5.6729,5.6603,5.6391,5.7085,5.8079,5.9357,5.9815,6.0907,6.2753,6.2899,6.3002,6.3123,6.2255,6.1157,5.9844,5.9372,5.8654,5.7376,5.7113,5.7123,5.7265,5.7704,5.7974,5.8101,5.8818,5.9305,5.9404,6.0172,6.0673,6.0833,6.1517,6.2092,6.2192,6.2485,6.273,6.278,6.2793,6.2793,6.278,6.2692,6.2406,6.1925,6.2089,6.2156,6.1776,6.1967,6.2212,6.2278,6.2328,6.2354,6.2407,6.242,6.242,6.2433,6.25,6.259,6.2616,6.2705,6.278,6.2793,6.2793,6.2768,6.2743,6.2705,6.2667,6.2616,6.2565,6.2384,7.7472,7.7326,7.7326,7.7326,7.7252,7.6628,7.6387,7.624,7.4845,7.4236,7.4184,7.3891,7.3575,7.3377,7.3817,7.3707,7.3303,7.2936,7.2789,7.2753,7.2569,7.2532,7.2496,7.2349,7.1454,7.0183,6.9926,6.9096,6.7847,6.77,6.77,6.77,6.77,6.7297,6.6512,6.6512,6.6109,6.5251,6.404,6.3343,6.338,6.4053,6.4053,6.349,6.3943,6.4053,6.3417,6.3474,6.3533,6.357,6.421,6.4596,6.4632,6.5144,6.5473,6.5473,6.5473,6.5317,6.5018,6.3567,6.2089,6.0746,6.0587,6.0612,6.0612,6.0448,6.0163,5.9923,5.9949,6.0158,6.0246,6.0503,6.0638,6.0674,6.1237,6.1702,6.1788,6.2376,6.2793,6.2793,6.2793,6.2793,6.2793,6.2793,6.278,6.2743,6.2667,6.2311,6.1834,6.2109,6.236,6.2331,6.2344,6.2384,6.2423,6.2472,6.2449,6.2462,6.2488,6.25,6.255,6.259,6.2641,6.2667,6.2717,6.278,6.2793,6.2793,6.2793,6.278,6.278,6.278,6.278,6.2768,6.2679,7.8002,7.7362,7.7326,7.7326,7.7289,7.7215,7.7142,7.7032,7.624,7.5873,7.5726,7.4382,7.4478,7.5579,7.505,7.5102,7.5469,7.4221,7.356,7.3465,7.2826,7.2532,7.2459,7.1784,7.094,7.011,6.9449,6.8752,6.7884,6.7737,6.77,6.77,6.77,6.7333,6.6586,6.6512,6.6109,6.5325,6.5141,6.5068,6.5068,6.5141,6.5141,6.5118,6.5141,6.5141,6.5068,6.5765,6.6132,6.6192,6.6853,6.7293,6.7293,6.7367,6.7403,6.7403,6.7353,6.6776,6.5191,6.3531,6.253,6.2408,6.2261,6.2349,6.2437,6.2473,6.1738,6.0612,6.0796,6.1224,6.1323,6.1959,6.2327,6.229,6.2498,6.267,6.2633,6.2756,6.2793,6.2793,6.2793,6.2793,6.2793,6.2793,6.2755,6.2667,6.2654,6.2554,6.2331,6.2393,6.2578,6.2539,6.2475,6.2462,6.2552,6.2578,6.2616,6.2705,6.2743,6.273,6.2717,6.2767,6.2768,6.2743,6.2768,6.2793,6.2793,6.2793,6.2793,6.2793,6.2793,6.2793,6.2793,6.2793,6.273,7.8405,7.8038,7.7509,7.7326,7.7326,7.7326,7.7326,7.7215,7.6445,7.635,7.6628,7.5616,7.5249,7.5395,7.5527,7.5542,7.5322,7.4184,7.3722,7.3634,7.2863,7.2532,7.2459,7.2188,7.1578,7.0866,7.0463,6.9926,6.9169,6.8641,6.8385,6.8348,6.7958,6.7517,6.7223,6.7223,6.7026,6.6733,6.6733,6.6733,6.6659,6.6256,6.6035,6.6072,6.6476,6.6733,6.6733,6.704,6.7223,6.7223,6.7554,6.77,6.77,6.77,6.77,6.7664,6.6769,6.5972,6.526,6.367,6.2717,6.2717,6.2717,6.2743,6.2793,6.2793,6.2412,6.191,6.1996,6.2217,6.2253,6.2584,6.2793,6.2793,6.2793,6.2793,6.2793,6.2793,6.2793,6.2793,6.2793,6.2793,6.2793,6.2793,6.2768,6.273,6.2717,6.2679,6.2641,6.2679,6.2705,6.2705,6.2667,6.2654,6.2705,6.2717,6.2743,6.278,6.2793,6.2793,6.2793,6.2793,6.2793,6.2793,6.2793,6.2793,6.2793,6.2793,6.2793,6.2793,6.2793,6.2793,6.2793,6.2793,6.2793,7.8956,7.8516,7.7656,7.7326,7.7326,7.7326,7.7326,7.7252,7.6665,7.6738,7.7215,7.668,7.6114,7.5674,7.6203,7.6004,7.5197,7.4625,7.4074,7.367,7.3083,7.2716,7.2532,7.2496,7.2078,7.138,7.1013,7.0403,6.9522,6.9155,6.8825,6.8531,6.7994,6.77,6.77,6.77,6.77,6.7664,6.77,6.77,6.759,6.715,6.6843,6.688,6.7407,6.77,6.77,6.77,6.77,6.77,6.77,6.77,6.77,6.77,6.7627,6.7297,6.6072,6.5178,6.5007,6.36,6.2793,6.2793,6.2793,6.2793,6.2793,6.2793,6.2793,6.2756,6.2793,6.2793,6.2793,6.2793,6.2793,6.2793,6.2793,6.2793,6.2793,6.2793,6.2793,6.2793,6.2793,6.2793,6.2793,6.2793,6.2793,6.2793,6.2793,6.2793,6.2793,6.2793,6.2793,6.2793,6.2793,6.2793,6.2793,6.278,6.2793,6.2793,6.2793,6.2793,6.2793,6.2793,6.2793,6.2793,6.2793,6.2793,6.2793,6.2793,6.2793,6.2793,6.2793,6.2793,6.2793,6.2793,6.2793,8.0021,7.8552,7.7656,7.7326,7.7326,7.7326,7.7326,7.7326,7.7252,7.7252,7.7326,7.7215,7.7215,7.7105,7.7142,7.6775,7.613,7.5909,7.5065,7.3868,7.3648,7.323,7.2532,7.2496,7.2078,7.138,7.0697,6.9646,6.8251,6.8641,6.8495,6.7884,6.7884,6.7774,6.7774,6.7774,6.77,6.77,6.77,6.77,6.77,6.7664,6.759,6.759,6.77,6.77,6.77,6.77,6.77,6.77,6.77,6.77,6.77,6.77,6.7407,6.6659,6.5778,6.4971,6.4286,6.3356,6.2793,6.2793,6.2793,6.2793,6.2793,6.2793,6.2793,6.2793,6.2793,6.2793,6.2793,6.2793,6.2793,6.2793,6.2793,6.2793,6.2793,6.2793,6.2793,6.2793,6.2793,6.2793,6.2793,6.2793,6.2793,6.2793,6.2793,6.2793,6.2793,6.2793,6.2793,6.2793,6.2793,6.2793,6.2793,6.2793,6.2793,6.2793,6.2793,6.2793,6.2793,6.2793,6.2793,6.2793,6.2793,6.2793,6.2793,6.2793,6.2793,6.2793,6.2793,6.2793,6.2793,6.2793,6.2793,8.0057,7.8516,7.7656,7.7326,7.7326,7.7326,7.7326,7.7326,7.7326,7.7326,7.7326,7.7326,7.7326,7.7326,7.7326,7.7142,7.6848,7.635,7.5506,7.4478,7.3964,7.3281,7.2532,7.2004,7.1894,7.1931,7.127,7.0881,7.077,7.0587,7.0279,6.9963,6.9486,6.9009,6.8568,6.8458,6.8238,6.7737,6.77,6.77,6.7737,6.77,6.77,6.77,6.77,6.77,6.77,6.77,6.77,6.77,6.77,6.77,6.77,6.77,6.759,6.7173,6.6035,6.5178,6.4751,6.3563,6.2793,6.2793,6.2793,6.2793,6.2793,6.2793,6.2793,6.2793,6.2793,6.2793,6.2793,6.2793,6.2793,6.2793,6.2793,6.2793,6.2793,6.2793,6.2793,6.2793,6.2793,6.2793,6.2793,6.2793,6.2793,6.2793,6.2793,6.2793,6.2793,6.2793,6.2793,6.2793,6.2793,6.2793,6.2793,6.2793,6.2793,6.2793,6.2793,6.2793,6.2793,6.2793,6.2793,6.2793,6.2793,6.2793,6.2793,6.2793,6.2793,6.2793,6.2793,6.2793,6.2793,6.2793,6.2793,7.9653,7.8222,7.7546,7.7326,7.7326,7.7326,7.7326,7.7326,7.7326,7.7326,7.7326,7.7326,7.7326,7.7326,7.7326,7.7326,7.7215,7.646,7.5542,7.45,7.3927,7.3281,7.2532,7.1945,7.1967,7.2349,7.1982,7.1747,7.1688,7.1431,7.116,7.0844,7.033,6.9853,6.9376,6.9265,6.8972,6.8545,6.8214,6.8214,6.8398,6.8214,6.8091,6.8104,6.8104,6.7958,6.7737,6.77,6.77,6.77,6.77,6.77,6.77,6.77,6.759,6.7223,6.6035,6.5141,6.4824,6.3563,6.2793,6.2793,6.2793,6.2793,6.2793,6.2793,6.2793,6.2793,6.2793,6.2793,6.2793,6.2793,6.2793,6.2793,6.2793,6.2793,6.2793,6.2793,6.2793,6.2793,6.2793,6.2793,6.2793,6.2793,6.2793,6.2793,6.2793,6.2793,6.2793,6.2793,6.2793,6.2793,6.2793,6.2793,6.2793,6.2793,6.2793,6.2793,6.2793,6.2793,6.2793,6.2793,6.2793,6.2793,6.2793,6.2793,6.2793,6.2793,6.2793,6.2793,6.2793,6.2793,6.2793,6.2793,6.2793,7.8846,7.7509,7.7326,7.7326,7.7326,7.7326,7.7326,7.7326,7.7326,7.7326,7.7326,7.7326,7.7326,7.7326,7.7326,7.7326,7.7142,7.6481,7.5322,7.4001,7.3758,7.3266,7.2496,7.2349,7.2275,7.2386,7.2445,7.1688,7.0624,7.1138,7.1087,7.0403,7.0403,7.033,7.011,7.011,7.0073,6.9779,6.9229,6.9265,6.9889,6.9302,6.8921,6.8935,6.8935,6.8605,6.7847,6.7737,6.7737,6.7774,6.77,6.77,6.77,6.77,6.7357,6.6696,6.5815,6.4971,6.4249,6.3392,6.2793,6.2793,6.2793,6.2793,6.2793,6.2793,6.2793,6.2793,6.2793,6.2793,6.2793,6.2793,6.2793,6.2793,6.2793,6.2793,6.2793,6.2793,6.2793,6.2793,6.2793,6.2793,6.2793,6.2793,6.2793,6.2793,6.2793,6.2793,6.2793,6.2793,6.2793,6.2793,6.2793,6.2793,6.2793,6.2793,6.2793,6.2793,6.2793,6.2793,6.2793,6.2793,6.2793,6.2793,6.2793,6.2793,6.2793,6.2793,6.2793,6.2793,6.2793,6.2793,6.2793,6.2793,6.2793,7.8662,7.8148,7.7546,7.7326,7.7326,7.7326,7.7326,7.7326,7.7326,7.7326,7.7326,7.7326,7.7326,7.7326,7.7326,7.7326,7.7252,7.6445,7.5542,7.4588,7.3964,7.3303,7.2569,7.1967,7.1674,7.1784,7.2275,7.2275,7.1872,7.2018,7.1931,7.1798,7.1725,7.1431,7.0954,7.0903,7.0697,7.011,6.9853,6.9889,7.0073,6.9853,6.9743,6.9743,6.9743,6.9596,6.9316,6.8325,6.7994,6.8458,6.7994,6.77,6.77,6.77,6.759,6.7247,6.6035,6.5251,6.4824,6.3637,6.2793,6.2793,6.2793,6.2793,6.2793,6.2793,6.2793,6.2793,6.2793,6.2793,6.2793,6.2793,6.2793,6.2793,6.2793,6.2793,6.2793,6.2793,6.2793,6.2793,6.2793,6.2793,6.2793,6.2793,6.2793,6.2793,6.2793,6.2793,6.2793,6.2793,6.2793,6.2793,6.2793,6.2793,6.2793,6.2793,6.2793,6.2793,6.2793,6.2793,6.2793,6.2793,6.2793,6.2793,6.2793,6.2793,6.2793,6.2793,6.2793,6.2793,6.2793,6.2793,6.2793,6.2793,6.2793,7.9083,7.8735,7.8004,7.7666,7.7607,7.7441,7.7326,7.7326,7.7326,7.7326,7.7326,7.7326,7.7326,7.7326,7.7326,7.7326,7.7215,7.646,7.5836,7.527,7.4515,7.3854,7.3377,7.2885,7.2445,7.2371,7.301,7.323,7.2936,7.2936,7.2936,7.2936,7.2679,7.2275,7.1784,7.1747,7.1454,7.1027,7.0697,7.0697,7.0881,7.0697,7.055,7.055,7.055,7.055,7.044,6.9265,6.8678,6.8752,6.8141,6.77,6.77,6.77,6.77,6.7407,6.6292,6.5288,6.5141,6.371,6.2793,6.2793,6.2793,6.2793,6.2793,6.2793,6.2793,6.2793,6.2793,6.2793,6.2793,6.2793,6.2793,6.2793,6.2793,6.2793,6.2793,6.2793,6.2793,6.2793,6.2793,6.2793,6.2793,6.2793,6.2793,6.2793,6.2793,6.2793,6.2793,6.2793,6.2793,6.2793,6.2793,6.2793,6.2793,6.2793,6.2793,6.2793,6.2793,6.2793,6.2793,6.2793,6.2793,6.2793,6.2793,6.2793,6.2793,6.2793,6.2793,6.2793,6.2793,6.2793,6.2793,6.2793,6.2793,7.988,7.9166,7.8549,7.8255,7.8146,7.7585,7.7326,7.7326,7.7326,7.7326,7.7326,7.7326,7.7326,7.7326,7.7326,7.7326,7.7179,7.6628,7.6276,7.6019,7.5469,7.4977,7.461,7.45,7.4133,7.3854,7.4404,7.4404,7.378,7.378,7.3751,7.3683,7.3008,7.261,7.2655,7.2602,7.2621,7.2466,7.1955,7.2093,7.2521,7.1913,7.1475,7.1512,7.1498,7.1456,7.1248,7.0403,6.9633,6.8995,6.8274,6.7884,6.7811,6.7737,6.77,6.7664,6.6219,6.5595,6.5068,6.3967,6.3013,6.3013,6.2866,6.2793,6.2793,6.2793,6.2793,6.2793,6.2793,6.2793,6.2793,6.2793,6.2793,6.2793,6.2793,6.2793,6.2793,6.2793,6.2793,6.2793,6.2793,6.2793,6.2793,6.2793,6.2793,6.2793,6.2793,6.2793,6.2793,6.2793,6.2793,6.2793,6.2793,6.2793,6.2793,6.2793,6.2793,6.2793,6.2793,6.2793,6.2793,6.2793,6.2793,6.2793,6.2793,6.2793,6.2793,6.2793,6.2793,6.2793,6.2793,6.2793,6.2793,6.2793,6.2793,7.9387,7.9128,7.8562,7.8309,7.82,7.7563,7.7326,7.7326,7.7326,7.7326,7.7289,7.7326,7.732,7.7289,7.7289,7.7326,7.7215,7.7099,7.6995,7.6959,7.6812,7.5931,7.5087,7.4903,7.4845,7.4691,7.4956,7.4793,7.4573,7.4691,7.4591,7.4367,7.3822,7.3589,7.3789,7.3999,7.3964,7.3946,7.4279,7.4056,7.3758,7.3571,7.3279,7.2864,7.2811,7.257,7.209,7.0844,7.0036,6.9779,6.9009,6.8605,6.8458,6.7994,6.77,6.7517,6.6806,6.6182,6.5852,6.4677,6.3833,6.3686,6.316,6.2793,6.2793,6.2793,6.2793,6.2793,6.2793,6.2793,6.2793,6.2793,6.2793,6.2793,6.2793,6.2793,6.2793,6.2793,6.2793,6.2793,6.2793,6.2793,6.2793,6.2793,6.2793,6.2793,6.2793,6.2793,6.2793,6.2793,6.2793,6.2793,6.2793,6.2793,6.2793,6.2793,6.2793,6.2793,6.2793,6.2793,6.2793,6.2793,6.2793,6.2793,6.2793,6.2793,6.2793,6.2793,6.2793,6.2793,6.2793,6.2793,6.2793,6.2793,6.2793,8.0007,7.9936,7.9034,7.8678,7.8538,7.7695,7.7326,7.7326,7.7326,7.7326,7.735,7.7592,7.757,7.7372,7.7599,7.754,7.735,7.7614,7.7687,7.776,7.7984,7.7436,7.6525,7.6096,7.589,7.5891,7.6187,7.6127,7.5953,7.605,7.6101,7.5982,7.5318,7.5159,7.5351,7.5429,7.5472,7.5381,7.5496,7.5221,7.4832,7.4444,7.4139,7.3747,7.3541,7.3106,7.2426,7.1578,7.0734,6.9706,6.8825,6.8385,6.8385,6.7994,6.77,6.7664,6.6953,6.6476,6.6292,6.5301,6.4494,6.4127,6.3576,6.3209,6.2903,6.2793,6.2793,6.2793,6.2793,6.2793,6.2793,6.2793,6.2793,6.2793,6.2793,6.2793,6.2793,6.2793,6.2793,6.2793,6.2793,6.2793,6.2793,6.2793,6.2793,6.2793,6.2793,6.2793,6.2793,6.2793,6.2793,6.2793,6.2793,6.2793,6.2793,6.2793,6.2793,6.2793,6.2793,6.2793,6.2793,6.2793,6.2793,6.2793,6.2793,6.2793,6.2793,6.2793,6.2793,6.2793,6.2793,6.2793,6.2793,6.2793,6.2793,8.1093,8.1021,7.9796,7.929,7.9117,7.8049,7.7636,7.7555,7.7622,7.7607,7.7739,7.8173,7.8118,7.7555,7.8187,7.8077,7.7592,7.8173,7.8325,7.8536,7.8779,7.869,7.8313,7.7659,7.7413,7.7407,7.8056,7.7832,7.7526,7.7811,7.7991,7.7685,7.7119,7.6965,7.6893,7.6987,7.7009,7.6828,7.6597,7.6341,7.6028,7.5514,7.5091,7.4622,7.3879,7.329,7.2807,7.2313,7.1448,6.9288,6.8458,6.8361,6.8214,6.7994,6.7774,6.7627,6.71,6.6733,6.6549,6.5925,6.5191,6.4653,6.4286,6.3796,6.3196,6.2939,6.2793,6.2793,6.2793,6.2793,6.2793,6.2793,6.2793,6.2793,6.2793,6.2793,6.2793,6.2793,6.2793,6.2793,6.2793,6.2793,6.2793,6.2793,6.2793,6.2793,6.2793,6.2793,6.2793,6.2793,6.2793,6.2793,6.2793,6.2793,6.2793,6.2793,6.2793,6.2793,6.2793,6.2793,6.2793,6.2793,6.2793,6.2793,6.2793,6.2793,6.2793,6.2793,6.2793,6.2793,6.2793,6.2793,6.2793,6.2793,6.2793,8.1093,8.1053,8.0259,7.9908,7.9806,7.9128,7.8766,7.8741,7.8754,7.8666,7.8803,7.8938,7.8889,7.8741,7.8889,7.8901,7.8704,7.8901,7.8998,7.9022,7.9105,7.9458,7.9469,7.9069,7.8777,7.8746,7.8885,7.8885,7.8818,7.8829,7.8863,7.8669,7.8293,7.7911,7.8176,7.8361,7.835,7.8263,7.8497,7.8292,7.7786,7.7471,7.6817,7.5903,7.4703,7.3843,7.3179,7.2579,7.1799,7.0997,7.0536,7.0073,6.9449,6.8935,6.8385,6.7884,6.7627,6.7444,6.7297,6.6696,6.6182,6.5815,6.4861,6.4016,6.3833,6.316,6.2866,6.2793,6.2793,6.2793,6.2793,6.2793,6.2793,6.2793,6.2793,6.2793,6.2793,6.2793,6.2793,6.2793,6.2793,6.2793,6.2793,6.2793,6.2793,6.2793,6.2793,6.2793,6.2793,6.2793,6.2793,6.2793,6.2793,6.2793,6.2793,6.2793,6.2793,6.2793,6.2793,6.2793,6.2793,6.2793,6.2793,6.2793,6.2793,6.2793,6.2793,6.2793,6.2793,6.2793,6.2793,6.2793,6.2793,6.2793,6.2793,8.1093,8.1007,8.037,8.0115,7.9998,7.9469,7.9198,7.9198,7.9198,7.9198,7.9279,7.9469,7.9469,7.9244,7.9469,7.9491,7.9324,7.9524,7.9806,8.0027,8.0143,8.0277,8.0445,8.0249,7.9987,7.9685,7.961,7.961,7.9663,7.9908,8.0067,7.9943,7.9581,7.9642,7.9676,7.9829,7.9846,7.9707,7.9708,7.9554,7.9169,7.8669,7.7828,7.6517,7.5254,7.4299,7.3417,7.3019,7.2497,7.2046,7.1835,7.1321,7.0307,6.9706,6.9082,6.8421,6.8274,6.8031,6.7664,6.7333,6.688,6.6512,6.5632,6.491,6.431,6.3613,6.3209,6.2903,6.2793,6.2793,6.2793,6.2793,6.2793,6.2793,6.2829,6.2829,6.2829,6.2793,6.2793,6.2793,6.2793,6.2793,6.2793,6.2793,6.2793,6.2793,6.2793,6.2793,6.2793,6.2793,6.2793,6.2793,6.2793,6.2793,6.2793,6.2793,6.2793,6.2793,6.2793,6.2793,6.2793,6.2793,6.2793,6.2793,6.2793,6.2793,6.2793,6.2793,6.2793,6.2793,6.2793,6.2793,6.2793,6.2793,6.2793,8.1093,8.1069,8.049,8.023,8.0163,7.9754,7.9556,7.9524,7.948,7.9659,7.9567,8.0028,7.9998,7.9744,8.0056,7.9908,7.9796,7.9979,8.049,8.0838,8.0863,8.0896,8.0975,8.088,8.0707,8.0258,8.0277,8.0277,8.0427,8.0758,8.0833,8.0984,8.1031,8.0791,8.0954,8.1054,8.0869,8.0739,8.0362,8.0131,7.9977,7.9361,7.8412,7.6999,7.5797,7.4808,7.4056,7.367,7.3355,7.2728,7.263,7.1894,7.0997,7.0284,6.9926,6.9142,6.8935,6.8531,6.8068,6.7737,6.737,6.6709,6.6476,6.5902,6.4861,6.4383,6.4016,6.36,6.3417,6.3417,6.3196,6.3417,6.3343,6.3306,6.3233,6.316,6.316,6.316,6.327,6.2793,6.2793,6.2793,6.2793,6.2793,6.2793,6.2829,6.2866,6.2866,6.2903,6.2866,6.2903,6.2829,6.2793,6.2793,6.2793,6.2903,6.2903,6.2976,6.2939,6.2939,6.2903,6.2793,6.2793,6.2793,6.2793,6.2793,6.2793,6.2793,6.2793,6.2793,6.2793,6.2793,6.2793,6.2793,6.2793,8.1093,8.1085,8.0975,8.0904,8.0896,8.0813,8.0707,8.0805,8.069,8.0758,8.0741,8.0863,8.083,8.075,8.083,8.0838,8.0643,8.0767,8.0904,8.1085,8.1093,8.1093,8.1093,8.1085,8.0991,8.0983,8.088,8.0847,8.0871,8.1061,8.1093,8.1093,8.1093,8.1093,8.1093,8.1093,8.1093,8.1093,8.0823,8.0746,8.0669,8.0354,7.9638,7.8044,7.6693,7.557,7.499,7.4759,7.4363,7.3404,7.3251,7.309,7.2591,7.175,7.0891,7.0142,6.9512,6.9158,6.8703,6.8081,6.7737,6.737,6.6979,6.6562,6.5975,6.5448,6.4984,6.4811,6.4701,6.4774,6.4884,6.4628,6.4811,6.4811,6.4701,6.4701,6.4701,6.4591,6.415,6.338,6.3086,6.3013,6.3233,6.3343,6.338,6.3453,6.3453,6.338,6.338,6.3233,6.3086,6.2976,6.2793,6.2793,6.2793,6.2939,6.305,6.3233,6.327,6.327,6.316,6.2903,6.2829,6.327,6.3086,6.2793,6.2793,6.2829,6.2793,6.2793,6.2793,6.2829,6.2793,6.2793,6.2793,8.1093,8.1093,8.1093,8.1093,8.1093,8.1093,8.1093,8.1093,8.1093,8.1093,8.1093,8.1093,8.1093,8.1093,8.1093,8.1093,8.1093,8.1093,8.1093,8.1093,8.1093,8.1093,8.1093,8.1093,8.1093,8.1085,8.1085,8.1093,8.1093,8.1085,8.1093,8.1093,8.1093,8.1093,8.1093,8.1093,8.1093,8.1093,8.1093,8.1093,8.1016,8.0746,7.9862,7.9015,7.7608,7.6453,7.5818,7.5252,7.474,7.406,7.3865,7.3865,7.3658,7.3252,7.2448,7.164,7.0932,7.0134,6.9475,6.8715,6.8205,6.7807,6.7416,6.7035,6.6667,6.6213,6.5856,6.5461,6.5325,6.5325,6.5251,6.5375,6.5325,6.5325,6.5375,6.5375,6.5338,6.5375,6.4861,6.4249,6.4323,6.436,6.4261,6.4261,6.415,6.4077,6.4053,6.398,6.3943,6.3857,6.3747,6.382,6.3783,6.3747,6.371,6.371,6.3673,6.3747,6.3783,6.3783,6.3894,6.382,6.4004,6.4334,6.3894,6.316,6.2866,6.2866,6.2829,6.2866,6.2939,6.3013,6.2866,6.2793,6.2976,8.1093,8.1093,8.1093,8.1093,8.1093,8.1093,8.1093,8.1093,8.1093,8.1093,8.1093,8.1093,8.1093,8.1093,8.1093,8.1093,8.1093,8.1093,8.1093,8.1093,8.1093,8.1093,8.1093,8.1093,8.1093,8.1093,8.1093,8.1093,8.1093,8.1093,8.1093,8.1093,8.1093,8.1093,8.1093,8.1093,8.1093,8.1093,8.1093,8.1093,8.09,8.0285,7.9815,7.9662,7.8169,7.7016,7.6522,7.5761,7.5121,7.4649,7.4474,7.4474,7.4464,7.4464,7.4186,7.3608,7.2876,7.1617,7.0556,6.9595,6.9001,6.8309,6.8134,6.7702,6.7316,6.7045,6.6734,6.6029,6.5943,6.6029,6.6165,6.598,6.598,6.598,6.6003,6.5904,6.6053,6.614,6.6226,6.5919,6.5843,6.5549,6.5232,6.4974,6.4816,6.4854,6.4817,6.4803,6.4754,6.4824,6.4811,6.4958,6.4995,6.4995,6.4921,6.4811,6.4738,6.4664,6.4701,6.4701,6.4884,6.5031,6.5141,6.5031,6.4517,6.382,6.3417,6.3306,6.3673,6.382,6.3453,6.3453,6.3747,6.382,6.3857,8.1093,8.1093,8.1093,8.1093,8.1093,8.1093,8.1093,8.1093,8.1093,8.1093,8.1093,8.1093,8.1093,8.1093,8.1093,8.1093,8.1093,8.1093,8.1093,8.1093,8.1093,8.1093,8.1093,8.1093,8.1093,8.1093,8.1093,8.1093,8.1093,8.1093,8.1093,8.1093,8.1093,8.1093,8.1093,8.1093,8.1093,8.1093,8.1093,8.1093,8.0977,8.0323,7.9969,7.9469,7.8354,7.737,7.7116,7.6317,7.5535,7.5091,7.5017,7.5017,7.5017,7.5017,7.5306,7.4983,7.4058,7.251,7.1643,7.0798,7.002,6.9259,6.8941,6.8581,6.8159,6.7875,6.7712,6.786,6.7649,6.7513,6.739,6.76,6.7699,6.7537,6.7276,6.7412,6.7487,6.6968,6.7042,6.7178,6.6994,6.6415,6.5937,6.5703,6.5482,6.5557,6.5606,6.5617,6.5713,6.5833,6.5815,6.5925,6.5962,6.5962,6.5999,6.5925,6.5815,6.5655,6.5655,6.5655,6.5815,6.5925,6.5582,6.5398,6.5007,6.4971,6.4971,6.4958,6.4995,6.4738,6.4371,6.4628,6.5031,6.4958,6.4664,8.1093,8.1093,8.1093,8.1093,8.1093,8.1093,8.1093,8.1093,8.1093,8.1093,8.1093,8.1093,8.1093,8.1093,8.1093,8.1093,8.1093,8.1093,8.1093,8.1093,8.1093,8.1093,8.1093,8.1093,8.1093,8.1093,8.1093,8.1093,8.1093,8.1093,8.1093,8.1093,8.1093,8.1093,8.1093,8.1093,8.1093,8.1093,8.1093,8.1093,8.1016,8.0746,8.0508,8.0431,7.883,7.8099,7.7638,7.663,7.5955,7.5608,7.56,7.5638,7.56,7.5608,7.5741,7.581,7.5261,7.4223,7.308,7.1963,7.1175,7.0615,7.01,6.9458,6.8817,6.8383,6.8209,6.8197,6.8121,6.8108,6.8108,6.8083,6.8083,6.807,6.807,6.807,6.8095,6.8044,6.7871,6.802,6.8058,6.7381,6.6912,6.6863,6.6776,6.6826,6.69,6.6923,6.7019,6.7102,6.6998,6.6843,6.688,6.6843,6.6916,6.6916,6.688,6.6806,6.6806,6.6806,6.6806,6.6733,6.6402,6.6476,6.6586,6.6549,6.6512,6.5999,6.5472,6.5362,6.5288,6.5508,6.5655,6.5362,6.5141,8.1093,8.1093,8.1093,8.1093,8.1093,8.1093,8.1093,8.1093,8.1093,8.1093,8.1093,8.1093,8.1093,8.1093,8.1093,8.1093,8.1093,8.1093,8.1093,8.1093,8.1093,8.1093,8.1093,8.1093,8.1093,8.1093,8.1093,8.1093,8.1093,8.1093,8.1093,8.1093,8.1093,8.1093,8.1093,8.1093,8.1093,8.1093,8.1093,8.1093,8.1093,8.1093,8.0862,8.0323,7.9438,7.8407,7.8023,7.6823,7.6007,7.5954,7.5939,7.5917,7.5924,7.5917,7.5932,7.5892,7.548,7.5126,7.4223,7.3406,7.2576,7.1955,7.1193,7.0143,6.9451,6.887,6.8456,6.8468,6.8432,6.8321,6.8284,6.8309,6.8383,6.8334,6.8259,6.8234,6.8197,6.8184,6.8234,6.8271,6.8296,6.8296,6.7988,6.8074,6.8086,6.811,6.8196,6.8145,6.8031,6.7917,6.7689,6.7373,6.7347,6.7347,6.7407,6.7554,6.7664,6.77,6.77,6.7627,6.7407,6.7407,6.7297,6.7517,6.77,6.7517,6.7113,6.6439,6.5925,6.6182,6.6366,6.6182,6.6072,6.5852,6.5705,8.1093,8.1093,8.1093,8.1093,8.1093,8.1093,8.1093,8.1093,8.1093,8.1093,8.1093,8.1093,8.1093,8.1093,8.1093,8.1093,8.1093,8.1093,8.1093,8.1093,8.1093,8.1093,8.1093,8.1093,8.1093,8.1093,8.1093,8.1093,8.1093,8.1093,8.1093,8.1093,8.1093,8.1093,8.1093,8.1093,8.1093,8.1093,8.1093,8.1093,8.1093,8.1016,8.0785,7.9977,7.9061,7.8176,7.7445,7.6553,7.613,7.613,7.6053,7.5976,7.5976,7.5976,7.5976,7.5899,7.5515,7.534,7.5111,7.4612,7.3967,7.2949,7.1949,7.1045,7.0503,6.9513,6.9024,6.8912,6.8868,6.8744,6.8768,6.8814,6.8709,6.865,6.8566,6.8542,6.8493,6.8408,6.842,6.8457,6.8469,6.8457,6.8432,6.8396,6.8371,6.8346,6.8309,6.8271,6.8107,6.798,6.7876,6.7697,6.7694,6.7667,6.7654,6.7741,6.7767,6.7741,6.7727,6.7714,6.7627,6.77,6.77,6.77,6.77,6.77,6.7664,6.715,6.6916,6.7333,6.7407,6.699,6.688,6.6843,6.6659,8.1093,8.1093,8.1093,8.1093,8.1093,8.1093,8.1093,8.1093,8.1093,8.1093,8.1093,8.1093,8.1093,8.1093,8.1093,8.1093,8.1093,8.1093,8.1093,8.1093,8.1093,8.1093,8.1093,8.1093,8.1093,8.1093,8.1093,8.1093,8.1093,8.1093,8.1093,8.1093,8.1093,8.1093,8.1093,8.1093,8.1093,8.1093,8.1093,8.1093,8.1093,8.1093,8.0939,8.0592,7.9092,7.8792,7.8515,7.6899,7.6592,7.6515,7.6284,7.613,7.5976,7.5976,7.5976,7.5976,7.5592,7.5668,7.5745,7.5231,7.4443,7.3954,7.3105,7.2373,7.1711,7.0642,7.0051,6.9769,6.9305,6.9132,6.8884,6.891,6.8875,6.8838,6.8826,6.8779,6.8721,6.8626,6.8602,6.8638,6.8626,6.8602,6.8566,6.853,6.8506,6.8506,6.8432,6.8358,6.8208,6.8094,6.8004,6.7939,6.7899,6.7899,6.7863,6.7873,6.7834,6.7794,6.7754,6.7727,6.7714,6.77,6.77,6.77,6.77,6.77,6.77,6.77,6.77,6.7664,6.7664,6.759,6.7627,6.77,6.7444,8.1093,8.1093,8.1093,8.1093,8.1093,8.1093,8.1093,8.1093,8.1093,8.1093,8.1093,8.1093,8.1093,8.1093,8.1093,8.1093,8.1093,8.1093,8.1093,8.1093,8.1093,8.1093,8.1093,8.1093,8.1093,8.1093,8.1093,8.1093,8.1093,8.1093,8.1093,8.1093,8.1093,8.1093,8.1093,8.1093,8.1093,8.1093,8.1093,8.1093,8.1093,8.1093,8.0823,8.0592,7.9438,7.8977,7.8823,7.7707,7.7092,7.6976,7.6746,7.6322,7.613,7.5976,7.5976,7.5976,7.5976,7.5976,7.5822,7.5509,7.4965,7.4684,7.4094,7.3488,7.2783,7.1796,7.1092,7.046,6.9912,6.9411,6.9203,6.9087,6.9065,6.9054,6.8952,6.8907,6.8884,6.8826,6.8814,6.8863,6.8828,6.8744,6.8721,6.8685,6.859,6.8542,6.8469,6.8396,6.8284,6.8208,6.817,6.807,6.8031,6.8044,6.807,6.7993,6.7952,6.786,6.782,6.7754,6.7727,6.7714,6.77,6.77,6.77,6.77,6.77,6.77,6.77,6.77,6.77,6.77,6.77,6.77,6.77,8.1093,8.1093,8.1093,8.1093,8.1093,8.1093,8.1093,8.1093,8.1093,8.1093,8.1093,8.1093,8.1093,8.1093,8.1093,8.1093,8.1093,8.1093,8.1093,8.1093,8.1093,8.1093,8.1093,8.1093,8.1093,8.1093,8.1093,8.1093,8.1093,8.1093,8.1093,8.1093,8.1093,8.1093,8.1093,8.1093,8.1093,8.1093,8.1093,8.1093,8.1093,8.1093,8.0746,8.0323,7.9823,7.94,7.9131,7.8477,7.7869,7.7484,7.7253,7.6707,7.6092,7.6015,7.5976,7.5976,7.5976,7.5976,7.5976,7.5864,7.5672,7.5408,7.4724,7.4196,7.3707,7.2887,7.2029,7.1467,7.0774,7.0221,6.9819,6.939,6.9305,6.9214,6.9116,6.9083,6.9109,6.9098,6.9098,6.9076,6.9001,6.891,6.891,6.8863,6.8709,6.8626,6.8567,6.8445,6.8371,6.8321,6.8296,6.8284,6.8197,6.8197,6.8197,6.8121,6.8044,6.7978,6.7873,6.7807,6.7741,6.7714,6.77,6.77,6.77,6.77,6.77,6.77,6.77,6.77,6.77,6.77,6.77,6.77,6.77,8.1093,8.1093,8.1093,8.1093,8.1093,8.1093,8.1093,8.1093,8.1093,8.1093,8.1093,8.1093,8.1093,8.1093,8.1093,8.1093,8.1093,8.1093,8.1093,8.1093,8.1093,8.1093,8.1093,8.1093,8.1093,8.1093,8.1093,8.1093,8.1093,8.1093,8.1093,8.1093,8.1093,8.1093,8.1093,8.1093,8.1093,8.1093,8.1093,8.1093,8.1093,8.1054,8.0939,8.0592,8.0131,7.99,7.9939,7.9254,7.8523,7.8023,7.7715,7.6945,7.6207,7.5976,7.5976,7.5976,7.5976,7.5976,7.5976,7.5939,7.5872,7.5585,7.5323,7.4884,7.4694,7.3925,7.3241,7.2515,7.165,7.103,7.0445,6.98,6.956,6.9484,6.9443,6.9432,6.9432,6.9422,6.9411,6.9369,6.9284,6.9065,6.8975,6.8986,6.8907,6.8791,6.8709,6.8626,6.8554,6.8481,6.8432,6.8432,6.8408,6.8383,6.8358,6.8259,6.8121,6.8018,6.7939,6.7834,6.7781,6.7714,6.77,6.77,6.77,6.77,6.77,6.77,6.77,6.77,6.77,6.77,6.77,6.77,6.77,8.0823,8.1093,8.1093,8.1093,8.1093,8.1093,8.1093,8.1093,8.1093,8.1093,8.1093,8.1093,8.1093,8.1093,8.1093,8.1093,8.1093,8.1093,8.1093,8.1093,8.1093,8.1093,8.1093,8.1093,8.1093,8.1093,8.1093,8.1093,8.1093,8.1093,8.1093,8.1093,8.1093,8.1093,8.1093,8.1093,8.1093,8.1093,8.1093,8.1093,8.1093,8.1093,8.1093,8.09,8.0669,8.0477,8.0592,8.0054,7.9054,7.86,7.7946,7.7138,7.6399,7.5976,7.5976,7.5976,7.5976,7.5976,7.5976,7.5976,7.5894,7.5708,7.5625,7.5489,7.5279,7.4684,7.4125,7.3441,7.2566,7.1956,7.1335,7.0614,7.0148,7.0063,6.9758,6.9748,6.9587,6.9556,6.9556,6.9526,6.9495,6.9273,6.9109,6.9109,6.9098,6.8998,6.8895,6.8814,6.8721,6.8614,6.8518,6.8493,6.8481,6.8457,6.8408,6.8346,6.8234,6.8095,6.7967,6.786,6.7767,6.77,6.77,6.77,6.77,6.77,6.77,6.77,6.77,6.77,6.77,6.77,6.77,6.77,6.77,8.0246,8.0977,8.1016,8.0977,8.1016,8.1054,8.1093,8.1093,8.1093,8.1093,8.1093,8.1093,8.1093,8.1093,8.1093,8.1093,8.1093,8.1093,8.1093,8.1093,8.1093,8.1093,8.1093,8.1093,8.1093,8.1093,8.1093,8.1093,8.1093,8.1093,8.1093,8.1093,8.1093,8.1093,8.1093,8.1093,8.1093,8.1093,8.1093,8.1093,8.1093,8.1093,8.1093,8.1016,8.0977,8.0939,8.0977,8.0746,7.9823,7.91,7.8407,7.7407,7.6592,7.6015,7.5976,7.5976,7.5976,7.5976,7.5976,7.5976,7.591,7.5786,7.5692,7.5536,7.5351,7.5138,7.4769,7.4267,7.3545,7.307,7.2518,7.1747,7.0987,7.0644,7.0169,6.996,6.9713,6.9627,6.9627,6.9617,6.9607,6.9495,6.9353,6.9321,6.9305,6.9241,6.9142,6.8971,6.8895,6.8697,6.8602,6.8531,6.8481,6.8481,6.8432,6.8346,6.8221,6.8044,6.7954,6.7873,6.7781,6.77,6.77,6.77,6.77,6.77,6.77,6.77,6.77,6.77,6.77,6.77,6.77,6.77,6.77,7.9023,7.9254,7.9254,7.9592,8.0246,8.0862,8.1093,8.1093,8.1093,8.1093,8.1093,8.1093,8.1093,8.1093,8.1093,8.1093,8.1093,8.1093,8.1093,8.1093,8.1093,8.1093,8.1093,8.1093,8.1093,8.1093,8.1093,8.1093,8.1093,8.1093,8.1093,8.1093,8.1093,8.1093,8.1093,8.1093,8.1093,8.1093,8.1093,8.1093,8.1093,8.1093,8.1093,8.1093,8.1093,8.1093,8.1093,8.1093,8.0169,7.8946,7.8561,7.7676,7.6207,7.5976,7.5976,7.5976,7.5976,7.5976,7.5976,7.5976,7.5924,7.5864,7.5771,7.5633,7.5497,7.5371,7.5221,7.4806,7.436,7.3811,7.3374,7.2728,7.2016,7.1465,7.0962,7.045,7.0165,6.9843,6.9843,6.9805,6.9786,6.9717,6.959,6.9556,6.9505,6.9464,6.9369,6.9181,6.9005,6.8849,6.8711,6.8603,6.8457,6.8432,6.8371,6.8296,6.8158,6.803,6.7939,6.781,6.7754,6.77,6.77,6.77,6.77,6.77,6.77,6.77,6.77,6.77,6.77,6.77,6.77,6.77,6.77,7.8215,7.8484,7.8484,7.883,7.9438,8.0554,8.0939,8.0708,8.0939,8.1093,8.1093,8.1093,8.1093,8.1093,8.1093,8.1093,8.1093,8.1093,8.1093,8.1093,8.1093,8.1093,8.1093,8.1093,8.1093,8.1093,8.1093,8.1093,8.1093,8.1093,8.1093,8.1093,8.1093,8.1093,8.1093,8.1093,8.1093,8.1093,8.1093,8.1093,8.1093,8.1093,8.1093,8.1093,8.1093,8.1093,8.1093,8.1093,8.0285,7.91,7.883,7.7907,7.6592,7.6284,7.6015,7.5976,7.5976,7.5976,7.5976,7.5976,7.597,7.591,7.5848,7.5699,7.5583,7.548,7.5398,7.523,7.4842,7.4492,7.4103,7.3714,7.3059,7.2433,7.1759,7.1094,7.0649,7.0212,7.0089,7.0004,6.9957,6.9854,6.9787,6.9756,6.9677,6.9607,6.9447,6.9289,6.9105,6.8941,6.8768,6.8663,6.8481,6.8371,6.8296,6.8208,6.8081,6.7952,6.786,6.7781,6.7714,6.77,6.77,6.77,6.77,6.77,6.77,6.77,6.77,6.77,6.77,6.77,6.77,6.77,6.77,7.7599,7.8253,7.8407,7.8369,7.8638,8.0092,8.04,7.9939,8.0631,8.1016,8.1054,8.1093,8.1093,8.1093,8.1093,8.1093,8.1093,8.1093,8.1093,8.1093,8.1093,8.1093,8.1093,8.1093,8.1093,8.1093,8.1093,8.1093,8.1093,8.1093,8.1093,8.1093,8.1093,8.1093,8.1093,8.1093,8.1093,8.1093,8.1093,8.1093,8.1093,8.1093,8.1093,8.1093,8.1093,8.1093,8.1093,8.0939,8.0708,7.9823,7.9092,7.8292,7.7292,7.6438,7.6092,7.5976,7.5976,7.5976,7.5976,7.5976,7.5978,7.5933,7.5887,7.5809,7.5712,7.5587,7.5535,7.5445,7.5133,7.503,7.4766,7.4472,7.3969,7.3199,7.244,7.1727,7.1073,7.0608,7.0143,7.0105,7.0086,7.0032,7.0004,6.9939,6.991,6.9748,6.961,6.9457,6.9257,6.9087,6.8826,6.8662,6.8481,6.8309,6.8183,6.8081,6.7978,6.786,6.7781,6.7741,6.7714,6.77,6.77,6.77,6.77,6.77,6.77,6.77,6.77,6.77,6.77,6.77,6.77,6.77,6.77,7.6438,7.6669,7.733,7.7599,7.7715,7.8677,7.9438,7.9815,7.9969,8.0477,8.1016,8.1093,8.1093,8.1093,8.1093,8.1093,8.1093,8.1093,8.1093,8.1093,8.1093,8.1093,8.1093,8.1093,8.1093,8.1093,8.1093,8.1093,8.1093,8.1093,8.1093,8.1093,8.1093,8.1093,8.1093,8.1093,8.1093,8.1093,8.1093,8.1093,8.1093,8.1093,8.1093,8.1093,8.1093,8.1093,8.1093,8.1054,8.0592,7.9862,7.9669,7.8707,7.74,7.6476,7.6053,7.5976,7.5976,7.5976,7.5976,7.5976,7.5993,7.597,7.5933,7.5879,7.5801,7.5679,7.5587,7.5497,7.5462,7.5454,7.5398,7.5104,7.4819,7.3973,7.3099,7.2283,7.1477,7.0867,7.0287,7.0211,7.0211,7.0194,7.0176,7.0149,7.0114,7.0022,6.9901,6.9699,6.9467,6.9246,6.8812,6.8601,6.842,6.8259,6.8107,6.7978,6.7873,6.7807,6.7741,6.7714,6.77,6.77,6.77,6.77,6.77,6.77,6.77,6.77,6.77,6.77,6.77,6.77,6.77,6.77,6.77,7.5668,7.6092,7.6938,7.7061,7.6976,7.7984,7.86,7.8784,7.9469,8.0046,8.0554,8.09,8.1093,8.1093,8.1093,8.1093,8.1093,8.1093,8.1093,8.1093,8.1093,8.1093,8.1093,8.1093,8.1093,8.1093,8.1093,8.1093,8.1093,8.1093,8.1093,8.1093,8.1093,8.1093,8.1093,8.1093,8.1093,8.1093,8.1093,8.1093,8.1093,8.1093,8.1093,8.1093,8.1093,8.1093,8.1093,8.1093,8.0823,8.0131,7.9631,7.8631,7.74,7.6476,7.6053,7.5976,7.5976,7.5976,7.5976,7.5976,7.5976,7.5993,7.5985,7.594,7.5879,7.5769,7.569,7.5641,7.5625,7.5608,7.5599,7.54,7.5353,7.483,7.356,7.2502,7.1606,7.0765,7.0498,7.0498,7.0498,7.049,7.0427,7.0369,7.0319,7.0208,7.0085,6.9854,6.964,6.9305,6.89,6.8541,6.8309,6.817,6.8004,6.7886,6.7794,6.7727,6.77,6.77,6.77,6.77,6.77,6.77,6.77,6.77,6.77,6.77,6.77,6.77,6.77,6.77,6.77,6.77,6.7737,7.5053,7.5899,7.663,7.6638,7.6245,7.7522,7.7869,7.7676,7.8938,7.9708,8.0008,8.0785,8.1054,8.1093,8.1093,8.1093,8.1093,8.1093,8.1093,8.1093,8.1093,8.1093,8.1093,8.1093,8.1093,8.1093,8.1093,8.1093,8.1093,8.1093,8.1093,8.1093,8.1093,8.1093,8.1093,8.1093,8.1093,8.1093,8.1093,8.1093,8.1093,8.1093,8.1093,8.1093,8.1093,8.1093,8.1093,8.1093,8.1093,8.0439,7.9523,7.8523,7.7515,7.663,7.6169,7.5976,7.5976,7.5976,7.5976,7.5976,7.5976,7.5976,7.5976,7.5985,7.5925,7.5887,7.581,7.5786,7.5724,7.5692,7.5684,7.5684,7.5646,7.5378,7.3997,7.2579,7.162,7.0777,7.0739,7.07,7.07,7.07,7.0632,7.0578,7.0515,7.0411,7.0205,6.9956,6.9681,6.9288,6.8897,6.8504,6.8184,6.8043,6.7899,6.782,6.7741,6.7727,6.77,6.77,6.77,6.77,6.77,6.77,6.77,6.77,6.77,6.77,6.77,6.77,6.77,6.77,6.77,6.7737,6.7847,7.4199,7.4976,7.513,7.5476,7.5976,7.6399,7.6784,7.7407,7.8292,7.9092,7.9746,8.0592,8.1093,8.1093,8.1093,8.1093,8.1093,8.1093,8.1093,8.1093,8.1093,8.1093,8.1093,8.1093,8.1093,8.1093,8.1093,8.1093,8.1093,8.1093,8.1093,8.1093,8.1093,8.1093,8.1093,8.1093,8.1093,8.1093,8.1093,8.1093,8.1093,8.1093,8.1093,8.1093,8.1093,8.1093,8.1093,8.1093,8.1093,8.0554,7.9554,7.86,7.7753,7.6861,7.6169,7.5976,7.5976,7.5976,7.5976,7.5976,7.5976,7.5976,7.5976,7.5976,7.5978,7.5978,7.591,7.5894,7.5856,7.574,7.5724,7.5724,7.5686,7.5179,7.4182,7.2656,7.139,7.1044,7.0853,7.0776,7.0737,7.0737,7.073,7.0669,7.0662,7.057,7.0507,7.023,6.9816,6.9365,6.89,6.856,6.8222,6.7876,6.7767,6.7767,6.7714,6.77,6.77,6.77,6.77,6.77,6.77,6.77,6.77,6.77,6.77,6.77,6.77,6.77,6.77,6.77,6.77,6.7774,6.7921]}]]